[[{"header":{"parameterUnit":"m.s-1","parameterCategory":1,"la1":31.0,"la2":29.5877,"lo1":-88.7671,"lo2":-86.6584,"dy":0.0162,"dx":0.0185,"nx":115,"ny":88,"refTime":"2023-03-22T06:00:00:Z","depth":0,"parameterNumber":2,"parameterNumberName":"U-component_of_WINDS"},"data":[0.0,0.0,0.0,0.0,0.0,0.0,0.0,0.0,0.0,0.0,0.0,0.0,0.0,0.0,0.0,0.0,0.0,0.0,0.0,0.0,0.0,0.0,0.0,0.0,0.0,0.0,0.0,0.0,0.0,0.0,0.0,0.0,0.0,0.0,0.0,0.0,0.0,0.0,0.0,0.0,0.0,0.0,0.0,0.0,0.0,0.0,0.0,0.0,0.0,0.0,0.0,0.0,0.0,0.0,0.0,0.0,0.0,0.0,0.0,0.0,0.0,0.0,0.0,0.0,0.0,0.0,0.0,0.0,0.0,0.0,0.0,0.0,0.0,0.0,0.0,0.0,0.0,0.0,0.0,0.0,0.0,0.0,0.0,0.0,0.0,0.0,0.0,0.0,0.0,0.0,0.0,0.0,0.0,0.0,0.0,0.0,0.0,0.0,0.0,0.0,0.0,0.0,0.0,0.0,0.0,0.0,0.0,0.0,0.0,0.0,0.0,0.0,0.0,0.0,0.0,0.0,0.0,0.0,0.0,0.0,0.0,0.0,0.0,0.0,0.0,0.0,0.0,0.0,0.0,0.0,0.0,0.0,0.0,0.0,0.0,0.0,0.0,0.0,0.0,0.0,0.0,0.0,0.0,0.0,0.0,0.0,0.0,0.0,0.0,0.0,0.0,0.0,0.0,0.0,0.0,0.0,0.0,0.0,0.0,0.0,0.0,0.0,0.0,0.0,0.0,0.0,0.0,0.0,0.0,0.0,0.0,0.0,0.0,0.0,0.0,0.0,0.0,0.0,0.0,0.0,0.0,0.0,0.0,0.0,0.0,0.0,0.0,0.0,0.0,0.0,0.0,0.0,0.0,0.0,0.0,0.0,0.0,0.0,0.0,0.0,0.0,0.0,0.0,0.0,0.0,0.0,0.0,0.0,0.0,0.0,0.0,0.0,0.0,0.0,0.0,0.0,0.0,0.0,0.0,0.0,0.0,0.0,0.0,0.0,0.0,0.0,0.0,0.0,0.0,0.0,0.0,0.0,0.0,0.0,0.0,0.0,0.0,0.0,0.0,0.0,0.0,0.0,0.0,0.0,0.0,0.0,0.0,0.0,0.0,0.0,0.0,0.0,0.0,0.0,0.0,0.0,0.0,0.0,0.0,0.0,0.0,0.0,0.0,0.0,0.0,0.0,0.0,0.0,0.0,0.0,0.0,0.0,0.0,0.0,0.0,0.0,0.0,0.0,0.0,0.0,0.0,0.0,0.0,0.0,0.0,0.0,0.0,0.0,0.0,0.0,0.0,0.0,0.0,0.0,0.0,0.0,0.0,0.0,0.0,0.0,0.0,0.0,0.0,0.0,0.0,0.0,0.0,0.0,0.0,0.0,0.0,0.0,0.0,0.0,0.0,0.0,0.0,0.0,0.0,0.0,0.0,0.0,0.0,0.0,0.0,0.0,0.0,0.0,0.0,0.0,0.0,0.0,0.0,0.0,0.0,0.0,0.0,0.0,0.0,0.0,0.0,0.0,0.0,0.0,0.0,0.0,0.0,0.0,0.0,0.0,0.0,0.0,0.0,0.0,0.0,0.0,0.0,0.0,0.0,0.0,0.0,0.0,0.0,0.0,0.0,0.0,0.0,0.0,0.0,0.0,0.0,0.0,0.0,0.0,0.0,0.0,0.0,0.0,0.0,0.0,0.0,0.0,0.0,0.0,0.0,0.0,0.0,0.0,0.0,0.0,0.0,0.0,0.0,0.0,0.0,0.0,0.0,0.0,0.0,0.0,0.0,0.0,0.0,0.0,0.0,0.0,0.0,0.0,0.0,0.0,0.0,0.0,0.0,0.0,0.0,0.0,0.0,0.0,0.0,0.0,0.0,0.0,0.0,0.0,0.0,0.0,0.0,0.0,0.0,0.0,0.0,0.0,0.0,0.0,0.0,0.0,0.0,0.0,0.0,0.0,0.0,0.0,0.0,0.0,0.0,0.0,0.0,0.0,0.0,0.0,0.0,0.0,0.0,0.0,0.0,0.0,0.0,0.0,0.0,0.0,0.0,0.0,0.0,0.0,0.0,0.0,0.0,0.0,0.0,0.0,0.0,0.0,0.0,0.0,0.0,0.0,0.0,0.0,0.0,0.0,0.0,0.0,0.0,0.0,0.0,0.0,0.0,0.0,0.0,0.0,0.0,0.0,0.0,0.0,0.0,0.0,0.0,0.0,0.0,0.0,0.0,0.0,0.0,0.0,0.0,0.0,0.0,0.0,0.0,0.0,0.0,0.0,0.0,0.0,0.0,0.0,0.0,0.0,0.0,0.0,0.0,0.0,0.0,0.0,0.0,0.0,0.0,0.0,0.0,0.0,0.0,0.0,0.0,0.0,0.0,0.0,0.0,0.0,0.0,0.0,0.0,0.0,0.0,0.0,0.0,0.0,0.0,0.0,0.0,0.0,0.0,0.0,0.0,0.0,0.0,0.0,0.0,0.0,0.0,0.0,0.0,0.0,0.0,0.0,0.0,0.0,0.0,0.0,0.0,0.0,0.0,0.0,0.0,0.0,0.0,0.0,0.0,0.0,0.0,0.0,0.0,0.0,0.0,0.0,0.0,0.0,0.0,0.0,0.0,0.0,0.0,0.0,0.0,0.0,0.0,0.0,0.0,0.0,0.0,0.0,0.0,0.0,0.0,0.0,0.0,0.0,0.0,0.0,0.0,0.0,0.0,0.0,0.0,0.0,0.0,0.0,0.0,0.0,0.0,0.0,0.0,0.0,0.0,0.0,0.0,0.0,0.0,0.0,0.0,0.0,0.0,0.0,0.0,0.0,0.0,0.0,0.0,0.0,0.0,0.0,0.0,0.0,0.0,0.0,0.0,0.0,0.0,0.0,0.0,0.0,0.0,0.0,0.0,0.0,0.0,0.0,0.0,0.0,0.0,0.0,0.0,0.0,0.0,0.0,0.0,0.0,0.0,0.0,0.0,0.0,0.0,0.0,0.0,0.0,0.0,0.0,0.0,0.0,0.0,0.0,0.0,0.0,0.0,0.0,0.0,0.0,0.0,0.0,0.0,0.0,0.0,0.0,0.0,0.0,0.0,0.0,0.0,0.0,0.0,0.0,0.0,0.0,0.0,0.0,0.0,0.0,0.0,0.0,0.0,0.0,0.0,0.0,0.0,0.0,0.0,0.0,0.0,0.0,0.0,0.0,0.0,0.0,0.0,0.0,0.0,0.0,0.0,0.0,0.0,0.0,0.0,0.0,0.0,0.0,0.0,0.0,0.0,0.0,0.0,0.0,0.0,0.0,0.0,0.0,0.0,0.0,0.0,0.0,0.0,0.0,0.0,0.0,0.0,0.0,0.0,0.0,0.0,0.0,0.0,0.0,0.0,0.0,0.0,0.0,0.0,0.0,0.0,0.0,0.0,0.0,0.0,0.0,0.0,0.0,0.0,0.0,0.0,0.0,0.0,0.0,0.0,0.0,0.0,0.0,0.0,0.0,0.0,0.0,0.0,0.0,0.0,0.0,0.0,0.0,0.0,0.0,0.0,0.0,0.0,0.0,0.0,0.0,0.0,0.0,0.0,0.0,0.0,0.0,0.0,0.0,0.0,0.0,0.0,0.0,0.0,0.0,0.0,0.0,0.0,0.0,0.0,0.0,0.0,0.0,0.0,0.0,0.0,0.0,0.0,0.0,0.0,0.0,0.0,0.0,0.0,0.0,0.0,0.0,0.0,0.0,0.0,0.0,0.0,0.0,0.0,0.0,0.0,0.0,0.0,0.0,0.0,0.0,0.0,0.0,0.0,0.0,0.0,0.0,0.0,0.0,0.0,0.0,0.0,0.0,0.0,0.0,0.0,0.0,0.0,0.0,0.0,0.0,0.0,0.0,0.0,0.0,0.0,0.0,0.0,0.0,0.0,0.0,0.0,0.0,0.0,0.0,0.0,0.0,0.0,0.0,0.0,0.0,0.0,0.0,0.0,0.0,0.0,0.0,0.0,0.0,0.0,0.0,0.0,0.0,0.0,0.0,0.0,0.0,0.0,0.0,0.0,0.0,0.0,0.0,0.0,0.0,0.0,0.0,0.0,0.0,0.0,0.0,0.0,0.0,0.0,0.0,0.0,0.0,0.0,0.0,0.0,0.0,0.0,0.0,0.0,0.0,0.0,0.0,0.0,0.0,0.0,0.0,0.0,0.0,0.0,0.0,0.0,0.0,0.0,0.0,0.0,0.0,0.0,0.0,0.0,0.0,0.0,0.0,0.0,0.0,0.0,0.0,0.0,0.0,0.0,0.0,-1.1277,0.0,0.0,0.0,0.0,0.0,0.0,0.0,0.0,0.0,0.0,0.0,0.0,0.0,0.0,0.0,0.0,0.0,0.0,0.0,0.0,0.0,0.0,0.0,0.0,0.0,0.0,0.0,0.0,0.0,0.0,0.0,0.0,0.0,0.0,0.0,0.0,0.0,0.0,0.0,0.0,0.0,0.0,0.0,0.0,0.0,0.0,0.0,0.0,0.0,0.0,0.0,0.0,0.0,0.0,0.0,0.0,0.0,0.0,0.0,0.0,0.0,0.0,0.0,0.0,0.0,0.0,0.0,0.0,0.0,0.0,0.0,0.0,0.0,0.0,0.0,0.0,0.0,0.0,0.0,0.0,0.0,0.0,0.0,0.0,0.0,0.0,0.0,0.0,0.0,0.0,0.0,0.0,0.0,0.0,0.0,0.0,0.0,0.0,0.0,0.0,0.0,0.0,0.0,0.0,0.0,0.0,0.0,0.0,0.0,0.0,-1.1639,-1.1918,-1.1523,-1.1371,-1.1504,0.0,0.0,0.0,0.0,0.0,0.0,0.0,0.0,0.0,0.0,0.0,0.0,0.0,0.0,0.0,0.0,0.0,0.0,0.0,0.0,0.0,0.0,0.0,0.0,0.0,0.0,0.0,0.0,0.0,0.0,0.0,0.0,0.0,0.0,0.0,0.0,0.0,0.0,0.0,0.0,0.0,0.0,0.0,0.0,0.0,0.0,0.0,0.0,0.0,0.0,0.0,0.0,0.0,0.0,0.0,0.0,0.0,0.0,0.0,0.0,0.0,0.0,0.0,0.0,0.0,0.0,0.0,0.0,0.0,0.0,0.0,0.0,0.0,0.0,0.0,0.0,0.0,0.0,0.0,0.0,0.0,0.0,0.0,0.0,0.0,0.0,0.0,0.0,0.0,0.0,0.0,0.0,0.0,0.0,0.0,0.0,0.0,0.0,0.0,0.0,0.0,0.0,0.0,0.0,0.0,0.0,0.0,0.0,0.0,0.0,0.0,0.0,-1.1879,-1.1747,-1.1738,0.0,0.0,0.0,0.0,0.0,0.0,0.0,0.0,0.0,0.0,0.0,0.0,0.0,0.0,0.0,0.0,0.0,0.0,0.0,0.0,0.0,0.0,0.0,0.0,0.0,0.0,0.0,0.0,0.0,0.0,0.0,0.0,0.0,0.0,0.0,0.0,0.0,0.0,0.0,0.0,0.0,0.0,0.0,0.0,0.0,0.0,0.0,0.0,0.0,0.0,0.0,0.0,0.0,0.0,0.0,0.0,0.0,0.0,0.0,0.0,0.0,0.0,0.0,0.0,0.0,0.0,0.0,0.0,0.0,0.0,0.0,0.0,0.0,0.0,0.0,0.0,0.0,0.0,0.0,0.0,0.0,0.0,0.0,0.0,0.0,0.0,0.0,0.0,0.0,0.0,0.0,0.0,0.0,0.0,0.0,0.0,0.0,0.0,0.0,0.0,0.0,0.0,0.0,0.0,0.0,0.0,0.0,0.0,0.0,0.0,-1.2455,-1.2455,-1.2418,0.0,-1.1958,0.0,0.0,0.0,0.0,0.0,0.0,0.0,0.0,0.0,0.0,0.0,0.0,0.0,0.0,0.0,0.0,0.0,0.0,0.0,0.0,0.0,0.0,0.0,0.0,0.0,0.0,0.0,0.0,0.0,0.0,0.0,0.0,0.0,0.0,0.0,0.0,0.0,0.0,0.0,0.0,0.0,0.0,0.0,0.0,0.0,0.0,0.0,0.0,0.0,0.0,0.0,0.0,0.0,0.0,0.0,0.0,0.0,0.0,0.0,0.0,0.0,0.0,0.0,0.0,0.0,0.0,0.0,0.0,0.0,0.0,0.0,0.0,0.0,0.0,0.0,0.0,0.0,0.0,0.0,0.0,0.0,0.0,0.0,0.0,0.0,0.0,0.0,0.0,0.0,0.0,0.0,0.0,0.0,0.0,0.0,0.0,0.0,0.0,0.0,0.0,0.0,0.0,0.0,0.0,0.0,0.0,0.0,0.0,0.0,0.0,-1.2554,-1.2603,-1.2627,-1.255,0.0,0.0,0.0,0.0,0.0,0.0,0.0,0.0,0.0,0.0,0.0,0.0,0.0,0.0,0.0,0.0,0.0,0.0,0.0,0.0,0.0,0.0,0.0,0.0,0.0,0.0,0.0,0.0,0.0,0.0,0.0,0.0,0.0,0.0,0.0,0.0,0.0,0.0,0.0,0.0,0.0,0.0,0.0,0.0,0.0,0.0,0.0,0.0,0.0,0.0,0.0,0.0,0.0,0.0,0.0,0.0,0.0,0.0,0.0,0.0,0.0,0.0,0.0,0.0,0.0,0.0,0.0,0.0,0.0,0.0,0.0,0.0,0.0,0.0,0.0,0.0,0.0,0.0,0.0,0.0,0.0,0.0,0.0,0.0,0.0,0.0,0.0,0.0,0.0,0.0,0.0,0.0,0.0,0.0,0.0,0.0,0.0,0.0,0.0,0.0,0.0,0.0,0.0,0.0,0.0,0.0,0.0,0.0,0.0,0.0,-1.2578,-1.2652,-1.2749,-1.2759,-1.2749,-1.2749,0.0,0.0,0.0,0.0,0.0,0.0,0.0,0.0,0.0,0.0,0.0,0.0,0.0,0.0,0.0,0.0,0.0,0.0,0.0,0.0,0.0,0.0,0.0,0.0,0.0,0.0,0.0,0.0,0.0,0.0,0.0,0.0,0.0,0.0,0.0,0.0,0.0,0.0,0.0,0.0,0.0,0.0,0.0,0.0,0.0,0.0,0.0,0.0,0.0,0.0,0.0,0.0,0.0,0.0,0.0,0.0,0.0,0.0,0.0,0.0,0.0,0.0,0.0,0.0,0.0,0.0,0.0,0.0,0.0,0.0,0.0,0.0,0.0,0.0,0.0,0.0,0.0,0.0,0.0,0.0,0.0,0.0,0.0,0.0,0.0,0.0,0.0,0.0,0.0,0.0,0.0,0.0,0.0,0.0,0.0,0.0,0.0,0.0,0.0,0.0,0.0,0.0,0.0,0.0,0.0,0.0,0.0,0.0,-1.27,-1.2798,-1.2881,-1.2881,-1.2881,-1.2881,0.0,0.0,0.0,0.0,0.0,0.0,0.0,0.0,0.0,0.0,0.0,0.0,0.0,0.0,0.0,0.0,0.0,0.0,0.0,0.0,0.0,0.0,0.0,0.0,0.0,0.0,0.0,0.0,0.0,0.0,0.0,0.0,0.0,0.0,0.0,0.0,0.0,0.0,0.0,0.0,0.0,0.0,0.0,0.0,0.0,0.0,0.0,0.0,0.0,0.0,0.0,0.0,0.0,0.0,0.0,0.0,0.0,0.0,0.0,0.0,0.0,0.0,0.0,0.0,0.0,0.0,0.0,0.0,0.0,0.0,0.0,0.0,0.0,0.0,0.0,0.0,0.0,0.0,0.0,0.0,0.0,0.0,0.0,0.0,0.0,0.0,0.0,0.0,0.0,0.0,0.0,0.0,0.0,0.0,0.0,0.0,0.0,0.0,0.0,0.0,0.0,0.0,0.0,0.0,0.0,0.0,0.0,0.0,0.0,-1.2852,-1.2881,-1.2915,-1.2915,-1.2915,-1.2915,0.0,0.0,0.0,0.0,0.0,0.0,0.0,0.0,0.0,0.0,0.0,0.0,0.0,0.0,0.0,0.0,0.0,0.0,0.0,0.0,0.0,0.0,0.0,0.0,0.0,0.0,0.0,0.0,0.0,0.0,0.0,0.0,0.0,0.0,0.0,0.0,0.0,0.0,0.0,0.0,0.0,0.0,0.0,0.0,0.0,0.0,0.0,0.0,0.0,0.0,0.0,0.0,0.0,0.0,0.0,0.0,0.0,0.0,0.0,0.0,0.0,0.0,0.0,0.0,0.0,0.0,0.0,0.0,0.0,0.0,0.0,0.0,0.0,0.0,0.0,0.0,0.0,0.0,0.0,0.0,0.0,0.0,0.0,0.0,0.0,0.0,0.0,0.0,0.0,0.0,0.0,0.0,0.0,0.0,0.0,0.0,0.0,0.0,0.0,0.0,0.0,0.0,0.0,0.0,0.0,0.0,0.0,0.0,0.0,-1.3096,0.0,-1.2915,-1.2915,-1.2915,-1.2915,0.0,0.0,0.0,0.0,0.0,0.0,0.0,0.0,0.0,0.0,0.0,0.0,0.0,0.0,0.0,0.0,0.0,0.0,0.0,0.0,0.0,0.0,0.0,0.0,0.0,0.0,0.0,0.0,0.0,0.0,0.0,0.0,0.0,0.0,0.0,0.0,0.0,0.0,0.0,0.0,0.0,0.0,0.0,0.0,0.0,0.0,0.0,0.0,0.0,0.0,0.0,0.0,0.0,0.0,0.0,0.0,0.0,0.0,0.0,0.0,0.0,0.0,0.0,0.0,0.0,0.0,0.0,0.0,0.0,0.0,0.0,0.0,0.0,0.0,0.0,0.0,0.0,0.0,0.0,0.0,0.0,0.0,0.0,0.0,0.0,0.0,0.0,0.0,0.0,0.0,0.0,0.0,0.0,0.0,0.0,0.0,0.0,0.0,0.0,0.0,0.0,0.0,0.0,0.0,0.0,0.0,0.0,0.0,-1.3909,-1.3471,-1.3096,-1.2935,-1.2915,-1.2915,-1.2915,0.0,0.0,0.0,0.0,0.0,0.0,0.0,0.0,0.0,0.0,0.0,0.0,0.0,0.0,0.0,0.0,0.0,0.0,0.0,0.0,0.0,0.0,0.0,0.0,0.0,0.0,0.0,0.0,0.0,0.0,0.0,0.0,0.0,0.0,0.0,0.0,0.0,0.0,0.0,0.0,0.0,0.0,0.0,0.0,0.0,0.0,0.0,0.0,0.0,0.0,0.0,0.0,0.0,0.0,0.0,0.0,0.0,0.0,0.0,0.0,0.0,0.0,0.0,0.0,0.0,0.0,0.0,0.0,0.0,0.0,0.0,0.0,0.0,0.0,0.0,0.0,0.0,0.0,0.0,0.0,0.0,0.0,0.0,0.0,0.0,0.0,0.0,0.0,0.0,0.0,0.0,0.0,0.0,0.0,0.0,0.0,0.0,0.0,0.0,0.0,0.0,0.0,0.0,0.0,0.0,0.0,0.0,0.0,0.0,-1.3372,-1.3252,-1.3099,-1.2925,-1.2915,-1.2915,0.0,0.0,0.0,0.0,0.0,0.0,0.0,0.0,0.0,0.0,0.0,0.0,0.0,0.0,0.0,0.0,0.0,0.0,0.0,0.0,0.0,0.0,0.0,0.0,0.0,0.0,0.0,0.0,0.0,0.0,0.0,0.0,0.0,0.0,0.0,0.0,0.0,0.0,0.0,0.0,0.0,0.0,0.0,0.0,0.0,0.0,0.0,0.0,0.0,0.0,0.0,0.0,0.0,0.0,0.0,0.0,0.0,0.0,0.0,0.0,0.0,0.0,0.0,0.0,0.0,0.0,0.0,0.0,0.0,0.0,0.0,0.0,0.0,0.0,0.0,0.0,0.0,0.0,0.0,0.0,0.0,0.0,0.0,0.0,0.0,0.0,0.0,0.0,0.0,0.0,0.0,0.0,0.0,0.0,0.0,0.0,0.0,0.0,0.0,0.0,0.0,0.0,0.0,0.0,0.0,0.0,0.0,0.0,0.0,-1.3525,-1.3451,-1.3314,-1.2976,-1.3016,-1.2963,-1.2842,0.0,0.0,0.0,0.0,0.0,0.0,0.0,0.0,0.0,0.0,0.0,0.0,0.0,0.0,0.0,0.0,0.0,0.0,0.0,0.0,0.0,0.0,0.0,0.0,0.0,0.0,0.0,0.0,0.0,0.0,0.0,0.0,0.0,0.0,0.0,0.0,0.0,0.0,0.0,0.0,0.0,0.0,0.0,0.0,0.0,0.0,0.0,0.0,0.0,0.0,0.0,0.0,0.0,0.0,0.0,0.0,0.0,0.0,0.0,0.0,0.0,0.0,0.0,0.0,0.0,0.0,0.0,0.0,0.0,0.0,0.0,0.0,0.0,0.0,0.0,0.0,0.0,0.0,0.0,0.0,0.0,0.0,0.0,0.0,0.0,0.0,0.0,0.0,0.0,0.0,0.0,0.0,0.0,0.0,0.0,0.0,0.0,0.0,0.0,0.0,0.0,0.0,0.0,0.0,0.0,0.0,0.0,0.0,-1.3806,-1.3737,-1.3534,-1.3159,-1.3253,-1.3147,0.0,0.0,0.0,0.0,0.0,0.0,0.0,0.0,0.0,0.0,0.0,0.0,0.0,0.0,0.0,0.0,0.0,0.0,0.0,0.0,0.0,0.0,0.0,0.0,0.0,0.0,0.0,0.0,0.0,0.0,0.0,0.0,0.0,0.0,0.0,0.0,0.0,0.0,0.0,0.0,0.0,0.0,0.0,0.0,0.0,0.0,0.0,0.0,0.0,0.0,0.0,0.0,0.0,0.0,0.0,0.0,0.0,0.0,0.0,0.0,0.0,0.0,0.0,0.0,0.0,0.0,0.0,0.0,0.0,0.0,0.0,0.0,0.0,0.0,0.0,0.0,0.0,0.0,0.0,0.0,0.0,0.0,0.0,0.0,0.0,0.0,0.0,0.0,0.0,0.0,0.0,0.0,0.0,0.0,0.0,0.0,0.0,0.0,0.0,0.0,0.0,0.0,0.0,0.0,0.0,0.0,0.0,0.0,0.0,-1.3969,-1.3929,-1.3817,-1.3544,-1.3596,-1.3548,0.0,0.0,0.0,0.0,0.0,0.0,0.0,0.0,0.0,0.0,0.0,0.0,0.0,0.0,0.0,0.0,0.0,0.0,0.0,0.0,0.0,0.0,0.0,0.0,0.0,0.0,0.0,0.0,0.0,0.0,0.0,0.0,0.0,0.0,0.0,0.0,0.0,0.0,0.0,0.0,0.0,0.0,0.0,0.0,0.0,0.0,0.0,0.0,0.0,0.0,0.0,0.0,0.0,0.0,0.0,0.0,0.0,0.0,0.0,0.0,0.0,0.0,0.0,0.0,0.0,0.0,0.0,0.0,0.0,0.0,0.0,0.0,0.0,0.0,0.0,0.0,0.0,0.0,0.0,0.0,0.0,0.0,0.0,0.0,0.0,0.0,0.0,0.0,0.0,0.0,0.0,0.0,0.0,0.0,0.0,0.0,0.0,0.0,0.0,0.0,0.0,0.0,0.0,0.0,0.0,0.0,0.0,0.0,-1.4019,-1.392,-1.3911,-1.3877,-1.3837,-1.3765,-1.3644,0.0,0.0,0.0,0.0,0.0,0.0,0.0,0.0,0.0,0.0,0.0,0.0,0.0,0.0,0.0,0.0,0.0,0.0,0.0,0.0,0.0,0.0,0.0,0.0,0.0,0.0,0.0,0.0,0.0,0.0,0.0,0.0,0.0,0.0,0.0,0.0,0.0,0.0,0.0,0.0,0.0,0.0,0.0,0.0,0.0,0.0,0.0,0.0,0.0,0.0,0.0,0.0,0.0,0.0,0.0,0.0,0.0,0.0,0.0,0.0,0.0,0.0,0.0,0.0,0.0,0.0,0.0,0.0,0.0,0.0,0.0,0.0,0.0,0.0,0.0,0.0,0.0,0.0,0.0,0.0,0.0,0.0,0.0,0.0,0.0,0.0,0.0,0.0,0.0,0.0,0.0,0.0,0.0,0.0,0.0,0.0,0.0,0.0,0.0,0.0,0.0,0.0,0.0,0.0,0.0,0.0,0.0,0.0,-1.3799,-1.3769,-1.3769,-1.383,-1.3941,-1.3859,-1.3678,0.0,0.0,0.0,0.0,0.0,0.0,0.0,0.0,0.0,0.0,0.0,0.0,0.0,0.0,0.0,0.0,0.0,0.0,0.0,0.0,0.0,0.0,0.0,0.0,0.0,0.0,0.0,0.0,0.0,0.0,0.0,0.0,0.0,0.0,0.0,0.0,0.0,0.0,0.0,0.0,0.0,0.0,0.0,0.0,0.0,0.0,0.0,0.0,0.0,0.0,0.0,0.0,0.0,0.0,0.0,0.0,0.0,0.0,0.0,0.0,0.0,0.0,0.0,0.0,0.0,0.0,0.0,0.0,0.0,0.0,0.0,0.0,0.0,0.0,0.0,0.0,0.0,0.0,0.0,0.0,0.0,0.0,0.0,0.0,0.0,0.0,0.0,0.0,0.0,0.0,0.0,0.0,0.0,0.0,0.0,0.0,0.0,0.0,0.0,0.0,0.0,0.0,0.0,0.0,0.0,0.0,0.0,0.0,-1.37,-1.3571,-1.3571,-1.3571,-1.3601,-1.3832,-1.3998,0.0,0.0,0.0,0.0,0.0,0.0,0.0,0.0,0.0,0.0,0.0,0.0,0.0,0.0,0.0,0.0,0.0,0.0,0.0,0.0,0.0,0.0,0.0,0.0,0.0,0.0,0.0,0.0,0.0,0.0,0.0,0.0,0.0,0.0,0.0,0.0,0.0,0.0,0.0,0.0,0.0,0.0,0.0,0.0,0.0,0.0,0.0,0.0,-0.3381,0.0,0.0,0.0,0.0,0.0,0.0,0.0,0.0,0.0,0.0,0.0,0.0,0.0,0.0,0.0,0.0,0.0,0.0,0.0,0.0,0.0,0.0,0.0,0.0,0.0,0.0,0.0,0.0,0.0,0.0,0.0,0.0,0.0,0.0,0.0,0.0,0.0,0.0,0.0,0.0,0.0,0.0,0.0,0.0,0.0,0.0,0.0,0.0,0.0,0.0,0.0,0.0,0.0,0.0,0.0,0.0,0.0,0.0,0.0,-1.3376,-1.3277,-1.3277,-1.3277,-1.3277,-1.3528,-1.3808,0.0,0.0,0.0,0.0,0.0,0.0,0.0,0.0,0.0,0.0,0.0,0.0,0.0,0.0,0.0,0.0,0.0,0.0,0.0,0.0,0.0,0.0,0.0,0.0,0.0,0.0,0.0,0.0,0.0,0.0,0.0,0.0,0.0,0.0,0.0,0.0,0.0,0.0,0.0,0.0,0.0,0.0,0.0,0.0,0.0,0.0,0.0,0.0,0.0,0.0,0.0,0.0,0.0,0.0,0.0,0.0,0.0,0.0,0.0,0.0,0.0,0.0,0.0,0.0,0.0,0.0,0.0,0.0,0.0,0.0,0.0,0.0,0.0,0.0,0.0,0.0,0.0,0.0,0.0,0.0,0.0,0.0,0.0,0.0,0.0,0.0,0.0,0.0,0.0,0.0,0.0,0.0,0.0,0.0,0.0,0.0,0.0,0.0,0.0,0.0,0.0,0.0,0.0,0.0,0.0,0.0,0.0,-1.3094,-1.295,-1.292,-1.292,-1.292,-1.2958,-1.315,-1.3454,-1.389,0.0,0.0,0.0,0.0,0.0,0.0,0.0,0.0,0.0,0.0,0.0,0.0,0.0,0.0,0.0,0.0,0.0,0.0,0.0,0.0,0.0,0.0,0.0,0.0,0.0,0.0,0.0,0.0,0.0,0.0,0.0,0.0,0.0,0.0,0.0,0.0,0.0,0.0,-0.5369,-0.5085,0.0,0.0,0.0,0.0,0.0,0.0,0.0,0.0,-0.3499,0.0,0.0,0.0,0.0,0.0,0.0,0.0,0.0,0.0,0.0,0.0,0.0,0.0,0.0,0.0,0.0,0.0,0.0,0.0,0.0,0.0,0.0,0.0,0.0,0.0,0.0,0.0,0.0,0.0,0.0,0.0,0.0,0.0,0.0,0.0,0.0,0.0,0.0,0.0,0.0,0.0,0.0,0.0,0.0,0.0,0.0,0.0,0.0,0.0,0.0,0.0,0.0,0.0,0.0,0.0,0.0,-1.292,-1.2858,-1.2767,-1.2574,-1.2582,-1.2683,-1.2836,-1.2867,-1.3042,-1.339,0.0,0.0,0.0,0.0,0.0,0.0,0.0,0.0,0.0,0.0,0.0,0.0,0.0,0.0,0.0,0.0,0.0,0.0,0.0,0.0,0.0,0.0,0.0,0.0,0.0,0.0,0.0,0.0,0.0,0.0,0.0,0.0,0.0,0.0,0.0,0.0,0.0,0.0,0.0,-0.5102,-0.4846,0.0,0.0,0.0,0.0,0.0,0.0,0.0,0.0,-0.38,0.0,0.0,0.0,0.0,0.0,0.0,0.0,0.0,0.0,0.0,0.0,0.0,0.0,0.0,0.0,0.0,0.0,0.0,0.0,0.0,0.0,0.0,0.0,0.0,0.0,0.0,0.0,0.0,0.0,0.0,0.0,0.0,0.0,0.0,0.0,0.0,0.0,0.0,0.0,0.0,0.0,0.0,0.0,0.0,0.0,0.0,0.0,0.0,0.0,0.0,0.0,0.0,0.0,0.0,0.0,-1.2683,-1.2529,-1.2398,-1.2305,-1.2297,-1.2336,-1.2436,-1.2529,-1.2674,0.0,0.0,0.0,0.0,0.0,0.0,0.0,0.0,0.0,0.0,0.0,0.0,0.0,0.0,0.0,0.0,0.0,0.0,0.0,0.0,0.0,0.0,0.0,0.0,0.0,0.0,0.0,0.0,0.0,0.0,0.0,0.0,0.0,0.0,0.0,0.0,0.0,0.0,0.0,0.0,-0.5414,-0.5243,-0.4993,0.0,0.0,0.0,0.0,0.0,0.0,-0.4049,-0.403,0.0,0.0,0.0,0.0,0.0,0.0,0.0,0.0,0.0,0.0,0.0,0.0,0.0,0.0,0.0,0.0,0.0,0.0,0.0,0.0,0.0,0.0,0.0,0.0,0.0,0.0,0.0,0.0,0.0,0.0,0.0,0.0,0.0,0.0,0.0,0.0,0.0,0.0,0.0,0.0,0.0,0.0,0.0,0.0,0.0,0.0,0.0,0.0,0.0,0.0,0.0,0.0,0.0,0.0,0.0,-1.2398,-1.2096,-1.191,-1.1903,-1.1903,-1.191,-1.1934,-1.2081,-1.2251,0.0,0.0,0.0,0.0,0.0,0.0,0.0,0.0,0.0,0.0,0.0,0.0,0.0,0.0,0.0,0.0,0.0,0.0,0.0,0.0,0.0,0.0,0.0,0.0,0.0,0.0,0.0,0.0,0.0,0.0,0.0,0.0,0.0,0.0,0.0,0.0,0.0,0.0,0.0,0.0,0.0,-0.5618,-0.5338,-0.517,0.0,0.0,0.0,0.0,-0.4231,-0.4181,0.0,0.0,0.0,0.0,0.0,0.0,0.0,0.0,0.0,0.0,0.0,0.0,0.0,0.0,0.0,0.0,0.0,0.0,0.0,0.0,0.0,0.0,0.0,0.0,0.0,0.0,0.0,0.0,0.0,0.0,0.0,0.0,0.0,0.0,0.0,0.0,0.0,0.0,0.0,0.0,0.0,0.0,0.0,0.0,0.0,0.0,0.0,0.0,0.0,0.0,0.0,0.0,0.0,0.0,0.0,0.0,-1.1716,-1.149,-1.1341,-1.1216,-1.1216,-1.1247,-1.1404,-1.1591,-1.1747,0.0,0.0,0.0,0.0,0.0,0.0,0.0,0.0,0.0,0.0,0.0,0.0,0.0,0.0,0.0,0.0,0.0,0.0,0.0,0.0,0.0,0.0,0.0,0.0,0.0,0.0,0.0,0.0,0.0,0.0,0.0,0.0,0.0,0.0,0.0,0.0,0.0,0.0,0.0,0.0,0.0,-0.5691,-0.5641,-0.5491,-0.5333,0.0,0.0,-0.4887,-0.489,-0.4498,0.0,0.0,0.0,0.0,0.0,0.0,0.0,0.0,0.0,0.0,0.0,0.0,0.0,0.0,0.0,0.0,0.0,0.0,0.0,0.0,0.0,0.0,0.0,0.0,0.0,0.0,0.0,0.0,0.0,0.0,0.0,0.0,0.0,0.0,0.0,0.0,0.0,0.0,0.0,0.0,0.0,0.0,0.0,0.0,0.0,0.0,0.0,0.0,0.0,0.0,0.0,0.0,0.0,0.0,0.0,-1.1747,-1.1428,-1.1153,-1.0965,-1.0807,-1.0807,-1.0877,-1.1021,-1.1083,-1.131,0.0,0.0,0.0,0.0,0.0,0.0,0.0,0.0,0.0,0.0,0.0,0.0,0.0,0.0,0.0,0.0,0.0,0.0,0.0,0.0,0.0,0.0,0.0,0.0,0.0,0.0,0.0,0.0,0.0,0.0,0.0,0.0,0.0,0.0,0.0,0.0,0.0,0.0,0.0,0.0,0.0,0.0,-0.6113,-0.5852,0.0,0.0,0.0,-0.5206,-0.5233,0.0,0.0,0.0,0.0,0.0,0.0,0.0,0.0,0.0,0.0,0.0,0.0,0.0,0.0,0.0,0.0,0.0,0.0,0.0,0.0,0.0,0.0,0.0,0.0,0.0,0.0,0.0,0.0,0.0,0.0,0.0,0.0,0.0,0.0,0.0,0.0,0.0,0.0,0.0,0.0,0.0,0.0,0.0,0.0,0.0,0.0,0.0,0.0,0.0,0.0,0.0,0.0,0.0,0.0,0.0,0.0,0.0,-1.1115,-1.0769,-1.0555,-1.0434,-1.0466,-1.0491,-1.0586,-1.0681,0.0,0.0,0.0,0.0,0.0,0.0,0.0,0.0,0.0,0.0,0.0,0.0,0.0,0.0,0.0,0.0,0.0,0.0,0.0,0.0,0.0,0.0,0.0,0.0,0.0,0.0,0.0,-1.1028,0.0,0.0,0.0,0.0,0.0,0.0,0.0,0.0,0.0,0.0,0.0,0.0,0.0,0.0,-0.6694,-0.6529,-0.6317,-0.6109,0.0,0.0,-0.5586,-0.5525,-0.5457,-0.5434,0.0,0.0,0.0,0.0,0.0,0.0,0.0,0.0,0.0,0.0,0.0,0.0,0.0,0.0,0.0,0.0,0.0,0.0,0.0,0.0,0.0,0.0,0.0,0.0,0.0,0.0,0.0,0.0,0.0,0.0,0.0,0.0,0.0,0.0,0.0,0.0,0.0,0.0,0.0,0.0,0.0,0.0,0.0,0.0,0.0,0.0,0.0,0.0,0.0,0.0,0.0,0.0,0.0,0.0,-1.1055,-1.0663,-1.0238,-1.0047,-1.0047,-1.0053,-1.0047,-1.0047,-1.0434,-1.0624,0.0,0.0,0.0,0.0,0.0,0.0,0.0,0.0,0.0,0.0,0.0,0.0,0.0,0.0,0.0,0.0,0.0,0.0,0.0,0.0,0.0,0.0,0.0,0.0,0.0,0.0,0.0,0.0,0.0,0.0,0.0,0.0,0.0,0.0,0.0,0.0,0.0,0.0,0.0,0.0,0.0,-0.6876,-0.6863,-0.683,-0.6789,0.0,-0.6361,-0.6096,-0.588,-0.5624,-0.5495,-0.5828,0.0,0.0,0.0,0.0,0.0,0.0,0.0,0.0,0.0,0.0,0.0,0.0,0.0,0.0,0.0,0.0,0.0,0.0,0.0,0.0,0.0,0.0,0.0,0.0,0.0,0.0,0.0,0.0,0.0,0.0,0.0,0.0,0.0,0.0,0.0,0.0,0.0,0.0,0.0,0.0,0.0,0.0,0.0,0.0,0.0,0.0,0.0,0.0,0.0,0.0,0.0,0.0,0.0,-1.0882,-1.0347,-1.0085,-0.977,-0.9414,-0.9498,-0.9594,-0.9684,-0.9951,-1.0276,0.0,0.0,0.0,0.0,0.0,0.0,0.0,0.0,0.0,0.0,0.0,0.0,0.0,0.0,0.0,0.0,0.0,0.0,0.0,0.0,0.0,0.0,0.0,0.0,0.0,0.0,0.0,0.0,-1.0339,-0.9888,-0.96,0.0,0.0,0.0,0.0,0.0,0.0,0.0,0.0,0.0,0.0,-0.7073,-0.7073,-0.6909,0.0,0.0,-0.6485,-0.6314,-0.6221,-0.6193,-0.6241,-0.6368,-0.6527,0.0,0.0,0.0,0.0,0.0,0.0,0.0,0.0,0.0,0.0,0.0,0.0,0.0,0.0,0.0,0.0,0.0,0.0,0.0,0.0,0.0,0.0,0.0,0.0,0.0,0.0,0.0,0.0,0.0,0.0,0.0,0.0,0.0,0.0,0.0,0.0,0.0,0.0,0.0,0.0,0.0,0.0,0.0,0.0,0.0,0.0,0.0,0.0,0.0,0.0,0.0,0.0,-1.0798,-1.0224,-1.0021,-0.9697,-0.9212,-0.9344,-0.9468,-0.9521,-0.9722,-1.0014,0.0,0.0,0.0,0.0,0.0,0.0,0.0,0.0,0.0,0.0,0.0,0.0,0.0,0.0,0.0,0.0,0.0,0.0,0.0,0.0,0.0,0.0,0.0,0.0,0.0,0.0,0.0,0.0,-1.0212,-0.976,-0.9408,0.0,0.0,0.0,0.0,0.0,0.0,0.0,0.0,0.0,0.0,-0.7335,-0.7335,-0.7101,-0.6937,-0.6872,-0.6712,-0.6618,-0.6552,-0.6679,-0.6811,-0.6933,0.0,0.0,0.0,0.0,0.0,0.0,0.0,0.0,0.0,0.0,0.0,0.0,0.0,0.0,0.0,0.0,0.0,0.0,0.0,0.0,0.0,0.0,0.0,0.0,0.0,0.0,0.0,-1.2879,0.0,0.0,-1.2821,0.0,0.0,0.0,0.0,0.0,0.0,0.0,0.0,0.0,0.0,0.0,0.0,0.0,0.0,0.0,0.0,0.0,0.0,0.0,0.0,0.0,0.0,-1.0758,-1.0292,-1.0078,-0.9898,-0.9678,-0.9689,-0.9668,-0.9612,-0.9801,-0.9939,-1.004,0.0,0.0,0.0,0.0,0.0,0.0,0.0,0.0,0.0,0.0,0.0,0.0,0.0,0.0,0.0,0.0,0.0,0.0,0.0,0.0,0.0,0.0,0.0,0.0,0.0,0.0,-1.0593,-1.0123,-0.974,0.0,0.0,0.0,0.0,0.0,0.0,0.0,0.0,0.0,0.0,-0.7824,-0.7699,-0.7699,-0.7559,-0.7396,-0.7204,-0.7167,-0.7106,-0.6913,-0.6913,-0.7045,0.0,0.0,0.0,0.0,0.0,0.0,0.0,0.0,0.0,0.0,0.0,0.0,0.0,0.0,0.0,0.0,0.0,0.0,0.0,0.0,0.0,0.0,0.0,0.0,0.0,0.0,0.0,-1.2114,-1.2077,0.0,0.0,0.0,0.0,0.0,0.0,0.0,0.0,0.0,0.0,0.0,-1.1892,-1.1744,0.0,0.0,0.0,0.0,0.0,0.0,0.0,0.0,0.0,0.0,0.0,0.0,-1.045,-1.0045,-0.9992,-0.9729,-0.9392,-0.9637,-0.9742,-0.9731,-1.0029,-1.0356,-1.0734,0.0,0.0,0.0,0.0,0.0,0.0,0.0,0.0,0.0,0.0,0.0,0.0,0.0,0.0,0.0,0.0,0.0,0.0,0.0,0.0,0.0,0.0,0.0,0.0,0.0,-1.0498,0.0,0.0,0.0,0.0,0.0,0.0,0.0,0.0,0.0,0.0,0.0,-0.7982,-0.7982,-0.7754,-0.7563,-0.7559,-0.7396,-0.7265,0.0,0.0,0.0,0.0,0.0,0.0,0.0,0.0,0.0,0.0,0.0,0.0,0.0,0.0,-1.0586,-1.0713,-1.1122,-1.1529,-1.1872,0.0,0.0,0.0,0.0,0.0,0.0,0.0,0.0,0.0,0.0,0.0,0.0,0.0,0.0,-1.1781,0.0,-1.1706,0.0,0.0,0.0,0.0,0.0,0.0,0.0,0.0,-1.144,-1.1409,-1.1372,-1.1186,-1.1111,0.0,-1.0818,-1.0812,0.0,0.0,0.0,0.0,0.0,0.0,0.0,0.0,-1.0327,-1.0033,-0.9985,-0.9834,-0.9459,-0.9675,-0.9856,-0.9913,-1.0242,-1.0604,-1.108,-1.1344,-1.1635,0.0,0.0,0.0,0.0,0.0,0.0,0.0,0.0,0.0,0.0,0.0,0.0,0.0,0.0,0.0,0.0,0.0,0.0,0.0,0.0,0.0,0.0,0.0,-1.0244,0.0,0.0,0.0,0.0,0.0,0.0,0.0,0.0,0.0,-0.8517,-0.8312,-0.8182,-0.8187,-0.7917,-0.7749,-0.7749,0.0,0.0,0.0,0.0,0.0,0.0,0.0,-0.7824,-0.7852,-0.8112,-0.8398,-0.8619,-0.9139,-0.9696,-1.011,0.0,0.0,-1.0958,-1.1341,-1.1809,-1.2189,-1.2467,-1.2744,-1.3011,-1.3164,-1.3294,0.0,0.0,0.0,0.0,0.0,0.0,0.0,0.0,-1.1966,-1.1855,0.0,-1.1669,0.0,0.0,0.0,0.0,-1.1669,-1.1477,0.0,0.0,-1.0999,-1.0812,-1.0775,-1.0594,-1.0475,-1.0513,-1.0481,-1.0406,-1.0218,-1.0406,0.0,0.0,0.0,0.0,0.0,0.0,-1.0368,-1.0175,-1.0175,-1.0105,-0.9911,-0.9916,-0.999,-1.0128,-1.0454,-1.0786,-1.1112,-1.1312,-1.1642,-1.2187,-1.2383,0.0,0.0,0.0,0.0,0.0,0.0,0.0,0.0,0.0,0.0,0.0,0.0,0.0,0.0,0.0,0.0,0.0,0.0,0.0,0.0,-1.0308,0.0,0.0,0.0,0.0,0.0,0.0,0.0,0.0,0.0,0.0,-0.8544,-0.8479,-0.8511,-0.8479,0.0,0.0,0.0,0.0,-0.8019,-0.8019,-0.8019,-0.8014,-0.7982,-0.8019,-0.8079,-0.8204,0.0,0.0,-0.939,-0.9786,-1.0142,-1.0561,-1.0965,-1.1303,-1.1341,-1.1584,-1.1996,-1.2498,-1.2713,-1.295,-1.3368,-1.358,-1.3769,-1.1706,0.0,0.0,0.0,0.0,-1.1669,-1.1521,-1.1372,-1.1329,-1.1329,-1.126,-1.1298,0.0,0.0,0.0,0.0,0.0,0.0,-1.1117,-1.0962,-1.085,-1.07,-1.0588,-1.0406,-1.0293,-1.0293,-1.0143,-1.003,-0.9997,-1.003,-1.0067,-1.0067,0.0,0.0,0.0,0.0,-1.0035,-0.9997,-0.9997,-0.9954,-0.9884,-1.003,-1.026,-1.0596,-1.0967,-1.1289,-1.1501,-1.1637,-1.1807,-1.2116,-1.2225,0.0,0.0,0.0,0.0,0.0,0.0,0.0,0.0,0.0,0.0,0.0,0.0,0.0,0.0,0.0,0.0,0.0,0.0,0.0,-1.0751,-1.02,-0.983,0.0,0.0,0.0,0.0,0.0,0.0,0.0,0.0,0.0,-0.8894,-0.8533,-0.8306,0.0,0.0,-0.8199,-0.8199,-0.8312,-0.8312,-0.8139,-0.8279,0.0,-0.8172,-0.8376,-0.8576,-0.8635,-0.8952,-0.9332,-0.9664,-1.011,-1.0491,-1.0719,-1.1185,-1.1591,-1.1809,-1.2027,-1.2274,-1.2683,-1.2967,-1.318,-1.3324,-1.3498,-1.364,-1.1372,-1.149,-1.1632,-1.1632,-1.1521,-1.1521,-1.1409,-1.1217,-1.1223,-1.1186,-1.1117,-1.1117,-1.1117,-1.1117,-1.1117,0.0,0.0,0.0,-1.0887,-1.07,-1.0594,-1.0475,-1.0368,-1.0186,-1.0073,-1.0067,-0.9954,-0.9884,-0.9884,-0.9884,-0.9884,-0.9884,0.0,0.0,-0.9657,-0.9738,-0.9771,-0.9771,-0.9841,-0.9884,-0.9884,-1.018,-1.0443,-1.07,-1.1074,-1.1416,-1.1669,-1.1767,-1.1965,-1.2398,-1.2473,-1.2655,0.0,0.0,0.0,0.0,0.0,0.0,0.0,0.0,0.0,0.0,0.0,-1.3135,-1.2998,0.0,0.0,0.0,-1.1703,-1.1288,-1.0807,-1.0386,0.0,0.0,0.0,0.0,0.0,0.0,0.0,-0.9177,-0.9177,-0.9177,-0.9113,-0.885,-0.8592,-0.8528,-0.8528,-0.8528,-0.8528,0.0,-0.8635,-0.8528,-0.863,-0.8668,-0.8528,-0.8727,-0.8926,-0.9055,-0.937,-0.9722,-1.0047,-1.0434,-1.0776,-1.109,-1.1498,-1.191,-1.2251,-1.2459,-1.2674,-1.295,-1.3194,-1.3445,-1.3636,-1.3739,-1.386,-1.1117,-1.1149,-1.1484,-1.1632,-1.1669,-1.1632,-1.1558,-1.1372,-1.1372,-1.126,-1.1111,-1.1117,-1.1117,-1.1117,-1.1117,0.0,-1.0812,-1.0812,-1.07,-1.0475,-1.0299,-1.018,-1.0143,-0.9992,-0.9884,-0.9884,-0.9884,-0.9884,-0.9884,-0.9884,-0.9884,-0.9884,-0.9695,-0.9511,-0.9365,-0.9511,-0.9625,-0.9625,-0.9809,-0.9922,-0.9922,-1.0331,-1.0519,-1.0556,-1.0925,-1.1335,-1.1706,-1.1744,-1.2114,-1.2863,-1.2936,-1.3193,-1.3754,0.0,0.0,0.0,0.0,0.0,0.0,0.0,0.0,0.0,0.0,0.0,0.0,0.0,0.0,0.0,-1.1511,0.0,-1.0981,-1.0761,0.0,0.0,0.0,-0.9675,-0.9465,-0.9274,-0.9133,-0.911,0.0,0.0,-0.9338,-0.937,-0.9274,-0.9113,-0.9081,-0.9049,-0.9049,-0.9055,-0.9049,-0.9049,-0.9049,-0.9017,-0.899,-0.9049,-0.921,-0.953,-0.9728,-1.0053,-1.0498,-1.0776,-1.1059,-1.1529,-1.1903,-1.2243,-1.256,-1.2828,-1.3103,-1.3307,-1.3411,-1.3679,-1.415,-1.4288,-1.4336,-1.1117,-1.1117,-1.1223,-1.126,-1.126,-1.1223,-1.1223,-1.1186,-1.1149,-1.1149,-1.1117,-1.1117,-1.1117,-1.1117,-1.1117,-1.0999,-1.0812,-1.0812,-1.0625,-1.0293,-1.0218,-1.0143,-0.996,-0.9922,-0.9884,-0.9884,-0.9884,-0.9884,-0.9884,-0.9884,-0.9809,-0.9695,-0.9625,-0.9657,-0.9771,-0.9809,-0.9846,-0.9846,-0.9884,-0.9954,-1.0143,-1.0519,-1.0812,-1.0962,-1.1223,-1.1595,-1.2114,-1.215,-1.2372,-1.2856,-1.32,-1.3419,-1.3572,-1.3848,0.0,0.0,0.0,0.0,0.0,0.0,0.0,0.0,0.0,-1.3763,-1.3454,0.0,-1.2935,0.0,-1.2111,-1.1693,-1.1664,-1.1286,0.0,0.0,-1.0716,-1.0588,-1.0553,-1.0479,-1.0365,-1.0192,-1.0135,-1.0093,-0.9849,-0.9856,-0.9817,-0.976,-0.967,-0.9606,-0.9606,-0.9606,-0.9536,-0.9428,-0.9396,-0.9332,-0.9306,-0.944,-0.9728,-1.0047,-1.0269,-1.0498,-1.0713,-1.1129,-1.1529,-1.191,-1.2251,-1.2552,-1.2867,-1.3164,-1.3437,-1.3619,-1.37,-1.3865,-1.4285,-1.4462,-1.4688,-1.1117,-1.1117,-1.1117,-1.1149,-1.1223,-1.1149,-1.1117,-1.1117,-1.1117,-1.1117,-1.1117,-1.1117,-1.1117,-1.1117,-1.1117,-1.0999,-1.0812,-1.0812,-1.0625,-1.0331,-1.0331,-1.0218,-1.003,-1.003,-0.9997,-0.9884,-0.9884,-0.9884,-0.9884,-0.9884,-0.9846,-0.9733,-0.9728,-0.9809,-0.9884,-0.9809,-0.9809,-0.9884,-1.0073,-1.0218,-1.0331,-1.0738,-1.0999,-1.1111,-1.1409,-1.1781,-1.2268,-1.2305,-1.2526,-1.301,-1.3346,-1.3564,-1.3746,-1.4137,-1.4425,0.0,0.0,0.0,0.0,0.0,0.0,0.0,0.0,0.0,0.0,0.0,-1.3302,-1.2936,-1.2303,-1.1956,-1.1956,-1.1625,-1.1381,-1.1252,-1.1134,-1.1055,-1.1037,-1.1018,-1.1028,-1.0946,-1.0961,-1.0902,-1.0804,-1.0784,-1.0817,-1.0883,-1.0817,-1.0588,-1.0136,-1.0091,-1.0085,-0.9907,-0.9843,-0.9811,-0.9754,-1.0015,-1.0339,-1.0593,-1.0807,-1.0996,-1.1216,-1.1553,-1.1941,-1.2274,-1.2644,-1.2981,-1.3194,-1.3634,-1.4035,-1.4162,-1.444,-1.4657,-1.4804,-1.5052,-1.5378,-1.1186,-1.1186,-1.1186,-1.126,-1.1409,-1.126,-1.1186,-1.1186,-1.1186,-1.1186,-1.1186,-1.1186,-1.1186,-1.1186,-1.1149,-1.1037,-1.085,-1.0812,-1.07,-1.0513,-1.0513,-1.04,-1.0255,-1.0255,-1.0143,-0.9997,-0.996,-0.9997,-0.9997,-0.9992,-0.9954,-0.9992,-0.9997,-0.9992,-0.9954,-0.9809,-0.9809,-0.9954,-1.0331,-1.0556,-1.055,-1.0931,-1.1149,-1.1186,-1.1558,-1.1972,-1.2378,-1.2445,-1.2716,-1.3266,-1.3528,-1.3775,-1.4129,-1.4489,-1.4748,0.0,-1.5098,0.0,0.0,0.0,0.0,0.0,0.0,0.0,0.0,-1.3754,-1.3492,-1.2973,-1.2452,-1.212,-1.212,-1.1966,-1.1758,-1.1526,-1.1494,-1.1462,-1.1403,-1.1405,-1.1495,-1.1641,-1.1668,-1.173,-1.1867,-1.1888,-1.1949,-1.2016,-1.2036,-1.1719,-1.0899,-1.0772,-1.0786,-1.0572,-1.0507,-1.0539,-1.0536,-1.0744,-1.0996,-1.1216,-1.1341,-1.1522,-1.1872,-1.2089,-1.2313,-1.2683,-1.3064,-1.3415,-1.3601,-1.4193,-1.4671,-1.4805,-1.5364,-1.5753,-1.5603,-1.5815,-1.6145,-1.1595,-1.1595,-1.1558,-1.1595,-1.1632,-1.1595,-1.1595,-1.1595,-1.1589,-1.1595,-1.1595,-1.1595,-1.1595,-1.1558,-1.1409,-1.1223,-1.1037,-1.0887,-1.07,-1.0513,-1.0513,-1.0475,-1.0443,-1.0443,-1.0406,-1.04,-1.0368,-1.0368,-1.0406,-1.0406,-1.0368,-1.04,-1.0368,-1.04,-1.0406,0.0,0.0,0.0,-1.0556,-1.0743,-1.0781,-1.1149,-1.1409,-1.1558,-1.1966,0.0,-1.301,-1.32,-1.3484,-1.3912,-1.4238,0.0,0.0,0.0,0.0,0.0,0.0,0.0,0.0,0.0,0.0,0.0,-1.4892,-1.4477,-1.3826,-1.3492,-1.3273,-1.3156,-1.29,-1.2746,-1.2753,-1.2716,-1.2652,-1.2597,-1.259,-1.2599,-1.258,-1.2573,-1.2562,-1.2565,-1.2536,-1.2548,-1.2463,-1.2465,-1.248,-1.2536,-1.2642,-1.2665,-1.2446,-1.2069,-1.1827,-1.1873,-1.1669,-1.15,-1.1377,-1.1519,-1.1714,-1.1872,-1.2027,-1.2243,-1.2521,-1.2736,-1.295,-1.3285,-1.3549,-1.3883,-1.4307,-1.4728,-1.523,-1.5632,-1.6313,-1.6708,-1.6229,-1.6459,-1.6845,-1.1706,-1.1706,-1.1818,-1.1892,0.0,-1.2114,-1.2187,-1.2268,-1.1892,-1.1706,-1.1706,-1.1706,-1.1706,-1.1706,-1.1589,-1.1484,-1.1409,-1.1298,-1.1186,-1.1111,-1.1111,-1.0999,-1.0775,-1.0775,-1.07,-1.0513,-1.0513,-1.0513,-1.0513,-1.0513,-1.0513,-1.0513,-1.0513,-1.0513,-1.0519,-1.0866,-1.0904,-1.0663,-1.1037,-1.1298,-1.1409,-1.1663,-1.1929,-1.215,-1.2526,0.0,0.0,0.0,0.0,0.0,0.0,0.0,0.0,-1.5221,0.0,-1.5505,-1.563,-1.5736,-1.5736,-1.5709,-1.5603,-1.5505,-1.5034,-1.4577,-1.4116,-1.371,-1.3492,-1.3499,-1.3309,-1.3193,-1.3193,-1.3193,-1.32,-1.3193,-1.32,-1.3236,-1.3302,-1.3339,-1.339,-1.3459,-1.3536,-1.3567,-1.3522,-1.3561,-1.3596,-1.3596,-1.3673,-1.377,-1.3774,-1.3229,-1.2781,-1.2833,-1.2721,-1.2588,-1.2512,-1.2545,-1.2641,-1.2798,-1.2818,-1.2889,-1.3094,-1.3316,-1.361,-1.3987,-1.4346,-1.4787,-1.5326,-1.5787,-1.6204,-1.6647,-1.7232,-1.7589,-1.7331,-1.7441,-1.7677,-1.1892,-1.1935,-1.2077,-1.2231,-1.2415,-1.2592,-1.2753,-1.2856,-1.2194,0.0,0.0,-1.1898,-1.1892,-1.1929,-1.1898,-1.1855,-1.1855,-1.1781,-1.1744,-1.1737,-1.1706,-1.1521,-1.1223,-1.1223,-1.1037,-1.07,-1.07,-1.07,-1.0706,-1.07,-1.07,-1.0738,-1.0738,-1.0761,-1.0895,-1.1516,-1.177,-1.1608,-1.1746,-1.1972,-1.2153,-1.2346,-1.257,-1.2838,-1.316,-1.3462,-1.3726,-1.3856,-1.4145,-1.4577,-1.4756,-1.49,-1.5114,-1.562,-1.5911,-1.5911,-1.6132,-1.6307,-1.6307,-1.6211,-1.6035,-1.5832,-1.5185,-1.4713,-1.4425,-1.408,-1.3863,-1.3863,-1.371,-1.3601,-1.3601,-1.3593,-1.3601,-1.3637,-1.3674,-1.3746,-1.3964,-1.4,-1.4101,-1.431,-1.4482,-1.4605,-1.4645,-1.4744,-1.4856,-1.4875,-1.4898,-1.4955,-1.504,-1.4399,-1.3807,-1.3727,-1.3763,-1.3723,-1.3652,-1.3672,-1.375,-1.3852,-1.3746,-1.3683,-1.3848,-1.4129,-1.4444,-1.4829,-1.5306,-1.5829,-1.6389,-1.6844,-1.733,-1.7573,-1.8068,-1.8506,-1.8506,-1.8529,-1.8529,-1.2746,-1.2753,-1.2746,-1.279,-1.282,-1.2856,-1.2893,-1.29,-1.279,-1.2709,-1.2753,-1.2746,-1.2753,-1.2709,-1.2562,-1.2459,-1.2452,-1.2114,-1.1966,-1.1966,-1.1781,-1.1669,-1.1595,-1.1632,-1.1595,-1.1521,-1.1521,-1.1515,-1.1521,-1.1521,-1.1521,-1.1521,-1.1515,-1.1752,-1.2202,-1.2687,-1.3083,-1.3496,-1.2838,-1.2562,-1.2779,-1.2975,-1.3262,-1.3691,-1.382,-1.4134,-1.4686,-1.459,-1.4748,-1.5328,-1.5549,-1.5718,-1.5921,-1.6105,-1.6237,-1.6237,-1.6272,-1.6307,-1.6307,-1.6272,-1.614,-1.5841,-1.5699,-1.53,-1.4461,-1.4209,-1.4057,-1.4065,-1.4065,-1.4021,-1.4021,-1.4029,-1.4137,-1.4245,-1.4289,-1.4425,-1.4697,-1.4732,-1.4883,-1.524,-1.5319,-1.5426,-1.5559,-1.5736,-1.585,-1.5877,-1.5903,-1.6105,-1.614,-1.5694,-1.5141,-1.4882,-1.4934,-1.4866,-1.4696,-1.4698,-1.4824,-1.4977,-1.4921,-1.4921,-1.513,-1.5364,-1.5603,-1.5851,-1.6255,-1.6738,-1.7223,-1.7513,-1.8026,-1.8464,-1.8934,-1.9208,-1.933,-1.9407,-1.9308,-1.3127,-1.3229,-1.3448,-1.355,-1.355,-1.3731,-1.3804,-1.3804,-1.3731,-1.3411,-1.2936,-1.29,-1.29,-1.29,-1.2783,-1.279,-1.2746,-1.2562,-1.2489,-1.2489,-1.2372,-1.2298,-1.2187,-1.2194,-1.2114,-1.204,-1.2003,-1.2003,-1.204,-1.204,-1.2009,-1.2053,-1.2197,-1.2454,-1.2829,-1.3457,-1.3936,-1.4268,-1.3756,-1.3627,-1.392,-1.4045,-1.4279,-1.4715,-1.4835,-1.511,-1.5535,-1.5517,-1.5671,-1.5908,-1.6052,-1.6137,-1.6351,-1.6517,-1.6656,-1.6795,-1.6899,-1.6943,-1.6943,-1.6864,-1.6726,-1.6586,-1.6246,-1.5894,-1.5461,-1.4955,-1.4705,-1.4705,-1.4705,-1.4705,-1.4705,-1.4705,-1.4784,-1.4963,-1.4999,-1.5169,-1.548,-1.5559,-1.5657,-1.5903,-1.6053,-1.6123,-1.6219,-1.6412,-1.6525,-1.656,-1.6673,-1.6846,-1.7019,-1.6881,-1.6514,-1.6146,-1.611,-1.6151,-1.6046,-1.6005,-1.6061,-1.6197,-1.6128,-1.5985,-1.5969,-1.6095,-1.6436,-1.6819,-1.7184,-1.7799,-1.8524,-1.8874,-1.912,-1.9379,-1.9715,-1.9911,-2.0053,-2.0183,-2.0096,-1.3689,-1.3783,-1.4093,-1.4201,-1.4238,-1.4497,-1.4605,-1.4605,-1.4461,-1.4029,-1.3331,-1.3229,-1.3149,-1.3193,-1.3222,-1.3222,-1.3222,-1.3222,-1.3222,-1.3222,-1.3149,-1.3039,-1.2893,-1.282,-1.2709,-1.2599,-1.2562,-1.2556,-1.2562,-1.2562,-1.2597,-1.2722,-1.3117,-1.3418,-1.368,-1.4352,-1.4922,-1.5175,-1.5033,-1.4986,-1.5097,-1.5097,-1.5333,-1.5826,-1.591,-1.6148,-1.6511,-1.6602,-1.6643,-1.6785,-1.6795,-1.6864,-1.7033,-1.7143,-1.7246,-1.7366,-1.7483,-1.7495,-1.7461,-1.7358,-1.7245,-1.7201,-1.6795,-1.6482,-1.6386,-1.5912,-1.5524,-1.5382,-1.5382,-1.5374,-1.5417,-1.5444,-1.5524,-1.5736,-1.5744,-1.5921,-1.6272,-1.6377,-1.6473,-1.6594,-1.6811,-1.6925,-1.6959,-1.7132,-1.7339,-1.7442,-1.7545,-1.7681,-1.7784,-1.792,-1.7808,-1.7535,-1.7279,-1.7182,-1.7364,-1.7235,-1.7244,-1.7414,-1.7323,-1.7156,-1.7021,-1.7104,-1.7368,-1.7905,-1.8311,-1.8881,-1.9792,-2.0085,-2.0139,-2.0237,-2.0431,-2.0592,-2.0645,-2.0912,-2.0924,-1.4817,-1.4521,-1.4593,-1.4569,-1.4613,-1.4649,-1.4649,-1.4633,-1.4605,-1.4533,-1.4425,-1.4129,-1.3985,-1.4021,-1.4137,-1.4209,-1.4209,-1.4201,-1.4165,-1.4129,-1.3833,-1.3724,-1.3659,-1.3492,-1.3419,-1.3397,-1.3411,-1.344,-1.347,-1.3448,-1.3572,-1.3916,-1.4545,-1.5008,-1.5384,-1.5809,-1.6365,-1.7131,-1.7106,-1.6732,-1.6037,-1.5988,-1.6357,-1.7212,-1.6962,-1.7142,-1.7842,-1.7614,-1.7756,-1.8258,-1.8249,-1.8331,-1.8458,-1.8182,-1.7984,-1.7991,-1.7704,-1.7495,-1.7505,-1.7495,-1.7426,-1.7201,-1.721,-1.7038,-1.6899,-1.6795,-1.6447,-1.5982,-1.5947,-1.6017,-1.6026,-1.6114,-1.628,-1.6464,-1.6499,-1.6647,-1.7028,-1.721,-1.7339,-1.7535,-1.775,-1.7862,-1.7862,-1.808,-1.8442,-1.8731,-1.8764,-1.8821,-1.8865,-1.8898,-1.8988,-1.8877,-1.8452,-1.8008,-1.7988,-1.809,-1.8275,-1.8532,-1.8534,-1.849,-1.8606,-1.8803,-1.9161,-1.9042,-1.9634,-2.009,-2.0352,-2.0571,-2.0839,-2.0924,-2.1083,-2.1221,-2.1325,-2.1608,-2.1639,-1.5951,-1.5996,-1.6153,-1.6164,-1.6158,-1.6168,-1.6048,-1.5771,-1.5559,-1.5488,-1.5453,-1.5204,-1.4848,-1.4382,-1.4461,-1.4497,-1.4533,-1.4489,-1.4497,-1.4489,-1.4346,-1.4274,-1.4297,-1.4446,-1.4502,-1.4525,-1.4748,-1.4916,-1.502,-1.5133,-1.5294,-1.5445,-1.5933,-1.6228,-1.6404,-1.6949,-1.7428,-1.7772,-1.8023,-1.8103,-1.7942,-1.7465,-1.7505,-1.8055,-1.8028,-1.8228,-1.8731,-1.8695,-1.8735,-1.8967,-1.8986,-1.9059,-1.9204,-1.9075,-1.8896,-1.8758,-1.8311,-1.8076,-1.811,-1.811,-1.8076,-1.7974,-1.7886,-1.7794,-1.7725,-1.7632,-1.7417,-1.7132,-1.6795,-1.6621,-1.6751,-1.6811,-1.695,-1.7192,-1.7226,-1.7423,-1.7901,-1.8012,-1.8148,-1.8452,-1.8596,-1.864,-1.8674,-1.8821,-1.9144,-1.9462,-1.9572,-1.9627,-1.9693,-1.9682,-1.977,-1.9868,-1.9606,-1.9353,-1.9175,-1.9175,-1.9396,-1.9617,-1.9684,-1.9736,-1.9651,-1.9772,-1.9873,-2.0051,-2.0483,-2.0914,-2.1247,-2.1463,-2.1675,-2.1788,-2.2037,-2.2254,-2.2384,-2.2506,-2.2537,-1.7139,-1.7316,-1.7475,-1.7538,-1.7461,-1.7515,-1.7351,-1.7008,-1.6652,-1.6466,-1.6457,-1.6246,-1.5806,-1.5275,-1.5098,-1.4999,-1.5026,-1.5098,-1.5226,-1.5336,-1.5353,-1.5411,-1.5518,-1.5667,-1.5778,-1.5811,-1.6002,-1.6209,-1.6378,-1.6669,-1.6788,-1.6838,-1.7245,-1.7471,-1.7528,-1.8125,-1.8479,-1.8567,-1.8926,-1.9292,-1.9499,-1.9024,-1.8825,-1.9094,-1.9094,-1.9292,-1.9726,-1.9766,-1.9751,-1.9841,-1.9812,-1.9876,-2.0038,-1.9936,-1.9689,-1.9309,-1.9014,-1.8805,-1.866,-1.8684,-1.8684,-1.864,-1.8573,-1.8506,-1.8506,-1.8438,-1.8371,-1.8337,-1.792,-1.7681,-1.7476,-1.7579,-1.775,-1.7978,-1.8046,-1.8283,-1.8667,-1.8777,-1.8921,-1.9274,-1.932,-1.9396,-1.9462,-1.9594,-1.9813,-2.0129,-2.0226,-2.0291,-2.0377,-2.0399,-2.0495,-2.072,-2.0752,-2.0528,-2.0215,-2.0118,-2.0313,-2.0592,-2.0675,-2.0678,-2.056,-2.0742,-2.0861,-2.1235,-2.1336,-2.1517,-2.198,-2.2285,-2.2531,-2.2744,-2.2957,-2.3155,-2.316,-2.3305,-2.3395,-1.842,-1.8183,-1.8184,-1.8239,-1.8193,-1.823,-1.8175,-1.8119,-1.7669,-1.7468,-1.7422,-1.7075,-1.6848,-1.678,-1.6351,-1.6044,-1.607,-1.6325,-1.6661,-1.7045,-1.7108,-1.7333,-1.7721,-1.7413,-1.7197,-1.7159,-1.7104,-1.7092,-1.7092,-1.7531,-1.7735,-1.78,-1.8553,-1.8917,-1.8939,-1.9344,-1.9608,-1.9814,-2.005,-2.0284,-2.0518,-2.0479,-2.0362,-2.0235,-2.0118,-2.0313,-2.0741,-2.0828,-2.0895,-2.1098,-2.1068,-2.1096,-2.1123,-2.076,-2.0265,-1.9669,-1.9679,-1.9554,-1.9181,-1.9108,-1.9098,-1.9108,-1.9098,-1.9075,-1.9098,-1.9154,-1.921,-1.9233,-1.9253,-1.9031,-1.8472,-1.8529,-1.8697,-1.8764,-1.8931,-1.9098,-1.9243,-1.9452,-1.9638,-1.9835,-1.9987,-2.015,-2.0302,-2.0453,-2.0635,-2.0839,-2.1031,-2.1126,-2.1146,-2.1158,-2.1273,-2.1526,-2.1588,-2.1388,-2.0784,-2.0828,-2.1051,-2.1325,-2.1608,-2.1753,-2.2087,-2.231,-2.2354,-2.2439,-2.2511,-2.2657,-2.2859,-2.3047,-2.3305,-2.3471,-2.3636,-2.3783,-2.3842,-2.3972,-2.4044,-1.9552,-1.9755,-1.9869,-1.9743,-1.9492,-1.9678,-1.9568,-1.9294,-1.9147,-1.9089,-1.9069,-1.8815,-1.8686,-1.8686,-1.8354,-1.7764,-1.7045,-1.7133,-1.7414,-1.7853,-1.7889,-1.7963,-1.81,-1.8319,-1.8447,-1.8484,-1.8733,-1.8929,-1.9064,-1.9445,-1.9588,-1.9637,-1.9993,-2.0196,-2.0284,-2.0644,-2.0876,-2.0954,-2.1252,-2.152,-2.1711,-2.1863,-2.1977,-2.1928,-2.1252,-2.0964,-2.1272,-2.1415,-2.1645,-2.1959,-2.1959,-2.2101,-2.2285,-2.1919,-2.1434,-2.0898,-2.0614,-2.0273,-1.9834,-1.9748,-1.9748,-1.9748,-1.9748,-1.9715,-1.9737,-1.9802,-1.9835,-1.9835,-1.9879,-1.9715,-1.9584,-1.9495,-1.9539,-1.9627,-1.9682,-1.9824,-1.9998,-2.0161,-2.0313,-2.0506,-2.07,-2.0892,-2.1158,-2.1273,-2.1411,-2.1663,-2.18,-2.1862,-2.1956,-2.1944,-2.2068,-2.2365,-2.2469,-2.2396,-2.2292,-2.1963,-2.1975,-2.2223,-2.2469,-2.2653,-2.2909,-2.2987,-2.3027,-2.3152,-2.3382,-2.3501,-2.356,-2.3738,-2.4002,-2.4089,-2.425,-2.4379,-2.4436,-2.4536,-2.4622,-2.0683,-2.0992,-2.1146,-2.1014,-2.0742,-2.092,-2.0822,-2.049,-2.0441,-2.0379,-2.0333,-2.0092,-1.9949,-1.9949,-1.9795,-1.9436,-1.8672,-1.8377,-1.8411,-1.8872,-1.8937,-1.905,-1.9212,-1.9507,-1.9678,-1.9707,-2.0052,-2.0304,-2.043,-2.0712,-2.0886,-2.0876,-2.1108,-2.1213,-2.1328,-2.1645,-2.1807,-2.1921,-2.2214,-2.244,-2.258,-2.2777,-2.2964,-2.3001,-2.2402,-2.2025,-2.1997,-2.2101,-2.2289,-2.2542,-2.259,-2.2703,-2.292,-2.2769,-2.2333,-2.1741,-2.1447,-2.0996,-2.0423,-2.0269,-2.0313,-2.028,-2.0345,-2.0366,-2.0377,-2.0463,-2.0516,-2.0516,-2.0656,-2.0688,-2.0688,-2.0667,-2.0539,-2.0366,-2.0366,-2.0539,-2.0775,-2.0892,-2.1051,-2.1285,-2.1454,-2.1632,-2.1851,-2.1975,-2.213,-2.2402,-2.2451,-2.2555,-2.2604,-2.2622,-2.2757,-2.306,-2.309,-2.3228,-2.3263,-2.3143,-2.2854,-2.3035,-2.3125,-2.3348,-2.3569,-2.3658,-2.3776,-2.3897,-2.4031,-2.4134,-2.4279,-2.4436,-2.4551,-2.465,-2.4806,-2.4962,-2.5018,-2.5075,-2.5118,-2.1797,-2.1797,-2.1807,-2.1825,-2.1773,-2.1811,-2.1814,-2.1707,-2.1412,-2.1366,-2.1314,-2.0829,-2.075,-2.0642,-2.0679,-2.0767,-2.0849,-2.0125,-1.9919,-2.025,-2.0439,-2.0677,-2.1008,-2.0893,-2.0874,-2.0884,-2.0924,-2.0944,-2.0972,-2.1339,-2.155,-2.1578,-2.1769,-2.1949,-2.2111,-2.2365,-2.2515,-2.274,-2.2916,-2.3038,-2.3038,-2.3261,-2.3372,-2.3457,-2.3641,-2.3519,-2.3038,-2.3038,-2.3027,-2.3075,-2.3075,-2.3038,-2.315,-2.3279,-2.2928,-2.2164,-2.2045,-2.1655,-2.0913,-2.0777,-2.0786,-2.0818,-2.0871,-2.0967,-2.1019,-2.1198,-2.1356,-2.14,-2.16,-2.18,-2.1831,-2.1925,-2.1675,-2.086,-2.0999,-2.1316,-2.1569,-2.1683,-2.1819,-2.2092,-2.2185,-2.2247,-2.2389,-2.25,-2.2684,-2.2878,-2.3,-2.312,-2.3138,-2.3155,-2.3288,-2.3539,-2.3688,-2.3852,-2.4073,-2.4263,-2.3985,-2.378,-2.3796,-2.3884,-2.4131,-2.4247,-2.4376,-2.4507,-2.4679,-2.478,-2.4936,-2.509,-2.516,-2.5258,-2.5425,-2.5508,-2.555,-2.5591,-2.5605,-2.2515,-2.2628,-2.2617,-2.2628,-2.2665,-2.2777,-2.2815,-2.2841,-2.2826,-2.2856,-2.2787,-2.2557,-2.2455,-2.2407,-2.2308,-2.2299,-2.2428,-2.2067,-2.1744,-2.1419,-2.1401,-2.1501,-2.1624,-2.1683,-2.1787,-2.1901,-2.1949,-2.1939,-2.1977,-2.2203,-2.2327,-2.2365,-2.2665,-2.2841,-2.2927,-2.3272,-2.3494,-2.3556,-2.3861,-2.4043,-2.4043,-2.4236,-2.4345,-2.4357,-2.4465,-2.4442,-2.4371,-2.402,-2.3897,-2.4007,-2.4043,-2.408,-2.4189,-2.4298,-2.4022,-2.3387,-2.3017,-2.2678,-2.2136,-2.1716,-2.1561,-2.1686,-2.1749,-2.1812,-2.18,-2.1862,-2.1956,-2.1956,-2.2061,-2.2123,-2.2266,-2.2377,-2.2235,-2.1781,-2.18,-2.1956,-2.2173,-2.2377,-2.2592,-2.2744,-2.2818,-2.2909,-2.303,-2.315,-2.3198,-2.3378,-2.3569,-2.37,-2.3776,-2.3839,-2.4015,-2.4232,-2.4347,-2.4434,-2.465,-2.4808,-2.4723,-2.4523,-2.4494,-2.4452,-2.4666,-2.485,-2.4977,-2.509,-2.5258,-2.5425,-2.5578,-2.5688,-2.5729,-2.5757,-2.5825,-2.5921,-2.6015,-2.6069,-2.6056,-2.3113,-2.3224,-2.3224,-2.3235,-2.3224,-2.3372,-2.342,-2.342,-2.3519,-2.3593,-2.3556,-2.3482,-2.3409,-2.3372,-2.3261,-2.3224,-2.3235,-2.3224,-2.2964,-2.2478,-2.2289,-2.2252,-2.2252,-2.2365,-2.2478,-2.2628,-2.2777,-2.2852,-2.2852,-2.3113,-2.3261,-2.3298,-2.353,-2.3677,-2.3751,-2.4032,-2.4238,-2.4347,-2.4611,-2.4802,-2.4838,-2.4981,-2.5147,-2.5218,-2.5277,-2.5407,-2.5499,-2.5158,-2.4933,-2.4838,-2.4802,-2.4873,-2.4981,-2.4945,-2.4743,-2.4256,-2.3688,-2.32,-2.2818,-2.2273,-2.2061,-2.2185,-2.2309,-2.2328,-2.2359,-2.242,-2.2512,-2.2543,-2.2647,-2.2678,-2.2787,-2.2909,-2.2866,-2.2744,-2.2604,-2.2604,-2.2757,-2.3,-2.321,-2.333,-2.339,-2.3509,-2.3658,-2.3734,-2.3822,-2.3998,-2.4157,-2.4287,-2.4376,-2.4478,-2.465,-2.4821,-2.4921,-2.5034,-2.5202,-2.5328,-2.5439,-2.53,-2.5188,-2.516,-2.5216,-2.5328,-2.5453,-2.5591,-2.5729,-2.5811,-2.5934,-2.6069,-2.6123,-2.6177,-2.6204,-2.6312,-2.6418,-2.6445,-2.6445,-2.3677,-2.3666,-2.3677,-2.3714,-2.3714,-2.3703,-2.374,-2.3714,-2.3703,-2.374,-2.3751,-2.3776,-2.3714,-2.3703,-2.3751,-2.3703,-2.3677,-2.3714,-2.3714,-2.3519,-2.3298,-2.315,-2.3038,-2.3075,-2.3113,-2.315,-2.3457,-2.3593,-2.3604,-2.3922,-2.4225,-2.4152,-2.4225,-2.4334,-2.4514,-2.4707,-2.4874,-2.5052,-2.5264,-2.5382,-2.5382,-2.5558,-2.5723,-2.5898,-2.6025,-2.6186,-2.6242,-2.6255,-2.6013,-2.5476,-2.5382,-2.5382,-2.537,-2.5382,-2.5188,-2.4788,-2.4165,-2.3691,-2.318,-2.2814,-2.2474,-2.2432,-2.2592,-2.2641,-2.2732,-2.2927,-2.3078,-2.3138,-2.3271,-2.3403,-2.342,-2.3539,-2.3616,-2.3616,-2.3348,-2.3271,-2.342,-2.3569,-2.376,-2.3907,-2.3949,-2.4054,-2.4276,-2.4334,-2.4478,-2.4664,-2.4778,-2.4863,-2.4977,-2.5048,-2.5188,-2.5286,-2.5384,-2.5508,-2.5619,-2.5729,-2.5811,-2.5811,-2.5729,-2.5715,-2.5702,-2.5784,-2.5921,-2.6056,-2.6138,-2.6218,-2.6312,-2.6472,-2.6551,-2.6578,-2.663,-2.6709,-2.6762,-2.6814,-2.6867,-2.449,-2.449,-2.449,-2.4502,-2.4502,-2.449,-2.449,-2.449,-2.4465,-2.4429,-2.4465,-2.4502,-2.4465,-2.4454,-2.4465,-2.4502,-2.4465,-2.4465,-2.449,-2.4465,-2.4381,-2.4043,-2.3787,-2.3824,-2.3861,-2.3897,-2.4007,-2.4043,-2.408,-2.4455,-2.4587,-2.4576,-2.4886,-2.504,-2.5135,-2.543,-2.5571,-2.5711,-2.5965,-2.6104,-2.6104,-2.6151,-2.622,-2.6255,-2.6346,-2.6461,-2.6611,-2.676,-2.6611,-2.6173,-2.6117,-2.6104,-2.607,-2.6104,-2.5995,-2.5831,-2.536,-2.4892,-2.4429,-2.391,-2.3547,-2.3248,-2.3258,-2.3348,-2.3348,-2.342,-2.3539,-2.3641,-2.373,-2.3835,-2.4015,-2.4102,-2.4218,-2.4376,-2.4086,-2.3881,-2.4044,-2.4218,-2.439,-2.4534,-2.4563,-2.4635,-2.4778,-2.4821,-2.4907,-2.509,-2.5216,-2.5314,-2.5439,-2.5564,-2.5674,-2.5715,-2.5825,-2.5921,-2.6002,-2.6125,-2.6179,-2.6206,-2.6192,-2.6204,-2.6123,-2.6111,-2.634,-2.6541,-2.6553,-2.6592,-2.6803,-2.6985,-2.7011,-2.6933,-2.7011,-2.7063,-2.7167,-2.7233,-2.7269,-2.4801,-2.4801,-2.4801,-2.4801,-2.4801,-2.4801,-2.4801,-2.4801,-2.4801,-2.4801,-2.4801,-2.4801,-2.4801,-2.4801,-2.4801,-2.4801,-2.4801,-2.4801,-2.4801,-2.4825,-2.4909,-2.4694,-2.4418,-2.4418,-2.449,-2.4539,-2.4611,-2.4718,-2.4838,-2.5064,-2.5194,-2.5264,-2.5511,-2.5664,-2.5699,-2.6025,-2.6258,-2.628,-2.6508,-2.6633,-2.6645,-2.6645,-2.6735,-2.6803,-2.6871,-2.6973,-2.7268,-2.7416,-2.7201,-2.6782,-2.6645,-2.6645,-2.6645,-2.6645,-2.6645,-2.662,-2.616,-2.5635,-2.516,-2.4694,-2.4205,-2.3846,-2.3793,-2.3868,-2.3897,-2.3969,-2.4099,-2.4171,-2.42,-2.4303,-2.4478,-2.4565,-2.4708,-2.485,-2.4778,-2.4622,-2.4622,-2.4692,-2.4863,-2.5005,-2.5076,-2.5132,-2.5342,-2.5356,-2.5439,-2.5564,-2.566,-2.577,-2.5921,-2.6002,-2.6111,-2.6177,-2.6231,-2.6326,-2.6447,-2.6553,-2.6606,-2.6606,-2.6618,-2.663,-2.6566,-2.6513,-2.6686,-2.6884,-2.6922,-2.7,-2.7155,-2.7258,-2.7258,-2.7233,-2.731,-2.7386,-2.7463,-2.7488,-2.7524,-2.4909,-2.4945,-2.4945,-2.4897,-2.4933,-2.4945,-2.5004,-2.4945,-2.5004,-2.4969,-2.4969,-2.4933,-2.504,-2.4897,-2.504,-2.4957,-2.4969,-2.504,-2.5004,-2.5064,-2.523,-2.5182,-2.4969,-2.4957,-2.5016,-2.5099,-2.5264,-2.5418,-2.5571,-2.5828,-2.5933,-2.6002,-2.6164,-2.6267,-2.6336,-2.6611,-2.676,-2.6829,-2.6998,-2.7134,-2.718,-2.718,-2.7302,-2.7456,-2.749,-2.7636,-2.7901,-2.8013,-2.7749,-2.7146,-2.7126,-2.7159,-2.7113,-2.7113,-2.7146,-2.7095,-2.6755,-2.6271,-2.5646,-2.5325,-2.4745,-2.435,-2.4347,-2.4361,-2.4361,-2.4434,-2.4563,-2.4591,-2.4649,-2.4763,-2.4907,-2.4991,-2.5174,-2.53,-2.5384,-2.5328,-2.5188,-2.5118,-2.5188,-2.5439,-2.5467,-2.566,-2.5839,-2.5948,-2.5975,-2.5988,-2.6096,-2.6218,-2.6367,-2.6474,-2.6539,-2.6563,-2.663,-2.6698,-2.6843,-2.6963,-2.7,-2.7026,-2.7052,-2.7037,-2.7,-2.6974,-2.7104,-2.7181,-2.7155,-2.7181,-2.7284,-2.7361,-2.7401,-2.7412,-2.7463,-2.7524,-2.76,-2.76,-2.765,-2.5665,-2.5665,-2.5665,-2.5665,-2.5665,-2.5665,-2.5665,-2.5642,-2.563,-2.5595,-2.5665,-2.5665,-2.563,-2.563,-2.5607,-2.5653,-2.5618,-2.563,-2.5665,-2.57,-2.5735,-2.5758,-2.5665,-2.5665,-2.5688,-2.5711,-2.5711,-2.5886,-2.606,-2.622,-2.6358,-2.6521,-2.6671,-2.6841,-2.6875,-2.7032,-2.7235,-2.7335,-2.7523,-2.7669,-2.7782,-2.7782,-2.7848,-2.7934,-2.798,-2.8013,-2.8079,-2.8112,-2.8013,-2.7881,-2.7862,-2.7815,-2.7782,-2.7782,-2.7782,-2.7756,-2.771,-2.7373,-2.6876,-2.6532,-2.6184,-2.524,-2.5156,-2.4983,-2.4576,-2.4733,-2.4833,-2.4892,-2.5005,-2.5202,-2.5411,-2.5536,-2.5647,-2.5811,-2.5907,-2.5961,-2.5961,-2.5811,-2.577,-2.5879,-2.5934,-2.6029,-2.6192,-2.6245,-2.6299,-2.6418,-2.6539,-2.6674,-2.6779,-2.6884,-2.6881,-2.6893,-2.6919,-2.6959,-2.7052,-2.7196,-2.7233,-2.7284,-2.7335,-2.7386,-2.735,-2.7299,-2.7335,-2.7335,-2.7335,-2.7386,-2.7437,-2.7499,-2.7564,-2.7575,-2.7575,-2.765,-2.7725,-2.7725,-2.7765,-2.5923,-2.5923,-2.5923,-2.5923,-2.5923,-2.5923,-2.5923,-2.5923,-2.5923,-2.5923,-2.5923,-2.5923,-2.5923,-2.5923,-2.6015,-2.6037,-2.6072,-2.6141,-2.6198,-2.6245,-2.628,-2.6361,-2.643,-2.6396,-2.6349,-2.6198,-2.6129,-2.6267,-2.6508,-2.6645,-2.6714,-2.6829,-2.7058,-2.718,-2.7248,-2.7436,-2.759,-2.7769,-2.7855,-2.8,-2.8079,-2.8112,-2.8145,-2.8216,-2.8295,-2.8341,-2.8341,-2.8341,-2.8341,-2.8341,-2.8341,-2.8276,-2.8112,-2.8112,-2.8112,-2.8112,-2.8112,-2.7864,-2.7488,-2.7355,-2.7054,-2.628,-2.6232,-2.5952,-2.5615,-2.5497,-2.539,-2.5326,-2.5383,-2.5564,-2.5825,-2.5975,-2.6098,-2.6179,-2.634,-2.6447,-2.6447,-2.6286,-2.6138,-2.6272,-2.6353,-2.6474,-2.6553,-2.6592,-2.6698,-2.6814,-2.6855,-2.6989,-2.6974,-2.7078,-2.7104,-2.7115,-2.7141,-2.7192,-2.7258,-2.7361,-2.7412,-2.7463,-2.7473,-2.7564,-2.759,-2.7539,-2.7514,-2.7514,-2.7514,-2.7499,-2.7549,-2.7625,-2.77,-2.77,-2.774,-2.7815,-2.784,-2.7865,-2.789,-2.6084,-2.6084,-2.6084,-2.6084,-2.6084,-2.6084,-2.6119,-2.6084,-2.6072,-2.6154,-2.6084,-2.6072,-2.6188,-2.6141,-2.628,-2.6336,-2.6371,-2.6427,-2.6577,-2.6692,-2.6692,-2.6773,-2.6888,-2.6841,-2.6794,-2.6564,-2.6543,-2.6714,-2.693,-2.7079,-2.71,-2.7134,-2.7348,-2.7516,-2.7636,-2.7769,-2.7921,-2.8052,-2.8099,-2.8164,-2.821,-2.821,-2.8262,-2.8346,-2.8476,-2.8587,-2.8587,-2.8587,-2.8619,-2.8651,-2.8683,-2.8522,-2.8341,-2.821,-2.8243,-2.8276,-2.8341,-2.8223,-2.8008,-2.7899,-2.7748,-2.733,-2.7354,-2.714,-2.6725,-2.6518,-2.6326,-2.5994,-2.5869,-2.5893,-2.6123,-2.6272,-2.6367,-2.6474,-2.67,-2.6832,-2.6806,-2.6592,-2.6566,-2.6604,-2.6724,-2.6858,-2.6922,-2.7,-2.7115,-2.7192,-2.7233,-2.7233,-2.7233,-2.7269,-2.7295,-2.7321,-2.7346,-2.7423,-2.7488,-2.759,-2.764,-2.764,-2.7665,-2.7715,-2.779,-2.7765,-2.7715,-2.769,-2.7675,-2.7675,-2.77,-2.779,-2.7831,-2.784,-2.7865,-2.793,-2.798,-2.8014,-2.8054,-2.6807,-2.6807,-2.682,-2.6807,-2.6807,-2.682,-2.6773,-2.6807,-2.6773,-2.6807,-2.6773,-2.6807,-2.6786,-2.6807,-2.6841,-2.6875,-2.6897,-2.6964,-2.6964,-2.7011,-2.7024,-2.7092,-2.7126,-2.7159,-2.7134,-2.7188,-2.71,-2.7066,-2.7268,-2.7369,-2.7503,-2.7656,-2.7835,-2.7947,-2.7947,-2.8046,-2.8118,-2.8249,-2.8281,-2.8346,-2.8457,-2.8522,-2.8522,-2.8573,-2.8638,-2.8683,-2.8761,-2.878,-2.8844,-2.9004,-2.9035,-2.8972,-2.8876,-2.8748,-2.8748,-2.8812,-2.8844,-2.8734,-2.872,-2.8797,-2.8553,-2.8198,-2.8097,-2.7897,-2.7569,-2.7506,-2.7312,-2.6905,-2.6492,-2.6315,-2.6445,-2.6621,-2.6753,-2.6858,-2.6974,-2.7104,-2.7104,-2.7078,-2.7026,-2.7037,-2.7104,-2.7144,-2.7207,-2.7284,-2.7361,-2.7412,-2.7437,-2.7437,-2.7437,-2.7473,-2.7549,-2.7549,-2.7534,-2.7625,-2.774,-2.7815,-2.788,-2.7855,-2.7865,-2.7865,-2.7955,-2.7955,-2.793,-2.7965,-2.7915,-2.7865,-2.7905,-2.793,-2.7955,-2.798,-2.8005,-2.8069,-2.8152,-2.8235,-2.8275,-2.7024,-2.7024,-2.7024,-2.7024,-2.7024,-2.7024,-2.7024,-2.7024,-2.7024,-2.7024,-2.7024,-2.7024,-2.7079,-2.7146,-2.7248,-2.7348,-2.7516,-2.7583,-2.7583,-2.7583,-2.7549,-2.7562,-2.7549,-2.7549,-2.7649,-2.7749,-2.7649,-2.7583,-2.7703,-2.7769,-2.7868,-2.7934,-2.8079,-2.8145,-2.8197,-2.8183,-2.8314,-2.843,-2.8541,-2.8573,-2.8716,-2.878,-2.8844,-2.8844,-2.8844,-2.8908,-2.894,-2.8972,-2.9004,-2.9067,-2.9113,-2.9162,-2.9226,-2.9257,-2.9162,-2.9145,-2.9131,-2.9226,-2.932,-2.9383,-2.9278,-2.9237,-2.9153,-2.8933,-2.86,-2.8463,-2.831,-2.7924,-2.739,-2.7136,-2.7392,-2.7153,-2.7055,-2.7119,-2.7207,-2.7284,-2.731,-2.7361,-2.7386,-2.7372,-2.7335,-2.7335,-2.7423,-2.7514,-2.7564,-2.7604,-2.7655,-2.7655,-2.7655,-2.769,-2.7725,-2.775,-2.775,-2.784,-2.7915,-2.8005,-2.8103,-2.8103,-2.8103,-2.8103,-2.8113,-2.8177,-2.825,-2.8323,-2.825,-2.8103,-2.8029,-2.8054,-2.8079,-2.8128,-2.825,-2.8348,-2.842,-2.8453,-2.8493,-2.718,-2.7214,-2.7214,-2.7227,-2.7214,-2.7214,-2.7261,-2.7227,-2.7248,-2.7281,-2.7227,-2.7248,-2.7335,-2.7469,-2.7603,-2.7769,-2.8112,-2.8079,-2.8046,-2.8013,-2.8013,-2.8079,-2.8079,-2.8112,-2.8079,-2.8066,-2.8177,-2.8177,-2.8046,-2.8066,-2.8131,-2.8164,-2.8197,-2.8295,-2.8398,-2.8509,-2.856,-2.867,-2.8812,-2.8844,-2.8908,-2.9004,-2.9113,-2.9113,-2.9113,-2.9099,-2.9162,-2.9162,-2.9212,-2.9243,-2.9275,-2.9338,-2.9509,-2.9634,-2.9571,-2.9352,-2.9289,-2.9446,-2.9617,-2.971,-2.9775,-2.9844,-3.0038,-2.9841,-2.9632,-2.9375,-2.9218,-2.8926,-2.84,-2.7956,-2.7968,-2.7735,-2.7425,-2.7258,-2.7335,-2.7437,-2.7448,-2.7499,-2.7575,-2.7549,-2.7499,-2.7539,-2.76,-2.7715,-2.7781,-2.7781,-2.7831,-2.7831,-2.7831,-2.788,-2.7905,-2.7955,-2.798,-2.8029,-2.8103,-2.8177,-2.829,-2.8363,-2.8363,-2.8372,-2.8396,-2.8405,-2.8517,-2.858,-2.8468,-2.8323,-2.8226,-2.821,-2.8348,-2.8444,-2.8565,-2.8612,-2.8612,-2.8636,-2.8676,-2.7802,-2.7994,-2.7947,-2.798,-2.7961,-2.7914,-2.7947,-2.7947,-2.7914,-2.7947,-2.7815,-2.7961,-2.7914,-2.798,-2.798,-2.8046,-2.8112,-2.8177,-2.821,-2.8243,-2.821,-2.821,-2.8145,-2.8112,-2.8262,-2.8392,-2.849,-2.8341,-2.8276,-2.8314,-2.83,-2.8365,-2.8587,-2.8748,-2.8702,-2.883,-2.9035,-2.9035,-2.9035,-2.9067,-2.9099,-2.9131,-2.9176,-2.9145,-2.9176,-2.9257,-2.9383,-2.9415,-2.9477,-2.9682,-2.9699,-2.9806,-2.9974,-3.005,-3.0019,-2.9988,-2.9988,-2.9988,-3.0064,-3.005,-3.008,-3.0233,-3.028,-3.0328,-3.0277,-3.0163,-3.0015,-2.994,-2.9335,-2.8801,-2.8509,-2.8281,-2.7951,-2.7646,-2.7539,-2.759,-2.76,-2.765,-2.77,-2.7775,-2.774,-2.774,-2.779,-2.7905,-2.798,-2.798,-2.798,-2.8005,-2.8054,-2.8128,-2.8152,-2.8217,-2.825,-2.8299,-2.8323,-2.8396,-2.846,-2.858,-2.8604,-2.8604,-2.8612,-2.8636,-2.8708,-2.8747,-2.8676,-2.866,-2.8684,-2.8708,-2.8708,-2.8708,-2.8732,-2.8771,-2.8771,-2.8834,-2.8889,-2.8085,-2.8112,-2.8112,-2.8112,-2.8112,-2.8112,-2.8112,-2.8112,-2.8112,-2.7893,-2.7706,-2.7959,-2.8131,-2.8216,-2.8295,-2.8438,-2.8503,-2.8503,-2.8554,-2.8633,-2.8665,-2.8665,-2.8683,-2.8651,-2.8716,-2.8716,-2.8844,-2.8844,-2.8716,-2.8702,-2.8734,-2.8766,-2.8862,-2.8986,-2.8972,-2.9067,-2.9113,-2.9145,-2.9194,-2.932,-2.9383,-2.9463,-2.9481,-2.9512,-2.9602,-2.9665,-2.9741,-2.9803,-2.9834,-2.9974,-2.9974,-3.0066,-3.0205,-3.031,-3.0416,-3.0506,-3.0597,-3.0552,-3.0401,-3.0462,-3.0492,-3.0627,-3.0717,-3.0777,-3.0852,-3.0837,-3.0788,-3.0889,-3.0393,-2.9806,-2.9232,-2.8907,-2.8377,-2.7996,-2.7801,-2.7765,-2.779,-2.7815,-2.7865,-2.7915,-2.7965,-2.7989,-2.8014,-2.8088,-2.8177,-2.8226,-2.8275,-2.8348,-2.8396,-2.8493,-2.8508,-2.8532,-2.8556,-2.8565,-2.8612,-2.8636,-2.8652,-2.8723,-2.8732,-2.8755,-2.8779,-2.8826,-2.8936,-2.9076,-2.9084,-2.9107,-2.9169,-2.9006,-2.885,-2.8865,-2.8912,-2.8959,-2.9006,-2.9153,-2.9222,-2.8363,-2.8126,-2.8241,-2.8276,-2.8249,-2.816,-2.8145,-2.8131,-2.7929,-2.7628,-2.7462,-2.7848,-2.8249,-2.8495,-2.8651,-2.8794,-2.8876,-2.8876,-2.8972,-2.9081,-2.9113,-2.9081,-2.9017,-2.9049,-2.9049,-2.9113,-2.9194,-2.9194,-2.9226,-2.9289,-2.9289,-2.9131,-2.9131,-2.9208,-2.9257,-2.932,-2.9352,-2.9446,-2.954,-2.9634,-2.9727,-2.9806,-2.9867,-2.9898,-2.9991,-3.008,-3.008,-3.0127,-3.0127,-3.0219,-3.0294,-3.0401,-3.0538,-3.0672,-3.0776,-3.0866,-3.0999,-3.1043,-3.0896,-3.0866,-3.0969,-3.1102,-3.1249,-3.1263,-3.1351,-3.1438,-3.1481,-3.1534,-3.1289,-3.0782,-3.0285,-2.9648,-2.9016,-2.849,-2.8106,-2.8056,-2.8005,-2.8005,-2.8014,-2.8063,-2.8137,-2.8235,-2.8259,-2.8332,-2.8396,-2.8444,-2.8517,-2.8612,-2.8684,-2.8755,-2.8747,-2.8723,-2.8723,-2.8755,-2.8787,-2.8811,-2.885,-2.8912,-2.892,-2.8967,-2.9037,-2.9107,-2.9183,-2.9314,-2.9428,-2.9405,-2.9353,-2.913,-2.8967,-2.9084,-2.9176,-2.9199,-2.9252,-2.9428,-2.9496,-2.8691,-2.8219,-2.8566,-2.868,-2.8639,-2.8336,-2.8164,-2.8047,-2.7511,-2.7316,-2.7382,-2.7858,-2.8404,-2.8894,-2.9004,-2.9035,-2.9067,-2.9099,-2.9131,-2.9162,-2.9113,-2.9194,-2.924,-2.924,-2.9208,-2.9226,-2.9415,-2.954,-2.9602,-2.9772,-2.9571,-2.9226,-2.9383,-2.9477,-2.9571,-2.9665,-2.9758,-2.9865,-2.9927,-2.9988,-3.0019,-3.008,-3.0111,-3.0097,-3.0111,-3.0111,-3.0142,-3.028,-3.0417,-3.0538,-3.0642,-3.0791,-3.094,-3.0999,-3.1102,-3.122,-3.1365,-3.1408,-3.1379,-3.1263,-3.1205,-3.1322,-3.1481,-3.1668,-3.1754,-3.1868,-3.1968,-3.1996,-3.1868,-3.1564,-3.0985,-3.0354,-2.9816,-2.9093,-2.8639,-2.8369,-2.8278,-2.8152,-2.8177,-2.821,-2.8308,-2.8444,-2.8493,-2.8541,-2.8541,-2.8604,-2.8645,-2.8716,-2.885,-2.8897,-2.8873,-2.885,-2.8826,-2.8858,-2.892,-2.8982,-2.9091,-2.9176,-2.9222,-2.9291,-2.9382,-2.9428,-2.9412,-2.9473,-2.9541,-2.9518,-2.9518,-2.9428,-2.9382,-2.9428,-2.945,-2.945,-2.9457,-2.9547,-2.9608,-2.7812,-2.7605,-2.7898,-2.7919,-2.7831,-2.7657,-2.7591,-2.755,-2.7299,-2.7467,-2.7787,-2.7759,-2.8188,-2.8878,-2.9113,-2.9162,-2.9257,-2.9383,-2.9432,-2.9557,-2.9665,-2.9696,-2.971,-2.9679,-2.9755,-2.9741,-2.9865,-2.9896,-2.9927,-3.0111,-2.9988,-2.9803,-2.982,-2.9834,-2.9958,-2.9974,-3.005,-3.0111,-3.0111,-3.0142,-3.0249,-3.0371,-3.0431,-3.0522,-3.0687,-3.0717,-3.0761,-3.0776,-3.0836,-3.0895,-3.0955,-3.1161,-3.1322,-3.1351,-3.1438,-3.1597,-3.1726,-3.1768,-3.1796,-3.1697,-3.1668,-3.1726,-3.184,-3.1925,-3.2081,-3.215,-3.2234,-3.229,-3.2401,-3.2179,-3.1628,-3.1257,-3.083,-2.9877,-2.924,-2.8922,-2.8713,-2.8633,-2.8535,-2.8669,-2.8633,-2.8676,-2.87,-2.8747,-2.8747,-2.8747,-2.8787,-2.8842,-2.8951,-2.9045,-2.9045,-2.9084,-2.9084,-2.913,-2.9167,-2.9275,-2.9366,-2.9428,-2.9473,-2.9518,-2.9586,-2.9608,-2.9592,-2.9653,-2.9675,-2.9697,-2.972,-2.9742,-2.9697,-2.9608,-2.9608,-2.9653,-2.9697,-2.9726,-2.9748,-2.7403,-2.725,-2.7365,-2.7404,-2.7339,-2.7202,-2.7177,-2.7193,-2.6998,-2.7429,-2.817,-2.7963,-2.8424,-2.9205,-2.9415,-2.9477,-2.9648,-2.971,-2.9789,-2.9882,-2.9988,-3.008,-3.008,-3.008,-3.005,-3.0172,-3.0249,-3.0249,-3.031,-3.0355,-3.0416,-3.0416,-3.0385,-3.0355,-3.0158,-3.0249,-3.031,-3.0385,-3.0416,-3.0431,-3.0582,-3.0672,-3.0762,-3.0866,-3.0984,-3.1028,-3.1058,-3.1073,-3.1161,-3.1205,-3.1292,-3.1453,-3.1567,-3.1667,-3.1768,-3.1925,-3.2025,-3.2053,-3.2066,-3.2066,-3.2066,-3.2079,-3.2163,-3.2206,-3.2305,-3.2444,-3.2554,-3.2566,-3.2746,-3.2694,-3.2143,-3.1877,-3.1524,-3.0633,-3.0192,-2.9841,-2.9546,-2.9421,-2.9244,-2.9143,-2.9028,-2.8842,-2.8881,-2.892,-2.8967,-2.8936,-2.8905,-2.8959,-2.9068,-2.916,-2.9236,-2.9298,-2.936,-2.9428,-2.9496,-2.9518,-2.9525,-2.9547,-2.963,-2.9653,-2.9697,-2.9726,-2.9748,-2.9764,-2.9808,-2.9874,-2.9896,-2.9858,-2.9786,-2.9697,-2.9742,-2.9814,-2.9874,-2.9902,-2.9973,-2.7797,-2.7339,-2.7326,-2.7457,-2.7579,-2.7187,-2.7102,-2.7228,-2.6788,-2.7201,-2.8324,-2.8766,-2.9305,-2.9875,-2.9927,-2.9927,-2.9974,-3.005,-3.0111,-3.0142,-3.0264,-3.0172,-3.0187,-3.0248,-3.0355,-3.0342,-3.0477,-3.0642,-3.0732,-3.0836,-3.0925,-3.0969,-3.0866,-3.0762,-3.0387,-3.0642,-3.0866,-3.1028,-3.0984,-3.0984,-3.1014,-3.1043,-3.1073,-3.1176,-3.1205,-3.1234,-3.1307,-3.1366,-3.1438,-3.1509,-3.1611,-3.1769,-3.1925,-3.1953,-3.1996,-3.2053,-3.215,-3.2206,-3.2191,-3.2219,-3.2302,-3.2385,-3.2468,-3.2582,-3.2761,-3.287,-3.287,-3.2827,-3.2908,-3.2951,-3.2627,-3.2331,-3.1967,-3.1513,-3.108,-3.0704,-3.0407,-3.0156,-2.9993,-2.9899,-2.9375,-2.8959,-2.9022,-2.9092,-2.9187,-2.9179,-2.9115,-2.9146,-2.931,-2.9291,-2.9366,-2.948,-2.9547,-2.9608,-2.9653,-2.9675,-2.9697,-2.9742,-2.9742,-2.9764,-2.9808,-2.9852,-2.9874,-2.9896,-2.9924,-2.9989,-2.9989,-2.9968,-2.9924,-2.988,-2.9924,-2.9995,-3.0055,-3.0076,-3.0124,-2.7868,-2.7296,-2.7296,-2.7397,-2.7455,-2.6829,-2.6828,-2.7269,-2.7511,-2.8054,-2.874,-2.9155,-2.9525,-2.9924,-3.0111,-3.0142,-3.0172,-3.0357,-3.0417,-3.0462,-3.0597,-3.0746,-3.0746,-3.0687,-3.0732,-3.0821,-3.0925,-3.0925,-3.0984,-3.1102,-3.1102,-3.1087,-3.1146,-3.1014,-3.0895,-3.0955,-3.1058,-3.1087,-3.1087,-3.1146,-3.1234,-3.1263,-3.1336,-3.1525,-3.1554,-3.1568,-3.1626,-3.1683,-3.1726,-3.1796,-3.1912,-3.1996,-3.2094,-3.2122,-3.2178,-3.2247,-3.237,-3.2539,-3.2609,-3.2664,-3.2691,-3.273,-3.2773,-3.2843,-3.2897,-3.3005,-3.3032,-3.3058,-3.3096,-3.3139,-3.305,-3.2987,-3.2673,-3.2195,-3.1763,-3.1423,-3.1139,-3.091,-3.0761,-3.0761,-3.0455,-3.0282,-3.0258,-2.9927,-2.9888,-2.969,-2.9619,-2.9753,-2.9911,-2.9605,-2.9528,-2.963,-2.9704,-2.9726,-2.9802,-2.9996,-2.9996,-2.9986,-2.9927,-2.9852,-2.9896,-2.994,-2.9968,-2.9968,-3.0017,-3.0081,-3.0103,-3.0119,-3.0119,-3.0103,-3.0124,-3.0124,-3.0162,-3.0184,-3.0227,-2.8139,-2.7807,-2.7793,-2.7821,-2.779,-2.7062,-2.7148,-2.7877,-2.8554,-2.9117,-2.9479,-2.9739,-3.0071,-3.0389,-3.0446,-3.0446,-3.0476,-3.0642,-3.0762,-3.0821,-3.0969,-3.1014,-3.1058,-3.1117,-3.1043,-3.1132,-3.1205,-3.1205,-3.1249,-3.1249,-3.1249,-3.1278,-3.1322,-3.1366,-3.1307,-3.1278,-3.1249,-3.1322,-3.1409,-3.1468,-3.1524,-3.1582,-3.1668,-3.1798,-3.187,-3.1898,-3.1983,-3.2025,-3.2025,-3.2038,-3.2094,-3.215,-3.2219,-3.2274,-3.233,-3.2453,-3.2605,-3.2757,-3.2908,-3.2951,-3.2935,-3.3016,-3.3005,-3.3005,-3.3016,-3.3123,-3.315,-3.3203,-3.3256,-3.3335,-3.3361,-3.3346,-3.3182,-3.2685,-3.2409,-3.2067,-3.1813,-3.1591,-3.1258,-3.1306,-3.129,-3.129,-3.1274,-3.1013,-3.0696,-3.0418,-3.0156,-3.0323,-3.0434,-3.0106,-2.9854,-2.999,-3.0248,-3.048,-3.0503,-3.0461,-3.0419,-3.0263,-3.0107,-2.9913,-2.9962,-2.9968,-2.9995,-3.006,-3.0103,-3.0167,-3.0248,-3.0269,-3.0269,-3.0274,-3.0316,-3.0295,-3.029,-3.0312,-3.0316,-2.8739,-2.8738,-2.8738,-2.8738,-2.8594,-2.8075,-2.8216,-2.9005,-2.9748,-3.0115,-3.0174,-3.0734,-3.0911,-3.0999,-3.1058,-3.1028,-3.0984,-3.1058,-3.1073,-3.1102,-3.1161,-3.1176,-3.1132,-3.1161,-3.1249,-3.1307,-3.1366,-3.1453,-3.1496,-3.1539,-3.1524,-3.1553,-3.167,-3.1698,-3.1655,-3.1568,-3.1524,-3.1655,-3.1727,-3.1769,-3.1826,-3.1912,-3.194,-3.1996,-3.2025,-3.2038,-3.2066,-3.2081,-3.2122,-3.2178,-3.2234,-3.2287,-3.2342,-3.2398,-3.248,-3.2633,-3.2843,-3.2935,-3.3069,-3.3096,-3.315,-3.3203,-3.315,-3.3176,-3.3229,-3.324,-3.324,-3.3309,-3.3361,-3.3424,-3.3461,-3.3503,-3.3539,-3.3214,-3.2978,-3.2691,-3.2435,-3.2116,-3.1717,-3.1573,-3.1526,-3.151,-3.1437,-3.1286,-3.1102,-3.1031,-3.0784,-3.072,-3.0792,-3.0616,-3.0446,-3.0548,-3.0872,-3.1329,-3.1246,-3.0684,-3.0457,-3.0166,-3.0042,-2.9918,-2.9968,-3.0011,-3.0038,-3.0103,-3.0167,-3.0253,-3.0354,-3.0396,-3.0401,-3.0422,-3.0422,-3.0422,-3.038,-3.0401,-3.0443,-2.9784,-2.9363,-2.9507,-2.9535,-2.9636,-2.9999,-3.0056,-2.988,-3.0483,-3.0822,-3.0807,-3.1014,-3.1146,-3.1087,-3.1087,-3.1117,-3.1146,-3.119,-3.1205,-3.1263,-3.1336,-3.1366,-3.1395,-3.1424,-3.1525,-3.1642,-3.1715,-3.1849,-3.1902,-3.1915,-3.193,-3.1868,-3.2108,-3.2091,-3.2033,-3.187,-3.1974,-3.1987,-3.2031,-3.1996,-3.2025,-3.2053,-3.2066,-3.2122,-3.2165,-3.2163,-3.2219,-3.2247,-3.2302,-3.233,-3.2358,-3.237,-3.2398,-3.2496,-3.2633,-3.2935,-3.3016,-3.3096,-3.3203,-3.3229,-3.3256,-3.3266,-3.3256,-3.3256,-3.3309,-3.3293,-3.3319,-3.3372,-3.3424,-3.3503,-3.3591,-3.3658,-3.371,-3.3576,-3.3281,-3.2944,-3.2656,-3.2303,-3.1919,-3.1718,-3.1646,-3.1646,-3.1598,-3.1414,-3.1262,-3.1366,-3.135,-3.1126,-3.1071,-3.0863,-3.0894,-3.0988,-3.0994,-3.1329,-3.0849,-3.0269,-3.0204,-3.0091,-2.9977,-2.9918,-2.9946,-2.9989,-3.006,-3.0146,-3.0253,-3.0359,-3.0443,-3.0485,-3.0464,-3.0485,-3.0468,-3.0485,-3.0485,-3.0489,-3.0489,-3.0454,-3.0119,-3.028,-3.0396,-3.0542,-3.1056,-3.0996,-3.0774,-3.1115,-3.1249,-3.1249,-3.1264,-3.1249,-3.1249,-3.1249,-3.1278,-3.1278,-3.1336,-3.138,-3.1409,-3.1569,-3.1597,-3.1656,-3.1954,-3.2191,-3.2308,-3.2533,-3.2836,-3.2725,-3.2755,-3.2816,-3.2846,-3.2828,-3.2842,-3.2962,-3.3067,-3.3079,-3.2821,-3.2518,-3.2214,-3.2168,-3.2196,-3.2234,-3.2308,-3.2336,-3.2391,-3.2459,-3.2475,-3.2444,-3.2413,-3.2398,-3.2398,-3.2453,-3.2605,-3.2784,-3.3058,-3.315,-3.3203,-3.3282,-3.3282,-3.3293,-3.3293,-3.3293,-3.3293,-3.3293,-3.3293,-3.3372,-3.345,-3.3503,-3.3555,-3.3668,-3.3797,-3.3822,-3.3873,-3.3487,-3.3117,-3.2755,-3.2417,-3.2128,-3.1839,-3.1758,-3.1774,-3.1694,-3.1477,-3.1285,-3.1139,-3.0889,-3.0599,-3.0747,-3.0934,-3.1077,-3.1276,-3.1137,-3.1094,-3.0548,-3.022,-3.0285,-3.0253,-3.0026,-2.9983,-2.9956,-3.0011,-3.0081,-3.0231,-3.0359,-3.0443,-3.0485,-3.0506,-3.0489,-3.0489,-3.0489,-3.0489,-3.0506,-3.0489,-3.0489,-3.0821,-3.0807,-3.1058,-3.1131,-3.1307,-3.1322,-3.1365,-3.1524,-3.1496,-3.1511,-3.1511,-3.1539,-3.1568,-3.1568,-3.1568,-3.1568,-3.1568,-3.1597,-3.1717,-3.1643,-3.1938,-3.2084,-3.24,-3.2668,-3.2984,-3.3271,-3.3528,-3.3634,-3.3923,-3.3861,-3.3784,-3.403,-3.4041,-3.3963,-3.3931,-3.402,-3.4017,-3.385,-3.324,-3.278,-3.2742,-3.2659,-3.2567,-3.2659,-3.269,-3.2675,-3.2659,-3.2613,-3.2552,-3.2582,-3.2628,-3.2705,-3.2891,-3.306,-3.3252,-3.3242,-3.3423,-3.335,-3.3356,-3.3309,-3.3293,-3.3293,-3.3293,-3.3293,-3.3293,-3.3293,-3.3372,-3.3477,-3.3529,-3.3607,-3.371,-3.3771,-3.3797,-3.3825,-3.3634,-3.3208,-3.2781,-3.2248,-3.1571,-3.1313,-3.1158,-3.1191,-3.1135,-3.0893,-3.0725,-3.0648,-3.0526,-3.0192,-3.0309,-3.0705,-3.0937,-3.1169,-3.0909,-3.072,-3.0775,-3.0545,-3.0577,-3.048,-3.0162,-3.0065,-3.0049,-3.0098,-3.0141,-3.0274,-3.0401,-3.0443,-3.0485,-3.0489,-3.0489,-3.0489,-3.0489,-3.0489,-3.0506,-3.0609,-3.0555,-3.1028,-3.1043,-3.119,-3.1322,-3.1438,-3.1438,-3.1568,-3.1727,-3.1742,-3.1727,-3.1756,-3.1841,-3.1855,-3.1855,-3.1855,-3.187,-3.1915,-3.1992,-3.2216,-3.2488,-3.2697,-3.2894,-3.3348,-3.359,-3.3801,-3.3906,-3.4102,-3.4377,-3.4527,-3.4496,-3.4433,-3.4404,-3.4524,-3.4616,-3.4616,-3.4705,-3.469,-3.472,-3.4352,-3.391,-3.3967,-3.3996,-3.3996,-3.3935,-3.3904,-3.3827,-3.3842,-3.3889,-3.3921,-3.4012,-3.4012,-3.407,-3.4169,-3.4281,-3.4185,-3.3979,-3.3959,-3.3808,-3.3614,-3.3519,-3.3561,-3.3419,-3.3388,-3.3324,-3.3293,-3.3309,-3.3346,-3.345,-3.3529,-3.3633,-3.371,-3.3745,-3.3781,-3.3777,-3.3756,-3.3298,-3.2813,-3.1963,-3.1105,-3.0797,-3.0593,-3.0496,-3.0457,-3.0383,-3.0204,-3.0123,-3.0091,-2.9977,-2.9999,-3.0257,-3.0338,-3.049,-3.0305,-3.0237,-3.0486,-3.0606,-3.0514,-3.0406,-3.0103,-3.0092,-3.0124,-3.0184,-3.0227,-3.0338,-3.0443,-3.0485,-3.0506,-3.0506,-3.051,-3.0531,-3.0601,-3.0638,-3.0866,-3.0999,-3.0824,-3.119,-3.1205,-3.1336,-3.1438,-3.1496,-3.1612,-3.1698,-3.1813,-3.1912,-3.1968,-3.1968,-3.1996,-3.2012,-3.2012,-3.2012,-3.2268,-3.2374,-3.2437,-3.2863,-3.3271,-3.3542,-3.3724,-3.4059,-3.4485,-3.4666,-3.4802,-3.5124,-3.5354,-3.526,-3.5399,-3.5445,-3.5322,-3.5337,-3.5321,-3.5352,-3.5383,-3.5337,-3.5399,-3.5321,-3.5321,-3.5168,-3.4936,-3.4551,-3.4489,-3.452,-3.4536,-3.4489,-3.4489,-3.4489,-3.4474,-3.4397,-3.4484,-3.4541,-3.4612,-3.4647,-3.457,-3.4509,-3.4479,-3.4207,-3.4076,-3.4087,-3.4083,-3.3799,-3.3862,-3.3719,-3.3688,-3.3404,-3.345,-3.3503,-3.3581,-3.3668,-3.372,-3.3761,-3.3748,-3.3678,-3.3423,-3.266,-3.1779,-3.1172,-3.0823,-3.0522,-3.0139,-3.0139,-3.0167,-3.0043,-3.0065,-2.9984,-3.0027,-3.0011,-2.9989,-3.0011,-3.0027,-3.0011,-3.0011,-3.0266,-3.0321,-3.0239,-3.013,-3.0081,-3.0124,-3.0189,-3.0248,-3.0312,-3.0422,-3.0485,-3.0506,-3.0526,-3.0568,-3.0651,-3.0712,-3.0779,-3.0829,-3.112,-3.1499,-3.1582,-3.1307,-3.1336,-3.1453,-3.1496,-3.1524,-3.1713,-3.1813,-3.187,-3.2066,-3.2206,-3.2191,-3.2122,-3.2053,-3.2053,-3.2205,-3.26,-3.2933,-3.3174,-3.3617,-3.4104,-3.4331,-3.4636,-3.4941,-3.5247,-3.5476,-3.5707,-3.5999,-3.6168,-3.623,-3.6245,-3.623,-3.6461,-3.6492,-3.6461,-3.6492,-3.6461,-3.6292,-3.6215,-3.6199,-3.6338,-3.5968,-3.546,-3.509,-3.4844,-3.4767,-3.4751,-3.4767,-3.4767,-3.4782,-3.4844,-3.4967,-3.5073,-3.5177,-3.5251,-3.5107,-3.5099,-3.5104,-3.5093,-3.4993,-3.4967,-3.5102,-3.5126,-3.4699,-3.4431,-3.4288,-3.4121,-3.381,-3.372,-3.3773,-3.3603,-3.3664,-3.3694,-3.371,-3.3745,-3.3675,-3.3524,-3.2659,-3.1869,-3.1496,-3.1066,-3.0571,-3.0139,-2.9967,-2.9995,-3.006,-3.0065,-3.0098,-3.0162,-3.0205,-3.0162,-3.0141,-3.0162,-3.0146,-3.0184,-3.0205,-3.0205,-3.0167,-3.021,-3.0231,-3.0231,-3.0274,-3.038,-3.048,-3.0522,-3.0547,-3.0609,-3.0651,-3.0712,-3.081,-3.0871,-3.1165,-3.1345,-3.1696,-3.2076,-3.2519,-3.1467,-3.1467,-3.1511,-3.1496,-3.1539,-3.1727,-3.187,-3.1968,-3.2107,-3.2231,-3.233,-3.2342,-3.2315,-3.2361,-3.2929,-3.333,-3.3608,-3.3914,-3.4571,-3.5139,-3.5185,-3.5554,-3.5845,-3.5922,-3.6215,-3.6338,-3.6384,-3.6445,-3.6492,-3.6492,-3.6492,-3.6492,-3.6492,-3.6492,-3.6492,-3.6492,-3.6492,-3.6492,-3.6492,-3.6492,-3.6492,-3.6184,-3.6199,-3.6107,-3.6107,-3.6107,-3.6091,-3.6091,-3.6107,-3.6107,-3.603,-3.5968,-3.5983,-3.5951,-3.5871,-3.5652,-3.5677,-3.5605,-3.5566,-3.5556,-3.5673,-3.5679,-3.5315,-3.5189,-3.5134,-3.5138,-3.4907,-3.4759,-3.4563,-3.3889,-3.3782,-3.3716,-3.3694,-3.3822,-3.3809,-3.3595,-3.304,-3.2635,-3.2263,-3.1632,-3.0985,-3.0554,-3.0172,-3.0238,-3.032,-3.0337,-3.0321,-3.039,-3.0433,-3.0368,-3.0286,-3.0312,-3.0354,-3.0269,-3.0227,-3.0269,-3.029,-3.0316,-3.038,-3.0443,-3.0506,-3.0589,-3.0651,-3.0671,-3.0749,-3.081,-3.0851,-3.0834,-3.0892,-3.1016,-3.1562,-3.1926,-3.2282,-3.2777,-3.3285]},{"header":{"parameterUnit":"m.s-1","parameterCategory":1,"la1":31.0,"la2":29.5877,"lo1":-88.7671,"lo2":-86.6584,"dy":0.0162,"dx":0.0185,"nx":115,"ny":88,"refTime":"2023-03-22T06:00:00:Z","depth":0,"parameterNumber":3,"parameterNumberName":"V-component_of_WINDS"},"data":[0.0,0.0,0.0,0.0,0.0,0.0,0.0,0.0,0.0,0.0,0.0,0.0,0.0,0.0,0.0,0.0,0.0,0.0,0.0,0.0,0.0,0.0,0.0,0.0,0.0,0.0,0.0,0.0,0.0,0.0,0.0,0.0,0.0,0.0,0.0,0.0,0.0,0.0,0.0,0.0,0.0,0.0,0.0,0.0,0.0,0.0,0.0,0.0,0.0,0.0,0.0,0.0,0.0,0.0,0.0,0.0,0.0,0.0,0.0,0.0,0.0,0.0,0.0,0.0,0.0,0.0,0.0,0.0,0.0,0.0,0.0,0.0,0.0,0.0,0.0,0.0,0.0,0.0,0.0,0.0,0.0,0.0,0.0,0.0,0.0,0.0,0.0,0.0,0.0,0.0,0.0,0.0,0.0,0.0,0.0,0.0,0.0,0.0,0.0,0.0,0.0,0.0,0.0,0.0,0.0,0.0,0.0,0.0,0.0,0.0,0.0,0.0,0.0,0.0,0.0,0.0,0.0,0.0,0.0,0.0,0.0,0.0,0.0,0.0,0.0,0.0,0.0,0.0,0.0,0.0,0.0,0.0,0.0,0.0,0.0,0.0,0.0,0.0,0.0,0.0,0.0,0.0,0.0,0.0,0.0,0.0,0.0,0.0,0.0,0.0,0.0,0.0,0.0,0.0,0.0,0.0,0.0,0.0,0.0,0.0,0.0,0.0,0.0,0.0,0.0,0.0,0.0,0.0,0.0,0.0,0.0,0.0,0.0,0.0,0.0,0.0,0.0,0.0,0.0,0.0,0.0,0.0,0.0,0.0,0.0,0.0,0.0,0.0,0.0,0.0,0.0,0.0,0.0,0.0,0.0,0.0,0.0,0.0,0.0,0.0,0.0,0.0,0.0,0.0,0.0,0.0,0.0,0.0,0.0,0.0,0.0,0.0,0.0,0.0,0.0,0.0,0.0,0.0,0.0,0.0,0.0,0.0,0.0,0.0,0.0,0.0,0.0,0.0,0.0,0.0,0.0,0.0,0.0,0.0,0.0,0.0,0.0,0.0,0.0,0.0,0.0,0.0,0.0,0.0,0.0,0.0,0.0,0.0,0.0,0.0,0.0,0.0,0.0,0.0,0.0,0.0,0.0,0.0,0.0,0.0,0.0,0.0,0.0,0.0,0.0,0.0,0.0,0.0,0.0,0.0,0.0,0.0,0.0,0.0,0.0,0.0,0.0,0.0,0.0,0.0,0.0,0.0,0.0,0.0,0.0,0.0,0.0,0.0,0.0,0.0,0.0,0.0,0.0,0.0,0.0,0.0,0.0,0.0,0.0,0.0,0.0,0.0,0.0,0.0,0.0,0.0,0.0,0.0,0.0,0.0,0.0,0.0,0.0,0.0,0.0,0.0,0.0,0.0,0.0,0.0,0.0,0.0,0.0,0.0,0.0,0.0,0.0,0.0,0.0,0.0,0.0,0.0,0.0,0.0,0.0,0.0,0.0,0.0,0.0,0.0,0.0,0.0,0.0,0.0,0.0,0.0,0.0,0.0,0.0,0.0,0.0,0.0,0.0,0.0,0.0,0.0,0.0,0.0,0.0,0.0,0.0,0.0,0.0,0.0,0.0,0.0,0.0,0.0,0.0,0.0,0.0,0.0,0.0,0.0,0.0,0.0,0.0,0.0,0.0,0.0,0.0,0.0,0.0,0.0,0.0,0.0,0.0,0.0,0.0,0.0,0.0,0.0,0.0,0.0,0.0,0.0,0.0,0.0,0.0,0.0,0.0,0.0,0.0,0.0,0.0,0.0,0.0,0.0,0.0,0.0,0.0,0.0,0.0,0.0,0.0,0.0,0.0,0.0,0.0,0.0,0.0,0.0,0.0,0.0,0.0,0.0,0.0,0.0,0.0,0.0,0.0,0.0,0.0,0.0,0.0,0.0,0.0,0.0,0.0,0.0,0.0,0.0,0.0,0.0,0.0,0.0,0.0,0.0,0.0,0.0,0.0,0.0,0.0,0.0,0.0,0.0,0.0,0.0,0.0,0.0,0.0,0.0,0.0,0.0,0.0,0.0,0.0,0.0,0.0,0.0,0.0,0.0,0.0,0.0,0.0,0.0,0.0,0.0,0.0,0.0,0.0,0.0,0.0,0.0,0.0,0.0,0.0,0.0,0.0,0.0,0.0,0.0,0.0,0.0,0.0,0.0,0.0,0.0,0.0,0.0,0.0,0.0,0.0,0.0,0.0,0.0,0.0,0.0,0.0,0.0,0.0,0.0,0.0,0.0,0.0,0.0,0.0,0.0,0.0,0.0,0.0,0.0,0.0,0.0,0.0,0.0,0.0,0.0,0.0,0.0,0.0,0.0,0.0,0.0,0.0,0.0,0.0,0.0,0.0,0.0,0.0,0.0,0.0,0.0,0.0,0.0,0.0,0.0,0.0,0.0,0.0,0.0,0.0,0.0,0.0,0.0,0.0,0.0,0.0,0.0,0.0,0.0,0.0,0.0,0.0,0.0,0.0,0.0,0.0,0.0,0.0,0.0,0.0,0.0,0.0,0.0,0.0,0.0,0.0,0.0,0.0,0.0,0.0,0.0,0.0,0.0,0.0,0.0,0.0,0.0,0.0,0.0,0.0,0.0,0.0,0.0,0.0,0.0,0.0,0.0,0.0,0.0,0.0,0.0,0.0,0.0,0.0,0.0,0.0,0.0,0.0,0.0,0.0,0.0,0.0,0.0,0.0,0.0,0.0,0.0,0.0,0.0,0.0,0.0,0.0,0.0,0.0,0.0,0.0,0.0,0.0,0.0,0.0,0.0,0.0,0.0,0.0,0.0,0.0,0.0,0.0,0.0,0.0,0.0,0.0,0.0,0.0,0.0,0.0,0.0,0.0,0.0,0.0,0.0,0.0,0.0,0.0,0.0,0.0,0.0,0.0,0.0,0.0,0.0,0.0,0.0,0.0,0.0,0.0,0.0,0.0,0.0,0.0,0.0,0.0,0.0,0.0,0.0,0.0,0.0,0.0,0.0,0.0,0.0,0.0,0.0,0.0,0.0,0.0,0.0,0.0,0.0,0.0,0.0,0.0,0.0,0.0,0.0,0.0,0.0,0.0,0.0,0.0,0.0,0.0,0.0,0.0,0.0,0.0,0.0,0.0,0.0,0.0,0.0,0.0,0.0,0.0,0.0,0.0,0.0,0.0,0.0,0.0,0.0,0.0,0.0,0.0,0.0,0.0,0.0,0.0,0.0,0.0,0.0,0.0,0.0,0.0,0.0,0.0,0.0,0.0,0.0,0.0,0.0,0.0,0.0,0.0,0.0,0.0,0.0,0.0,0.0,0.0,0.0,0.0,0.0,0.0,0.0,0.0,0.0,0.0,0.0,0.0,0.0,0.0,0.0,0.0,0.0,0.0,0.0,0.0,0.0,0.0,0.0,0.0,0.0,0.0,0.0,0.0,0.0,0.0,0.0,0.0,0.0,0.0,0.0,0.0,0.0,0.0,0.0,0.0,0.0,0.0,0.0,0.0,0.0,0.0,0.0,0.0,0.0,0.0,0.0,0.0,0.0,0.0,0.0,0.0,0.0,0.0,0.0,0.0,0.0,0.0,0.0,0.0,0.0,0.0,0.0,0.0,0.0,0.0,0.0,0.0,0.0,0.0,0.0,0.0,0.0,0.0,0.0,0.0,0.0,0.0,0.0,0.0,0.0,0.0,0.0,0.0,0.0,0.0,0.0,0.0,0.0,0.0,0.0,0.0,0.0,0.0,0.0,0.0,0.0,0.0,0.0,0.0,0.0,0.0,0.0,0.0,0.0,0.0,0.0,0.0,0.0,0.0,0.0,0.0,0.0,0.0,0.0,0.0,0.0,0.0,0.0,0.0,0.0,0.0,0.0,0.0,0.0,0.0,0.0,0.0,0.0,0.0,0.0,0.0,0.0,0.0,0.0,0.0,0.0,0.0,0.0,0.0,0.0,0.0,0.0,0.0,0.0,0.0,0.0,0.0,0.0,0.0,0.0,0.0,0.0,0.0,0.0,0.0,0.0,0.0,0.0,0.0,0.0,0.0,0.0,0.0,0.0,0.0,0.0,0.0,0.0,0.0,0.0,0.0,0.0,0.0,0.0,0.0,0.0,0.0,0.0,0.0,0.0,0.0,0.0,0.0,0.0,0.0,0.0,0.0,0.0,0.0,0.0,0.0,0.0,0.0,0.0,0.0,0.0,0.0,0.0,0.0,0.0,0.0,0.0,0.0,0.0,0.0,0.0,0.0,0.0,0.0,0.0,2.172,0.0,0.0,0.0,0.0,0.0,0.0,0.0,0.0,0.0,0.0,0.0,0.0,0.0,0.0,0.0,0.0,0.0,0.0,0.0,0.0,0.0,0.0,0.0,0.0,0.0,0.0,0.0,0.0,0.0,0.0,0.0,0.0,0.0,0.0,0.0,0.0,0.0,0.0,0.0,0.0,0.0,0.0,0.0,0.0,0.0,0.0,0.0,0.0,0.0,0.0,0.0,0.0,0.0,0.0,0.0,0.0,0.0,0.0,0.0,0.0,0.0,0.0,0.0,0.0,0.0,0.0,0.0,0.0,0.0,0.0,0.0,0.0,0.0,0.0,0.0,0.0,0.0,0.0,0.0,0.0,0.0,0.0,0.0,0.0,0.0,0.0,0.0,0.0,0.0,0.0,0.0,0.0,0.0,0.0,0.0,0.0,0.0,0.0,0.0,0.0,0.0,0.0,0.0,0.0,0.0,0.0,0.0,0.0,0.0,0.0,2.2478,2.2773,2.2076,2.167,2.1578,0.0,0.0,0.0,0.0,0.0,0.0,0.0,0.0,0.0,0.0,0.0,0.0,0.0,0.0,0.0,0.0,0.0,0.0,0.0,0.0,0.0,0.0,0.0,0.0,0.0,0.0,0.0,0.0,0.0,0.0,0.0,0.0,0.0,0.0,0.0,0.0,0.0,0.0,0.0,0.0,0.0,0.0,0.0,0.0,0.0,0.0,0.0,0.0,0.0,0.0,0.0,0.0,0.0,0.0,0.0,0.0,0.0,0.0,0.0,0.0,0.0,0.0,0.0,0.0,0.0,0.0,0.0,0.0,0.0,0.0,0.0,0.0,0.0,0.0,0.0,0.0,0.0,0.0,0.0,0.0,0.0,0.0,0.0,0.0,0.0,0.0,0.0,0.0,0.0,0.0,0.0,0.0,0.0,0.0,0.0,0.0,0.0,0.0,0.0,0.0,0.0,0.0,0.0,0.0,0.0,0.0,0.0,0.0,0.0,0.0,0.0,0.0,2.2108,2.1691,2.1451,0.0,0.0,0.0,0.0,0.0,0.0,0.0,0.0,0.0,0.0,0.0,0.0,0.0,0.0,0.0,0.0,0.0,0.0,0.0,0.0,0.0,0.0,0.0,0.0,0.0,0.0,0.0,0.0,0.0,0.0,0.0,0.0,0.0,0.0,0.0,0.0,0.0,0.0,0.0,0.0,0.0,0.0,0.0,0.0,0.0,0.0,0.0,0.0,0.0,0.0,0.0,0.0,0.0,0.0,0.0,0.0,0.0,0.0,0.0,0.0,0.0,0.0,0.0,0.0,0.0,0.0,0.0,0.0,0.0,0.0,0.0,0.0,0.0,0.0,0.0,0.0,0.0,0.0,0.0,0.0,0.0,0.0,0.0,0.0,0.0,0.0,0.0,0.0,0.0,0.0,0.0,0.0,0.0,0.0,0.0,0.0,0.0,0.0,0.0,0.0,0.0,0.0,0.0,0.0,0.0,0.0,0.0,0.0,0.0,0.0,2.2528,2.2528,2.246,0.0,2.1352,0.0,0.0,0.0,0.0,0.0,0.0,0.0,0.0,0.0,0.0,0.0,0.0,0.0,0.0,0.0,0.0,0.0,0.0,0.0,0.0,0.0,0.0,0.0,0.0,0.0,0.0,0.0,0.0,0.0,0.0,0.0,0.0,0.0,0.0,0.0,0.0,0.0,0.0,0.0,0.0,0.0,0.0,0.0,0.0,0.0,0.0,0.0,0.0,0.0,0.0,0.0,0.0,0.0,0.0,0.0,0.0,0.0,0.0,0.0,0.0,0.0,0.0,0.0,0.0,0.0,0.0,0.0,0.0,0.0,0.0,0.0,0.0,0.0,0.0,0.0,0.0,0.0,0.0,0.0,0.0,0.0,0.0,0.0,0.0,0.0,0.0,0.0,0.0,0.0,0.0,0.0,0.0,0.0,0.0,0.0,0.0,0.0,0.0,0.0,0.0,0.0,0.0,0.0,0.0,0.0,0.0,0.0,0.0,0.0,0.0,2.2474,2.2446,2.2432,2.2296,0.0,0.0,0.0,0.0,0.0,0.0,0.0,0.0,0.0,0.0,0.0,0.0,0.0,0.0,0.0,0.0,0.0,0.0,0.0,0.0,0.0,0.0,0.0,0.0,0.0,0.0,0.0,0.0,0.0,0.0,0.0,0.0,0.0,0.0,0.0,0.0,0.0,0.0,0.0,0.0,0.0,0.0,0.0,0.0,0.0,0.0,0.0,0.0,0.0,0.0,0.0,0.0,0.0,0.0,0.0,0.0,0.0,0.0,0.0,0.0,0.0,0.0,0.0,0.0,0.0,0.0,0.0,0.0,0.0,0.0,0.0,0.0,0.0,0.0,0.0,0.0,0.0,0.0,0.0,0.0,0.0,0.0,0.0,0.0,0.0,0.0,0.0,0.0,0.0,0.0,0.0,0.0,0.0,0.0,0.0,0.0,0.0,0.0,0.0,0.0,0.0,0.0,0.0,0.0,0.0,0.0,0.0,0.0,0.0,0.0,2.246,2.2419,2.2363,2.238,2.2363,2.2363,0.0,0.0,0.0,0.0,0.0,0.0,0.0,0.0,0.0,0.0,0.0,0.0,0.0,0.0,0.0,0.0,0.0,0.0,0.0,0.0,0.0,0.0,0.0,0.0,0.0,0.0,0.0,0.0,0.0,0.0,0.0,0.0,0.0,0.0,0.0,0.0,0.0,0.0,0.0,0.0,0.0,0.0,0.0,0.0,0.0,0.0,0.0,0.0,0.0,0.0,0.0,0.0,0.0,0.0,0.0,0.0,0.0,0.0,0.0,0.0,0.0,0.0,0.0,0.0,0.0,0.0,0.0,0.0,0.0,0.0,0.0,0.0,0.0,0.0,0.0,0.0,0.0,0.0,0.0,0.0,0.0,0.0,0.0,0.0,0.0,0.0,0.0,0.0,0.0,0.0,0.0,0.0,0.0,0.0,0.0,0.0,0.0,0.0,0.0,0.0,0.0,0.0,0.0,0.0,0.0,0.0,0.0,0.0,2.2391,2.2335,2.231,2.231,2.231,2.231,0.0,0.0,0.0,0.0,0.0,0.0,0.0,0.0,0.0,0.0,0.0,0.0,0.0,0.0,0.0,0.0,0.0,0.0,0.0,0.0,0.0,0.0,0.0,0.0,0.0,0.0,0.0,0.0,0.0,0.0,0.0,0.0,0.0,0.0,0.0,0.0,0.0,0.0,0.0,0.0,0.0,0.0,0.0,0.0,0.0,0.0,0.0,0.0,0.0,0.0,0.0,0.0,0.0,0.0,0.0,0.0,0.0,0.0,0.0,0.0,0.0,0.0,0.0,0.0,0.0,0.0,0.0,0.0,0.0,0.0,0.0,0.0,0.0,0.0,0.0,0.0,0.0,0.0,0.0,0.0,0.0,0.0,0.0,0.0,0.0,0.0,0.0,0.0,0.0,0.0,0.0,0.0,0.0,0.0,0.0,0.0,0.0,0.0,0.0,0.0,0.0,0.0,0.0,0.0,0.0,0.0,0.0,0.0,0.0,2.2372,2.231,2.2313,2.2313,2.2313,2.2313,0.0,0.0,0.0,0.0,0.0,0.0,0.0,0.0,0.0,0.0,0.0,0.0,0.0,0.0,0.0,0.0,0.0,0.0,0.0,0.0,0.0,0.0,0.0,0.0,0.0,0.0,0.0,0.0,0.0,0.0,0.0,0.0,0.0,0.0,0.0,0.0,0.0,0.0,0.0,0.0,0.0,0.0,0.0,0.0,0.0,0.0,0.0,0.0,0.0,0.0,0.0,0.0,0.0,0.0,0.0,0.0,0.0,0.0,0.0,0.0,0.0,0.0,0.0,0.0,0.0,0.0,0.0,0.0,0.0,0.0,0.0,0.0,0.0,0.0,0.0,0.0,0.0,0.0,0.0,0.0,0.0,0.0,0.0,0.0,0.0,0.0,0.0,0.0,0.0,0.0,0.0,0.0,0.0,0.0,0.0,0.0,0.0,0.0,0.0,0.0,0.0,0.0,0.0,0.0,0.0,0.0,0.0,0.0,0.0,2.2682,0.0,2.2313,2.2313,2.2313,2.2313,0.0,0.0,0.0,0.0,0.0,0.0,0.0,0.0,0.0,0.0,0.0,0.0,0.0,0.0,0.0,0.0,0.0,0.0,0.0,0.0,0.0,0.0,0.0,0.0,0.0,0.0,0.0,0.0,0.0,0.0,0.0,0.0,0.0,0.0,0.0,0.0,0.0,0.0,0.0,0.0,0.0,0.0,0.0,0.0,0.0,0.0,0.0,0.0,0.0,0.0,0.0,0.0,0.0,0.0,0.0,0.0,0.0,0.0,0.0,0.0,0.0,0.0,0.0,0.0,0.0,0.0,0.0,0.0,0.0,0.0,0.0,0.0,0.0,0.0,0.0,0.0,0.0,0.0,0.0,0.0,0.0,0.0,0.0,0.0,0.0,0.0,0.0,0.0,0.0,0.0,0.0,0.0,0.0,0.0,0.0,0.0,0.0,0.0,0.0,0.0,0.0,0.0,0.0,0.0,0.0,0.0,0.0,0.0,2.4152,2.3391,2.2682,2.2347,2.2313,2.2313,2.2313,0.0,0.0,0.0,0.0,0.0,0.0,0.0,0.0,0.0,0.0,0.0,0.0,0.0,0.0,0.0,0.0,0.0,0.0,0.0,0.0,0.0,0.0,0.0,0.0,0.0,0.0,0.0,0.0,0.0,0.0,0.0,0.0,0.0,0.0,0.0,0.0,0.0,0.0,0.0,0.0,0.0,0.0,0.0,0.0,0.0,0.0,0.0,0.0,0.0,0.0,0.0,0.0,0.0,0.0,0.0,0.0,0.0,0.0,0.0,0.0,0.0,0.0,0.0,0.0,0.0,0.0,0.0,0.0,0.0,0.0,0.0,0.0,0.0,0.0,0.0,0.0,0.0,0.0,0.0,0.0,0.0,0.0,0.0,0.0,0.0,0.0,0.0,0.0,0.0,0.0,0.0,0.0,0.0,0.0,0.0,0.0,0.0,0.0,0.0,0.0,0.0,0.0,0.0,0.0,0.0,0.0,0.0,0.0,0.0,2.3515,2.3246,2.2861,2.233,2.2313,2.2313,0.0,0.0,0.0,0.0,0.0,0.0,0.0,0.0,0.0,0.0,0.0,0.0,0.0,0.0,0.0,0.0,0.0,0.0,0.0,0.0,0.0,0.0,0.0,0.0,0.0,0.0,0.0,0.0,0.0,0.0,0.0,0.0,0.0,0.0,0.0,0.0,0.0,0.0,0.0,0.0,0.0,0.0,0.0,0.0,0.0,0.0,0.0,0.0,0.0,0.0,0.0,0.0,0.0,0.0,0.0,0.0,0.0,0.0,0.0,0.0,0.0,0.0,0.0,0.0,0.0,0.0,0.0,0.0,0.0,0.0,0.0,0.0,0.0,0.0,0.0,0.0,0.0,0.0,0.0,0.0,0.0,0.0,0.0,0.0,0.0,0.0,0.0,0.0,0.0,0.0,0.0,0.0,0.0,0.0,0.0,0.0,0.0,0.0,0.0,0.0,0.0,0.0,0.0,0.0,0.0,0.0,0.0,0.0,0.0,2.4526,2.4142,2.3592,2.2819,2.2773,2.2623,2.2355,0.0,0.0,0.0,0.0,0.0,0.0,0.0,0.0,0.0,0.0,0.0,0.0,0.0,0.0,0.0,0.0,0.0,0.0,0.0,0.0,0.0,0.0,0.0,0.0,0.0,0.0,0.0,0.0,0.0,0.0,0.0,0.0,0.0,0.0,0.0,0.0,0.0,0.0,0.0,0.0,0.0,0.0,0.0,0.0,0.0,0.0,0.0,0.0,0.0,0.0,0.0,0.0,0.0,0.0,0.0,0.0,0.0,0.0,0.0,0.0,0.0,0.0,0.0,0.0,0.0,0.0,0.0,0.0,0.0,0.0,0.0,0.0,0.0,0.0,0.0,0.0,0.0,0.0,0.0,0.0,0.0,0.0,0.0,0.0,0.0,0.0,0.0,0.0,0.0,0.0,0.0,0.0,0.0,0.0,0.0,0.0,0.0,0.0,0.0,0.0,0.0,0.0,0.0,0.0,0.0,0.0,0.0,0.0,2.6172,2.5367,2.4543,2.3679,2.3604,2.3238,0.0,0.0,0.0,0.0,0.0,0.0,0.0,0.0,0.0,0.0,0.0,0.0,0.0,0.0,0.0,0.0,0.0,0.0,0.0,0.0,0.0,0.0,0.0,0.0,0.0,0.0,0.0,0.0,0.0,0.0,0.0,0.0,0.0,0.0,0.0,0.0,0.0,0.0,0.0,0.0,0.0,0.0,0.0,0.0,0.0,0.0,0.0,0.0,0.0,0.0,0.0,0.0,0.0,0.0,0.0,0.0,0.0,0.0,0.0,0.0,0.0,0.0,0.0,0.0,0.0,0.0,0.0,0.0,0.0,0.0,0.0,0.0,0.0,0.0,0.0,0.0,0.0,0.0,0.0,0.0,0.0,0.0,0.0,0.0,0.0,0.0,0.0,0.0,0.0,0.0,0.0,0.0,0.0,0.0,0.0,0.0,0.0,0.0,0.0,0.0,0.0,0.0,0.0,0.0,0.0,0.0,0.0,0.0,0.0,2.7122,2.6901,2.6055,2.456,2.4464,2.4379,0.0,0.0,0.0,0.0,0.0,0.0,0.0,0.0,0.0,0.0,0.0,0.0,0.0,0.0,0.0,0.0,0.0,0.0,0.0,0.0,0.0,0.0,0.0,0.0,0.0,0.0,0.0,0.0,0.0,0.0,0.0,0.0,0.0,0.0,0.0,0.0,0.0,0.0,0.0,0.0,0.0,0.0,0.0,0.0,0.0,0.0,0.0,0.0,0.0,0.0,0.0,0.0,0.0,0.0,0.0,0.0,0.0,0.0,0.0,0.0,0.0,0.0,0.0,0.0,0.0,0.0,0.0,0.0,0.0,0.0,0.0,0.0,0.0,0.0,0.0,0.0,0.0,0.0,0.0,0.0,0.0,0.0,0.0,0.0,0.0,0.0,0.0,0.0,0.0,0.0,0.0,0.0,0.0,0.0,0.0,0.0,0.0,0.0,0.0,0.0,0.0,0.0,0.0,0.0,0.0,0.0,0.0,0.0,2.7513,2.7542,2.7524,2.7016,2.5956,2.5551,2.5195,0.0,0.0,0.0,0.0,0.0,0.0,0.0,0.0,0.0,0.0,0.0,0.0,0.0,0.0,0.0,0.0,0.0,0.0,0.0,0.0,0.0,0.0,0.0,0.0,0.0,0.0,0.0,0.0,0.0,0.0,0.0,0.0,0.0,0.0,0.0,0.0,0.0,0.0,0.0,0.0,0.0,0.0,0.0,0.0,0.0,0.0,0.0,0.0,0.0,0.0,0.0,0.0,0.0,0.0,0.0,0.0,0.0,0.0,0.0,0.0,0.0,0.0,0.0,0.0,0.0,0.0,0.0,0.0,0.0,0.0,0.0,0.0,0.0,0.0,0.0,0.0,0.0,0.0,0.0,0.0,0.0,0.0,0.0,0.0,0.0,0.0,0.0,0.0,0.0,0.0,0.0,0.0,0.0,0.0,0.0,0.0,0.0,0.0,0.0,0.0,0.0,0.0,0.0,0.0,0.0,0.0,0.0,0.0,2.7602,2.7617,2.7617,2.7587,2.7509,2.6695,2.593,0.0,0.0,0.0,0.0,0.0,0.0,0.0,0.0,0.0,0.0,0.0,0.0,0.0,0.0,0.0,0.0,0.0,0.0,0.0,0.0,0.0,0.0,0.0,0.0,0.0,0.0,0.0,0.0,0.0,0.0,0.0,0.0,0.0,0.0,0.0,0.0,0.0,0.0,0.0,0.0,0.0,0.0,0.0,0.0,0.0,0.0,0.0,0.0,0.0,0.0,0.0,0.0,0.0,0.0,0.0,0.0,0.0,0.0,0.0,0.0,0.0,0.0,0.0,0.0,0.0,0.0,0.0,0.0,0.0,0.0,0.0,0.0,0.0,0.0,0.0,0.0,0.0,0.0,0.0,0.0,0.0,0.0,0.0,0.0,0.0,0.0,0.0,0.0,0.0,0.0,0.0,0.0,0.0,0.0,0.0,0.0,0.0,0.0,0.0,0.0,0.0,0.0,0.0,0.0,0.0,0.0,0.0,0.0,2.763,2.7672,2.7672,2.7672,2.7657,2.7367,2.7107,0.0,0.0,0.0,0.0,0.0,0.0,0.0,0.0,0.0,0.0,0.0,0.0,0.0,0.0,0.0,0.0,0.0,0.0,0.0,0.0,0.0,0.0,0.0,0.0,0.0,0.0,0.0,0.0,0.0,0.0,0.0,0.0,0.0,0.0,0.0,0.0,0.0,0.0,0.0,0.0,0.0,0.0,0.0,0.0,0.0,0.0,0.0,0.0,2.262,0.0,0.0,0.0,0.0,0.0,0.0,0.0,0.0,0.0,0.0,0.0,0.0,0.0,0.0,0.0,0.0,0.0,0.0,0.0,0.0,0.0,0.0,0.0,0.0,0.0,0.0,0.0,0.0,0.0,0.0,0.0,0.0,0.0,0.0,0.0,0.0,0.0,0.0,0.0,0.0,0.0,0.0,0.0,0.0,0.0,0.0,0.0,0.0,0.0,0.0,0.0,0.0,0.0,0.0,0.0,0.0,0.0,0.0,0.0,2.781,2.7836,2.7836,2.7836,2.7836,2.7736,2.7619,0.0,0.0,0.0,0.0,0.0,0.0,0.0,0.0,0.0,0.0,0.0,0.0,0.0,0.0,0.0,0.0,0.0,0.0,0.0,0.0,0.0,0.0,0.0,0.0,0.0,0.0,0.0,0.0,0.0,0.0,0.0,0.0,0.0,0.0,0.0,0.0,0.0,0.0,0.0,0.0,0.0,0.0,0.0,0.0,0.0,0.0,0.0,0.0,0.0,0.0,0.0,0.0,0.0,0.0,0.0,0.0,0.0,0.0,0.0,0.0,0.0,0.0,0.0,0.0,0.0,0.0,0.0,0.0,0.0,0.0,0.0,0.0,0.0,0.0,0.0,0.0,0.0,0.0,0.0,0.0,0.0,0.0,0.0,0.0,0.0,0.0,0.0,0.0,0.0,0.0,0.0,0.0,0.0,0.0,0.0,0.0,0.0,0.0,0.0,0.0,0.0,0.0,0.0,0.0,0.0,0.0,0.0,2.7922,2.8011,2.8025,2.8025,2.8025,2.8028,2.7961,2.7815,2.7557,0.0,0.0,0.0,0.0,0.0,0.0,0.0,0.0,0.0,0.0,0.0,0.0,0.0,0.0,0.0,0.0,0.0,0.0,0.0,0.0,0.0,0.0,0.0,0.0,0.0,0.0,0.0,0.0,0.0,0.0,0.0,0.0,0.0,0.0,0.0,0.0,0.0,0.0,2.5396,2.5275,0.0,0.0,0.0,0.0,0.0,0.0,0.0,0.0,2.3767,0.0,0.0,0.0,0.0,0.0,0.0,0.0,0.0,0.0,0.0,0.0,0.0,0.0,0.0,0.0,0.0,0.0,0.0,0.0,0.0,0.0,0.0,0.0,0.0,0.0,0.0,0.0,0.0,0.0,0.0,0.0,0.0,0.0,0.0,0.0,0.0,0.0,0.0,0.0,0.0,0.0,0.0,0.0,0.0,0.0,0.0,0.0,0.0,0.0,0.0,0.0,0.0,0.0,0.0,0.0,0.0,2.8025,2.8053,2.8095,2.816,2.8178,2.8154,2.8085,2.8071,2.7968,2.776,0.0,0.0,0.0,0.0,0.0,0.0,0.0,0.0,0.0,0.0,0.0,0.0,0.0,0.0,0.0,0.0,0.0,0.0,0.0,0.0,0.0,0.0,0.0,0.0,0.0,0.0,0.0,0.0,0.0,0.0,0.0,0.0,0.0,0.0,0.0,0.0,0.0,0.0,0.0,2.565,2.5222,0.0,0.0,0.0,0.0,0.0,0.0,0.0,0.0,2.469,0.0,0.0,0.0,0.0,0.0,0.0,0.0,0.0,0.0,0.0,0.0,0.0,0.0,0.0,0.0,0.0,0.0,0.0,0.0,0.0,0.0,0.0,0.0,0.0,0.0,0.0,0.0,0.0,0.0,0.0,0.0,0.0,0.0,0.0,0.0,0.0,0.0,0.0,0.0,0.0,0.0,0.0,0.0,0.0,0.0,0.0,0.0,0.0,0.0,0.0,0.0,0.0,0.0,0.0,0.0,2.8154,2.8223,2.8259,2.83,2.8282,2.8286,2.8264,2.8223,2.8136,0.0,0.0,0.0,0.0,0.0,0.0,0.0,0.0,0.0,0.0,0.0,0.0,0.0,0.0,0.0,0.0,0.0,0.0,0.0,0.0,0.0,0.0,0.0,0.0,0.0,0.0,0.0,0.0,0.0,0.0,0.0,0.0,0.0,0.0,0.0,0.0,0.0,0.0,0.0,0.0,2.6762,2.6359,2.599,0.0,0.0,0.0,0.0,0.0,0.0,2.5382,2.5266,0.0,0.0,0.0,0.0,0.0,0.0,0.0,0.0,0.0,0.0,0.0,0.0,0.0,0.0,0.0,0.0,0.0,0.0,0.0,0.0,0.0,0.0,0.0,0.0,0.0,0.0,0.0,0.0,0.0,0.0,0.0,0.0,0.0,0.0,0.0,0.0,0.0,0.0,0.0,0.0,0.0,0.0,0.0,0.0,0.0,0.0,0.0,0.0,0.0,0.0,0.0,0.0,0.0,0.0,0.0,2.8259,2.8411,2.8489,2.8471,2.8471,2.8489,2.8458,2.8375,2.8345,0.0,0.0,0.0,0.0,0.0,0.0,0.0,0.0,0.0,0.0,0.0,0.0,0.0,0.0,0.0,0.0,0.0,0.0,0.0,0.0,0.0,0.0,0.0,0.0,0.0,0.0,0.0,0.0,0.0,0.0,0.0,0.0,0.0,0.0,0.0,0.0,0.0,0.0,0.0,0.0,0.0,2.7459,2.6837,2.6751,0.0,0.0,0.0,0.0,2.563,2.5499,0.0,0.0,0.0,0.0,0.0,0.0,0.0,0.0,0.0,0.0,0.0,0.0,0.0,0.0,0.0,0.0,0.0,0.0,0.0,0.0,0.0,0.0,0.0,0.0,0.0,0.0,0.0,0.0,0.0,0.0,0.0,0.0,0.0,0.0,0.0,0.0,0.0,0.0,0.0,0.0,0.0,0.0,0.0,0.0,0.0,0.0,0.0,0.0,0.0,0.0,0.0,0.0,0.0,0.0,0.0,0.0,2.8549,2.8619,2.87,2.8749,2.8749,2.8737,2.8675,2.86,2.8536,0.0,0.0,0.0,0.0,0.0,0.0,0.0,0.0,0.0,0.0,0.0,0.0,0.0,0.0,0.0,0.0,0.0,0.0,0.0,0.0,0.0,0.0,0.0,0.0,0.0,0.0,0.0,0.0,0.0,0.0,0.0,0.0,0.0,0.0,0.0,0.0,0.0,0.0,0.0,0.0,0.0,2.7663,2.7573,2.7604,2.7595,0.0,0.0,2.6367,2.6387,2.5842,0.0,0.0,0.0,0.0,0.0,0.0,0.0,0.0,0.0,0.0,0.0,0.0,0.0,0.0,0.0,0.0,0.0,0.0,0.0,0.0,0.0,0.0,0.0,0.0,0.0,0.0,0.0,0.0,0.0,0.0,0.0,0.0,0.0,0.0,0.0,0.0,0.0,0.0,0.0,0.0,0.0,0.0,0.0,0.0,0.0,0.0,0.0,0.0,0.0,0.0,0.0,0.0,0.0,0.0,0.0,2.8536,2.8644,2.8773,2.8846,2.8905,2.8905,2.89,2.8803,2.8779,2.8712,0.0,0.0,0.0,0.0,0.0,0.0,0.0,0.0,0.0,0.0,0.0,0.0,0.0,0.0,0.0,0.0,0.0,0.0,0.0,0.0,0.0,0.0,0.0,0.0,0.0,0.0,0.0,0.0,0.0,0.0,0.0,0.0,0.0,0.0,0.0,0.0,0.0,0.0,0.0,0.0,0.0,0.0,2.8452,2.8447,0.0,0.0,0.0,2.7261,2.7236,0.0,0.0,0.0,0.0,0.0,0.0,0.0,0.0,0.0,0.0,0.0,0.0,0.0,0.0,0.0,0.0,0.0,0.0,0.0,0.0,0.0,0.0,0.0,0.0,0.0,0.0,0.0,0.0,0.0,0.0,0.0,0.0,0.0,0.0,0.0,0.0,0.0,0.0,0.0,0.0,0.0,0.0,0.0,0.0,0.0,0.0,0.0,0.0,0.0,0.0,0.0,0.0,0.0,0.0,0.0,0.0,0.0,2.8767,2.8899,2.8998,2.9062,2.9051,2.9021,2.8987,2.8952,0.0,0.0,0.0,0.0,0.0,0.0,0.0,0.0,0.0,0.0,0.0,0.0,0.0,0.0,0.0,0.0,0.0,0.0,0.0,0.0,0.0,0.0,0.0,0.0,0.0,0.0,0.0,2.8822,0.0,0.0,0.0,0.0,0.0,0.0,0.0,0.0,0.0,0.0,0.0,0.0,0.0,0.0,2.9884,2.9301,2.9247,2.9052,0.0,0.0,2.8083,2.8095,2.7909,2.7794,0.0,0.0,0.0,0.0,0.0,0.0,0.0,0.0,0.0,0.0,0.0,0.0,0.0,0.0,0.0,0.0,0.0,0.0,0.0,0.0,0.0,0.0,0.0,0.0,0.0,0.0,0.0,0.0,0.0,0.0,0.0,0.0,0.0,0.0,0.0,0.0,0.0,0.0,0.0,0.0,0.0,0.0,0.0,0.0,0.0,0.0,0.0,0.0,0.0,0.0,0.0,0.0,0.0,0.0,2.9667,2.9,2.9112,2.9178,2.9178,2.9197,2.9178,2.9178,2.9062,2.8994,0.0,0.0,0.0,0.0,0.0,0.0,0.0,0.0,0.0,0.0,0.0,0.0,0.0,0.0,0.0,0.0,0.0,0.0,0.0,0.0,0.0,0.0,0.0,0.0,0.0,0.0,0.0,0.0,0.0,0.0,0.0,0.0,0.0,0.0,0.0,0.0,0.0,0.0,0.0,0.0,0.0,3.0083,3.0026,3.0034,3.0003,0.0,2.9298,2.8835,2.89,2.8274,2.7782,2.7714,0.0,0.0,0.0,0.0,0.0,0.0,0.0,0.0,0.0,0.0,0.0,0.0,0.0,0.0,0.0,0.0,0.0,0.0,0.0,0.0,0.0,0.0,0.0,0.0,0.0,0.0,0.0,0.0,0.0,0.0,0.0,0.0,0.0,0.0,0.0,0.0,0.0,0.0,0.0,0.0,0.0,0.0,0.0,0.0,0.0,0.0,0.0,0.0,0.0,0.0,0.0,0.0,0.0,3.0624,2.9942,3.0032,2.9848,2.9409,2.9341,2.931,2.9259,2.9211,2.9119,0.0,0.0,0.0,0.0,0.0,0.0,0.0,0.0,0.0,0.0,0.0,0.0,0.0,0.0,0.0,0.0,0.0,0.0,0.0,0.0,0.0,0.0,0.0,0.0,0.0,0.0,0.0,0.0,2.9096,2.9232,2.9328,0.0,0.0,0.0,0.0,0.0,0.0,0.0,0.0,0.0,0.0,3.0038,3.0038,3.0076,0.0,0.0,2.987,2.9707,2.9747,2.9453,2.9204,2.9176,2.9441,0.0,0.0,0.0,0.0,0.0,0.0,0.0,0.0,0.0,0.0,0.0,0.0,0.0,0.0,0.0,0.0,0.0,0.0,0.0,0.0,0.0,0.0,0.0,0.0,0.0,0.0,0.0,0.0,0.0,0.0,0.0,0.0,0.0,0.0,0.0,0.0,0.0,0.0,0.0,0.0,0.0,0.0,0.0,0.0,0.0,0.0,0.0,0.0,0.0,0.0,0.0,0.0,3.1584,3.0891,3.0957,3.0754,3.0249,3.0209,3.0027,2.9744,2.9699,2.9499,0.0,0.0,0.0,0.0,0.0,0.0,0.0,0.0,0.0,0.0,0.0,0.0,0.0,0.0,0.0,0.0,0.0,0.0,0.0,0.0,0.0,0.0,0.0,0.0,0.0,0.0,0.0,0.0,2.9141,2.9275,2.939,0.0,0.0,0.0,0.0,0.0,0.0,0.0,0.0,0.0,0.0,2.9975,2.9975,3.0011,3.0049,3.0064,3.0121,3.0161,3.0176,3.0128,3.0098,3.003,0.0,0.0,0.0,0.0,0.0,0.0,0.0,0.0,0.0,0.0,0.0,0.0,0.0,0.0,0.0,0.0,0.0,0.0,0.0,0.0,0.0,0.0,0.0,0.0,0.0,0.0,0.0,3.355,0.0,0.0,3.351,0.0,0.0,0.0,0.0,0.0,0.0,0.0,0.0,0.0,0.0,0.0,0.0,0.0,0.0,0.0,0.0,0.0,0.0,0.0,0.0,0.0,0.0,3.2504,3.1794,3.1842,3.1877,3.1904,3.1942,3.1499,3.0719,3.0618,3.0142,2.9263,0.0,0.0,0.0,0.0,0.0,0.0,0.0,0.0,0.0,0.0,0.0,0.0,0.0,0.0,0.0,0.0,0.0,0.0,0.0,0.0,0.0,0.0,0.0,0.0,0.0,0.0,2.9005,2.9193,2.9323,0.0,0.0,0.0,0.0,0.0,0.0,0.0,0.0,0.0,0.0,2.9851,2.9904,2.9904,2.9899,2.994,3.0007,2.9996,3.003,3.0095,3.0095,3.0065,0.0,0.0,0.0,0.0,0.0,0.0,0.0,0.0,0.0,0.0,0.0,0.0,0.0,0.0,0.0,0.0,0.0,0.0,0.0,0.0,0.0,0.0,0.0,0.0,0.0,0.0,0.0,3.3855,3.3868,0.0,0.0,0.0,0.0,0.0,0.0,0.0,0.0,0.0,0.0,0.0,3.3934,3.3985,0.0,0.0,0.0,0.0,0.0,0.0,0.0,0.0,0.0,0.0,0.0,0.0,3.3526,3.2854,3.2809,3.2582,3.2091,3.2019,3.1864,3.1582,3.1447,3.1177,3.0738,0.0,0.0,0.0,0.0,0.0,0.0,0.0,0.0,0.0,0.0,0.0,0.0,0.0,0.0,0.0,0.0,0.0,0.0,0.0,0.0,0.0,0.0,0.0,0.0,0.0,2.904,0.0,0.0,0.0,0.0,0.0,0.0,0.0,0.0,0.0,0.0,0.0,2.9789,2.9789,2.9849,2.9918,2.9899,2.994,2.9972,0.0,0.0,0.0,0.0,0.0,0.0,0.0,0.0,0.0,0.0,0.0,0.0,0.0,0.0,2.8987,2.894,2.8785,2.8625,2.8484,0.0,0.0,0.0,0.0,0.0,0.0,0.0,0.0,0.0,0.0,0.0,0.0,0.0,0.0,3.3972,0.0,3.3998,0.0,0.0,0.0,0.0,0.0,0.0,0.0,0.0,3.4068,3.4099,3.4111,3.4173,3.4197,0.0,3.4311,3.4293,0.0,0.0,0.0,0.0,0.0,0.0,0.0,0.0,3.4177,3.3735,3.3708,3.3468,3.2987,3.2924,3.2748,3.2425,3.1994,3.1691,3.1507,3.0852,3.0409,0.0,0.0,0.0,0.0,0.0,0.0,0.0,0.0,0.0,0.0,0.0,0.0,0.0,0.0,0.0,0.0,0.0,0.0,0.0,0.0,0.0,0.0,0.0,2.913,0.0,0.0,0.0,0.0,0.0,0.0,0.0,0.0,0.0,2.9701,2.9719,2.9755,2.9774,2.9806,2.983,2.983,0.0,0.0,0.0,0.0,0.0,0.0,0.0,2.9851,2.9823,2.9754,2.9654,2.957,2.9434,2.9296,2.9156,0.0,0.0,2.8827,2.87,2.851,2.8371,2.825,2.8126,2.7982,2.7911,2.7871,0.0,0.0,0.0,0.0,0.0,0.0,0.0,0.0,3.3908,3.3947,0.0,3.4011,0.0,0.0,0.0,0.0,3.4011,3.4055,0.0,0.0,3.4233,3.4293,3.4305,3.4381,3.4397,3.4386,3.4416,3.4439,3.4495,3.4439,0.0,0.0,0.0,0.0,0.0,0.0,3.445,3.4487,3.4487,3.4528,3.4564,3.4583,3.4135,3.3258,3.2295,3.1774,3.1599,3.1507,3.1345,3.1137,3.1039,0.0,0.0,0.0,0.0,0.0,0.0,0.0,0.0,0.0,0.0,0.0,0.0,0.0,0.0,0.0,0.0,0.0,0.0,0.0,0.0,2.9108,0.0,0.0,0.0,0.0,0.0,0.0,0.0,0.0,0.0,0.0,2.9673,2.9692,2.9683,2.9692,0.0,0.0,0.0,0.0,2.9799,2.9799,2.9799,2.978,2.9789,2.9799,2.9763,2.9708,0.0,0.0,2.9334,2.9246,2.9145,2.9017,2.8846,2.8694,2.87,2.8582,2.8432,2.8237,2.814,2.8011,2.7792,2.7689,2.7617,3.3998,0.0,0.0,0.0,0.0,3.4011,3.4061,3.4111,3.4105,3.4105,3.4148,3.4136,0.0,0.0,0.0,0.0,0.0,0.0,3.4216,3.4245,3.4281,3.4328,3.4363,3.4439,3.4473,3.4473,3.4517,3.455,3.458,3.455,3.4539,3.4539,0.0,0.0,0.0,0.0,3.4569,3.458,3.458,3.4572,3.4612,3.455,3.436,3.3992,3.3628,3.3377,3.3284,3.2636,3.2221,3.2085,3.1437,0.0,0.0,0.0,0.0,0.0,0.0,0.0,0.0,0.0,0.0,0.0,0.0,0.0,0.0,0.0,0.0,0.0,0.0,0.0,2.9945,2.9518,2.9272,0.0,0.0,0.0,0.0,0.0,0.0,0.0,0.0,0.0,2.955,2.9636,2.97,0.0,0.0,2.9689,2.9689,2.9719,2.9719,2.9726,2.9728,0.0,2.9717,2.9701,2.9664,2.9626,2.9512,2.9373,2.9307,2.9156,2.9021,2.8959,2.8761,2.86,2.851,2.8419,2.8313,2.8154,2.8046,2.7946,2.7856,2.7751,2.7659,3.4111,3.4092,3.4023,3.4023,3.4061,3.4061,3.4099,3.4142,3.4161,3.4173,3.4216,3.4216,3.4216,3.4216,3.4216,0.0,0.0,0.0,3.4269,3.4328,3.4381,3.4397,3.445,3.4525,3.4558,3.4539,3.4572,3.4612,3.4612,3.4612,3.4612,3.4612,0.0,0.0,3.4676,3.4674,3.4645,3.4645,3.4604,3.4612,3.4612,3.4506,3.4427,3.4328,3.4209,3.4117,3.4011,3.346,3.3099,3.2939,3.2388,3.2024,0.0,0.0,0.0,0.0,0.0,0.0,0.0,0.0,0.0,0.0,0.0,3.1322,3.1379,0.0,0.0,0.0,3.1302,3.1225,3.0837,3.0486,0.0,0.0,0.0,0.0,0.0,0.0,0.0,2.9443,2.9443,2.9443,2.9463,2.9522,2.9598,2.9617,2.9617,2.9617,2.9617,0.0,2.9626,2.9617,2.9608,2.9617,2.9617,2.9579,2.954,2.9501,2.9382,2.9267,2.9178,2.9062,2.8917,2.8798,2.8637,2.8489,2.8345,2.8232,2.8136,2.8011,2.7896,2.7798,2.7727,2.7632,2.7572,3.4216,3.4185,3.4074,3.4023,3.4011,3.4023,3.4049,3.4111,3.4111,3.4148,3.4197,3.4216,3.4216,3.4216,3.4216,0.0,3.4293,3.4293,3.4328,3.4397,3.4491,3.4506,3.4517,3.4561,3.4612,3.4612,3.4612,3.4612,3.4612,3.4612,3.4612,3.4612,3.4666,3.4737,3.4797,3.4737,3.4706,3.4706,3.4634,3.4602,3.4602,3.4461,3.4404,3.4393,3.4257,3.4124,3.3998,3.3985,3.3855,3.3619,3.3591,3.3491,3.3307,0.0,0.0,0.0,0.0,0.0,0.0,0.0,0.0,0.0,0.0,0.0,0.0,0.0,0.0,0.0,3.1518,0.0,3.1666,3.17,0.0,0.0,0.0,3.0453,2.968,2.9638,2.964,2.9566,0.0,0.0,2.9392,2.9382,2.9412,2.9463,2.9472,2.9482,2.9482,2.9501,2.9482,2.9482,2.9482,2.9492,2.9521,2.9482,2.9433,2.933,2.9286,2.9197,2.904,2.8917,2.881,2.8625,2.8471,2.8327,2.8209,2.8067,2.794,2.7821,2.7728,2.7662,2.7622,2.7594,2.7613,3.4216,3.4216,3.4161,3.4148,3.4148,3.4161,3.4161,3.4173,3.4185,3.4185,3.4216,3.4216,3.4216,3.4216,3.4216,3.4233,3.4293,3.4293,3.4351,3.4473,3.4495,3.4517,3.4591,3.4602,3.4612,3.4612,3.4612,3.4612,3.4612,3.4612,3.4634,3.4666,3.4706,3.4676,3.4645,3.4634,3.4623,3.4623,3.4612,3.4572,3.4517,3.4404,3.4293,3.4245,3.4161,3.4036,3.3855,3.3842,3.3762,3.3601,3.3509,3.3422,3.3382,3.3226,0.0,0.0,0.0,0.0,0.0,0.0,0.0,0.0,0.0,3.2922,3.3092,0.0,3.2942,0.0,3.2609,3.2346,3.2377,3.1869,0.0,0.0,3.1344,3.1305,3.109,3.1094,3.0865,3.0243,3.018,2.9946,2.9328,2.9243,2.9235,2.9275,2.9326,2.9347,2.9347,2.9347,2.9349,2.9343,2.9353,2.9373,2.9402,2.938,2.9286,2.9178,2.91,2.904,2.894,2.8804,2.8625,2.8489,2.8345,2.8191,2.8071,2.7911,2.778,2.7692,2.763,2.7809,2.8342,2.8383,2.8443,3.4216,3.4216,3.4216,3.4185,3.4161,3.4185,3.4216,3.4216,3.4216,3.4216,3.4216,3.4216,3.4216,3.4216,3.4216,3.4233,3.4293,3.4293,3.4351,3.4461,3.4461,3.4495,3.455,3.455,3.458,3.4612,3.4612,3.4612,3.4612,3.4612,3.4623,3.4655,3.4636,3.4634,3.4612,3.4634,3.4634,3.4612,3.4558,3.4495,3.4461,3.4316,3.4233,3.4197,3.4099,3.3972,3.382,3.3807,3.3726,3.3563,3.3452,3.3364,3.3289,3.3104,3.2979,0.0,0.0,0.0,0.0,0.0,0.0,0.0,0.0,0.0,0.0,0.0,3.3448,3.3591,3.335,3.3185,3.3185,3.2827,3.2477,3.2109,3.2109,3.1991,3.1605,3.1549,3.136,3.0912,3.0845,3.0679,3.0196,3.014,3.0129,3.0105,3.0129,2.9899,2.9333,2.9204,2.9186,2.9185,2.9206,2.9217,2.9257,2.9189,2.9096,2.9005,2.8905,2.8834,2.8749,2.8594,2.8476,2.8313,2.815,2.7996,2.7896,2.8032,2.8074,2.8097,2.8263,2.8459,2.8515,2.876,2.9074,3.4173,3.4173,3.4173,3.4148,3.4099,3.4148,3.4173,3.4173,3.4173,3.4173,3.4173,3.4173,3.4173,3.4173,3.4185,3.4221,3.4281,3.4293,3.4328,3.4386,3.4386,3.442,3.4484,3.4484,3.4517,3.458,3.4591,3.458,3.458,3.4561,3.4572,3.4561,3.458,3.4561,3.4572,3.4634,3.4634,3.4572,3.4461,3.4393,3.4374,3.4276,3.4185,3.4173,3.4049,3.3926,3.378,3.3734,3.3675,3.3462,3.3378,3.3256,3.3086,3.293,3.2836,0.0,3.2655,0.0,0.0,0.0,0.0,0.0,0.0,0.0,0.0,3.3307,3.3393,3.3577,3.3753,3.3873,3.3873,3.3908,3.367,3.3006,3.2914,3.2594,3.1869,3.1765,3.169,3.1554,3.1523,3.1479,3.1219,3.1274,3.123,3.1099,3.105,3.0628,2.9642,2.9397,2.9434,2.9345,2.9265,2.9253,2.9046,2.8929,2.8834,2.8749,2.87,2.8607,2.8484,2.8393,2.8318,2.8154,2.7936,2.7813,2.7809,2.8235,2.8562,2.8668,2.9126,2.9317,2.8887,2.9128,2.9504,3.4036,3.4036,3.4049,3.4036,3.4023,3.4036,3.4036,3.4036,3.4018,3.4036,3.4036,3.4036,3.4036,3.4049,3.4099,3.4161,3.4221,3.4269,3.4328,3.4386,3.4386,3.4397,3.4427,3.4427,3.4439,3.442,3.445,3.445,3.4439,3.4439,3.445,3.442,3.445,3.442,3.4439,0.0,0.0,0.0,3.4393,3.4335,3.4323,3.4185,3.4099,3.4049,3.3908,0.0,3.3563,3.3509,3.3375,3.3178,3.3039,0.0,0.0,0.0,0.0,0.0,0.0,0.0,0.0,0.0,0.0,0.0,3.2771,3.2999,3.3277,3.3393,3.3481,3.3506,3.3605,3.3643,3.3661,3.3675,3.3616,3.347,3.3451,3.3364,3.3205,3.3186,3.294,3.2206,3.2133,3.1856,3.1238,3.1048,3.1084,3.1125,3.0998,3.0862,3.0613,3.0638,3.0711,3.0631,3.0103,2.9477,2.8791,2.8692,2.8634,2.8484,2.8419,2.8327,2.8205,2.8109,2.8011,2.7853,2.7704,2.7844,2.8309,2.8444,2.8644,2.9093,2.9657,3.0064,3.0125,3.0156,3.039,3.3998,3.3998,3.3959,3.3934,0.0,3.3855,3.3829,3.382,3.3934,3.3998,3.3998,3.3998,3.3998,3.3998,3.4018,3.4074,3.4099,3.4136,3.4173,3.4197,3.4197,3.4233,3.4305,3.4305,3.4328,3.4386,3.4386,3.4386,3.4386,3.4386,3.4386,3.4386,3.4386,3.4386,3.4404,3.4726,3.4714,3.434,3.4221,3.4136,3.4099,3.3992,3.3921,3.3842,3.3726,0.0,0.0,0.0,0.0,0.0,0.0,0.0,0.0,3.2641,0.0,3.2507,3.2404,3.2353,3.2353,3.2387,3.2439,3.2507,3.2706,3.2934,3.3155,3.3304,3.3393,3.3411,3.3466,3.3491,3.3491,3.3491,3.3509,3.3491,3.3509,3.3495,3.3448,3.3433,3.3245,3.2795,3.2679,3.2454,3.2049,3.1948,3.1933,3.1933,3.1921,3.1858,3.1772,3.1261,3.0856,3.0792,3.0522,3.0111,2.9656,2.9111,2.8814,2.8744,2.8372,2.8039,2.7922,2.7839,2.7827,2.8054,2.8004,2.8105,2.8748,2.9076,2.9383,2.965,3.0149,3.062,3.0789,3.0749,3.0772,3.3934,3.3939,3.3868,3.3834,3.3766,3.368,3.3661,3.3601,3.3847,0.0,0.0,3.3952,3.3934,3.3921,3.3952,3.3947,3.3947,3.3972,3.3985,3.3967,3.3998,3.4061,3.4161,3.4161,3.4221,3.4328,3.4328,3.4328,3.4347,3.4328,3.4328,3.4316,3.4316,3.4391,3.4554,3.5051,3.5049,3.4568,3.448,3.4402,3.4318,3.427,3.4188,3.4109,3.384,3.3636,3.3551,3.3349,3.3122,3.2934,3.2854,3.2789,3.2691,3.2474,3.2354,3.2354,3.2179,3.209,3.209,3.2161,3.2249,3.2371,3.2658,3.2852,3.2979,3.317,3.3262,3.3262,3.3304,3.3349,3.3349,3.3331,3.3349,3.3334,3.3319,3.3289,3.3198,3.3183,3.3119,3.3008,3.2912,3.29,3.2797,3.2731,3.2787,3.2736,3.2597,3.2721,3.2531,3.1687,3.1011,3.0832,3.0731,3.0642,3.0395,2.9828,2.9319,2.9206,2.8499,2.7899,2.7774,2.7654,2.7821,2.826,2.8337,2.863,2.919,2.9696,3.0093,3.0133,3.0521,3.0875,3.0875,3.0838,3.0838,3.3643,3.3661,3.3643,3.3647,3.3615,3.3601,3.3587,3.3605,3.3647,3.3657,3.3661,3.3643,3.3661,3.3657,3.3712,3.3771,3.3753,3.3855,3.3908,3.3908,3.3972,3.4011,3.4036,3.4023,3.4036,3.4061,3.4061,3.4043,3.4061,3.4061,3.4061,3.4061,3.4043,3.4375,3.4942,3.4977,3.5227,3.574,3.6002,3.6099,3.5961,3.5891,3.5827,3.5666,3.4861,3.4333,3.408,3.3355,3.2836,3.2591,3.2508,3.2405,3.2284,3.2214,3.2126,3.2126,3.2108,3.209,3.209,3.2108,3.2196,3.2388,3.2457,3.2626,3.2963,3.3073,3.3117,3.3135,3.3135,3.3132,3.3132,3.315,3.3104,3.3057,3.306,3.2979,3.2816,3.28,3.2753,3.2589,3.2574,3.2523,3.2438,3.2353,3.2318,3.2284,3.2249,3.2127,3.2109,3.2177,3.1923,3.1376,3.1135,3.0821,3.0382,2.9969,2.9732,2.9633,2.8894,2.8211,2.8011,2.7861,2.7862,2.7946,2.8368,2.8991,2.9681,2.9806,3.0001,3.0353,3.0522,3.0443,3.0342,3.0316,3.038,3.3538,3.3477,3.339,3.3327,3.3327,3.3253,3.3223,3.3223,3.3253,3.3404,3.3591,3.3605,3.3605,3.3605,3.3629,3.3647,3.3643,3.3712,3.3739,3.3739,3.3762,3.3788,3.3829,3.3847,3.3855,3.3881,3.3895,3.3895,3.3881,3.3881,3.3913,3.3918,3.4323,3.4687,3.5009,3.5754,3.6304,3.6573,3.6309,3.6087,3.5912,3.5884,3.5792,3.5636,3.5163,3.4854,3.4688,3.4246,3.3703,3.3072,3.3002,3.2722,3.209,3.1983,3.1911,3.1838,3.1783,3.1781,3.1781,3.1801,3.1874,3.1947,3.2143,3.2319,3.2506,3.2721,3.2834,3.2834,3.2834,3.2834,3.2834,3.2834,3.282,3.2739,3.2722,3.2622,3.2454,3.2438,3.2369,3.2249,3.2197,3.2161,3.2091,3.2037,3.2,3.1982,3.1858,3.1766,3.1674,3.1748,3.1808,3.1603,3.1533,3.1359,3.0907,3.0421,3.0127,2.9987,2.9246,2.8544,2.8082,2.7807,2.7834,2.806,2.8388,2.8904,2.9788,2.9914,3.0013,3.0056,3.007,2.9941,2.987,2.9782,2.9864,3.346,3.3274,3.3101,3.3055,3.3039,3.2948,3.29,3.29,3.2963,3.315,3.3415,3.3477,3.3488,3.3491,3.3459,3.3459,3.3459,3.3459,3.3459,3.3459,3.3488,3.353,3.3587,3.3615,3.3657,3.3698,3.3712,3.3694,3.3712,3.3712,3.3803,3.4027,3.4735,3.5184,3.5293,3.6435,3.7049,3.7094,3.6519,3.6179,3.6112,3.6112,3.6012,3.5756,3.5526,3.5332,3.5207,3.4905,3.4409,3.3665,3.3594,3.3187,3.2375,3.2073,3.1929,3.1819,3.1621,3.1481,3.15,3.1557,3.1596,3.1598,3.1838,3.2001,3.2072,3.2266,3.2455,3.2522,3.2522,3.2505,3.2506,3.2471,3.2455,3.2353,3.237,3.2284,3.2108,3.2055,3.1984,3.1877,3.1785,3.1747,3.1728,3.1635,3.1523,3.1466,3.1408,3.1332,3.1274,3.1196,3.1237,3.1391,3.1578,3.1564,3.1487,3.0933,3.0479,3.0315,2.9555,2.8837,2.8258,2.7911,2.7931,2.8378,2.8536,2.8936,2.9691,2.9848,2.9788,2.9722,2.9589,2.9477,2.9416,2.925,2.9266,3.3575,3.3001,3.2969,3.2916,3.2918,3.2902,3.2902,3.2866,3.29,3.2932,3.2979,3.3086,3.3147,3.3132,3.3104,3.3073,3.3073,3.3055,3.307,3.3086,3.319,3.3235,3.3283,3.3393,3.3422,3.3473,3.351,3.3582,3.3549,3.3495,3.3803,3.4443,3.5115,3.5789,3.6351,3.6467,3.6756,3.7267,3.7213,3.7362,3.7666,3.7665,3.7506,3.7122,3.6376,3.5838,3.5494,3.4756,3.42,3.3891,3.3874,3.3762,3.3471,3.2886,3.2527,3.2457,3.1856,3.1481,3.1498,3.1481,3.1519,3.1598,3.1615,3.1709,3.1783,3.1838,3.2019,3.2232,3.2249,3.2214,3.2232,3.2144,3.2038,3.1966,3.1948,3.1893,3.1691,3.1615,3.1523,3.1391,3.1293,3.1252,3.1252,3.1081,3.0845,3.0716,3.0695,3.0638,3.0634,3.0613,3.0535,3.058,3.0861,3.119,3.1157,3.1098,3.0717,3.054,2.9805,2.9094,2.8719,2.8543,2.861,2.8431,2.8904,2.9231,2.9406,2.9515,2.935,2.9266,2.9152,2.9075,2.8951,2.874,2.8716,3.4305,3.3917,3.3864,3.3512,3.3038,3.2967,3.2722,3.2335,3.2438,3.2472,3.2489,3.2606,3.277,3.2977,3.2963,3.2948,3.2932,3.293,3.2948,3.293,3.2993,3.3024,3.3078,3.3524,3.3755,3.3809,3.4223,3.4406,3.4339,3.429,3.4453,3.4792,3.5473,3.6025,3.631,3.6555,3.6848,3.7052,3.6952,3.6913,3.6992,3.7241,3.7222,3.6915,3.6558,3.6262,3.5983,3.5627,3.5142,3.4483,3.4428,3.412,3.3431,3.3123,3.273,3.2246,3.1556,3.1151,3.1131,3.1131,3.1151,3.121,3.1215,3.1291,3.1329,3.1404,3.1502,3.1635,3.1838,3.1929,3.1839,3.1785,3.1711,3.1581,3.1562,3.1432,3.1162,3.112,3.1041,3.0861,3.0797,3.0794,3.0773,3.0638,3.0414,3.0258,3.021,3.0151,3.0108,3.0092,3.0011,2.9946,3.0118,3.0305,3.0464,3.0464,3.03,3.0064,2.974,2.9329,2.8726,2.8501,2.8382,2.8305,2.8453,2.8719,2.8911,2.8873,2.8763,2.8653,2.8462,2.8293,2.814,2.8042,2.8018,3.4754,3.4447,3.4389,3.3961,3.3363,3.3291,3.298,3.2498,3.2419,3.2404,3.2386,3.2231,3.2318,3.2573,3.2655,3.2722,3.2688,3.2655,3.2746,3.2889,3.2924,3.3048,3.3278,3.3791,3.4127,3.4198,3.4712,3.496,3.4924,3.5046,3.5098,3.5204,3.5853,3.6221,3.6237,3.6554,3.6661,3.6638,3.6454,3.6284,3.6195,3.6447,3.655,3.6388,3.6388,3.6284,3.6049,3.6028,3.5724,3.498,3.4929,3.46,3.3849,3.3592,3.3012,3.2056,3.1412,3.099,3.0827,3.079,3.079,3.0794,3.0834,3.0875,3.0875,3.0915,3.0955,3.0975,3.1196,3.1332,3.1447,3.1389,3.1293,3.114,3.11,3.0962,3.0686,3.0642,3.0576,3.0401,3.0326,3.03,3.0258,3.0172,3.0006,2.9842,2.9776,2.9732,2.9649,2.9611,2.9544,2.9387,2.9364,2.9522,2.976,2.9826,2.9694,2.9477,2.9323,2.9057,2.8494,2.8288,2.8128,2.8116,2.7868,2.7852,2.8259,2.8268,2.8073,2.79,2.7725,2.7534,2.7479,2.7408,2.7331,3.4734,3.4108,3.4019,3.4034,3.3948,3.3928,3.3913,3.3633,3.3143,3.2852,3.2766,3.2198,3.1854,3.1978,3.2265,3.2267,3.2232,3.2125,3.2436,3.3007,3.304,3.3386,3.4042,3.4267,3.4398,3.4416,3.4684,3.4755,3.4755,3.5257,3.557,3.5603,3.6119,3.6437,3.6381,3.619,3.6114,3.6023,3.5893,3.5761,3.5627,3.565,3.5717,3.5766,3.5832,3.5722,3.5476,3.5447,3.5385,3.5287,3.5237,3.5197,3.5067,3.4465,3.3395,3.2019,3.1646,3.1217,3.0621,3.0506,3.0489,3.0506,3.0489,3.0526,3.0489,3.0431,3.0372,3.0335,3.0368,3.0531,3.0895,3.0838,3.0736,3.0695,3.0593,3.0489,3.0351,3.0241,3.0167,3.0038,2.9913,2.9804,2.9748,2.9621,2.947,2.935,2.9213,2.9144,2.9106,2.9121,2.9013,2.8826,2.8779,2.8904,2.9341,2.9335,2.9175,2.8951,2.874,2.8606,2.8398,2.8174,2.8039,2.7896,2.7737,2.7669,2.773,2.765,2.7408,2.724,2.7071,2.6941,2.689,2.68,2.6762,3.5455,3.5006,3.4941,3.4631,3.419,3.4083,3.3808,3.3334,3.3081,3.2979,3.2946,3.2754,3.2693,3.2693,3.2858,3.2803,3.2655,3.2565,3.2924,3.3576,3.3645,3.3783,3.4042,3.4545,3.4786,3.4855,3.5232,3.5415,3.5387,3.5535,3.5613,3.5608,3.5701,3.5788,3.5761,3.5577,3.5441,3.5396,3.5195,3.5031,3.4913,3.4818,3.4747,3.4754,3.5195,3.5412,3.5228,3.5118,3.4977,3.4804,3.4804,3.4691,3.448,3.3833,3.3006,3.2027,3.1442,3.0849,3.0179,3.0049,3.0049,3.0049,3.0049,3.007,3.0032,2.9989,2.9968,2.9968,2.9962,3.007,3.0156,3.0236,3.0231,3.0151,3.0092,3.0022,2.993,2.982,2.9694,2.956,2.9425,2.9289,2.9121,2.9013,2.8936,2.8748,2.8668,2.8621,2.8549,2.8534,2.8438,2.818,2.8122,2.8155,2.8213,2.8494,2.851,2.8317,2.8122,2.7974,2.779,2.77,2.7565,2.7409,2.7316,2.7214,2.7163,2.7008,2.6774,2.6695,2.6522,2.6431,2.6377,2.6312,2.6231,3.5554,3.5373,3.5281,3.4973,3.4521,3.4391,3.4062,3.3601,3.3356,3.3256,3.3262,3.3111,3.3038,3.3038,3.3108,3.3161,3.3172,3.3069,3.3385,3.4045,3.4076,3.4192,3.4482,3.4921,3.5138,3.5189,3.5533,3.5705,3.5655,3.5515,3.5458,3.5441,3.5304,3.5218,3.5148,3.4977,3.4899,3.4828,3.4618,3.4472,3.4358,3.425,3.4126,3.4101,3.4497,3.4739,3.478,3.4691,3.457,3.4382,3.4374,3.43,3.4061,3.3598,3.2878,3.2006,3.1426,3.0693,2.9855,2.97,2.9694,2.9716,2.9671,2.9633,2.9649,2.9566,2.9506,2.9506,2.9432,2.9409,2.9409,2.9448,2.9538,2.9633,2.9633,2.9538,2.9396,2.9289,2.9175,2.9029,2.8928,2.8771,2.8605,2.851,2.8389,2.8226,2.8162,2.8103,2.8039,2.7999,2.7915,2.7665,2.764,2.7499,2.7418,2.7519,2.7785,2.7635,2.756,2.7397,2.7233,2.7155,2.7052,2.6893,2.6747,2.6628,2.6496,2.6377,2.627,2.6204,2.6084,2.5962,2.5907,2.5853,2.5784,3.4883,3.4883,3.4899,3.4842,3.4759,3.4736,3.4826,3.457,3.4018,3.37,3.3617,3.3092,3.2888,3.2794,3.2933,3.3154,3.3609,3.3411,3.3648,3.4292,3.427,3.4583,3.5136,3.5205,3.5261,3.5278,3.5345,3.5379,3.5339,3.5165,3.5081,3.5041,3.4923,3.4787,3.4707,3.4521,3.4423,3.4275,3.4134,3.4075,3.4075,3.3924,3.3848,3.3813,3.3684,3.3745,3.4075,3.4075,3.4059,3.405,3.405,3.4075,3.4,3.3793,3.3205,3.2023,3.163,3.0855,2.9729,2.9466,2.9412,2.9389,2.9328,2.9259,2.9198,2.9044,2.8928,2.892,2.8795,2.8668,2.8645,2.8573,2.8763,2.9312,2.9236,2.9006,2.8818,2.8708,2.8629,2.8468,2.8396,2.8348,2.821,2.8097,2.7949,2.7815,2.7715,2.7615,2.7575,2.7534,2.7448,2.7258,2.713,2.6959,2.6736,2.6537,2.6814,2.6997,2.6956,2.6878,2.6683,2.6578,2.6486,2.6338,2.6177,2.6055,2.5878,2.5756,2.5715,2.5647,2.5536,2.5453,2.5383,2.5314,2.5328,3.4423,3.4349,3.4333,3.4349,3.4325,3.425,3.4226,3.4184,3.3841,3.3727,3.3703,3.3599,3.3527,3.3535,3.3624,3.3771,3.3966,3.3899,3.4131,3.4612,3.4668,3.4745,3.4944,3.4954,3.4866,3.4794,3.4787,3.4771,3.4747,3.4602,3.4546,3.4521,3.4325,3.4184,3.4151,3.394,3.3787,3.372,3.3529,3.3398,3.3398,3.3282,3.3203,3.3219,3.3139,3.3107,3.3087,3.3366,3.3503,3.3424,3.3398,3.3372,3.3293,3.3214,3.2762,3.1895,3.1319,3.0647,2.9711,2.9147,2.8873,2.8779,2.8732,2.8684,2.8668,2.8621,2.8549,2.8549,2.8493,2.8444,2.8308,2.8195,2.8332,2.8708,2.8668,2.8549,2.8381,2.8195,2.8024,2.79,2.7865,2.779,2.769,2.759,2.7524,2.7372,2.7233,2.7144,2.7052,2.6945,2.6788,2.6618,2.6513,2.6433,2.6204,2.6028,2.6109,2.6297,2.6324,2.6336,2.6163,2.6015,2.5921,2.5811,2.5647,2.5481,2.53,2.5188,2.5174,2.5146,2.5103,2.4977,2.485,2.4793,2.4835,3.4025,3.3949,3.3949,3.3965,3.3949,3.3848,3.3838,3.3838,3.3745,3.3694,3.372,3.3771,3.3822,3.3848,3.3924,3.3949,3.3965,3.3949,3.4126,3.4448,3.457,3.4594,3.4594,3.4521,3.4448,3.4349,3.425,3.4201,3.4201,3.4025,3.3924,3.3899,3.3761,3.3658,3.3607,3.3382,3.3208,3.3129,3.2958,3.2839,3.2812,3.2703,3.2624,3.257,3.2499,3.2373,3.2201,3.2492,3.2715,3.2812,3.2839,3.2784,3.2703,3.273,3.2392,3.1683,3.1011,3.0303,2.9537,2.8896,2.8493,2.8396,2.8299,2.8259,2.8235,2.8186,2.8113,2.8088,2.8029,2.8005,2.789,2.779,2.78,2.79,2.8039,2.8039,2.7915,2.7715,2.7539,2.7437,2.7386,2.7284,2.7155,2.7063,2.6985,2.6829,2.6712,2.6621,2.6486,2.6365,2.6204,2.6042,2.592,2.5811,2.5702,2.555,2.5439,2.5578,2.5688,2.5715,2.566,2.555,2.5453,2.5314,2.5174,2.509,2.4935,2.4793,2.4736,2.4679,2.465,2.4536,2.4421,2.4392,2.4392,3.3658,3.3642,3.3658,3.3633,3.3633,3.3617,3.3591,3.3633,3.3617,3.3591,3.3607,3.3565,3.3633,3.3617,3.3607,3.3617,3.3658,3.3633,3.3633,3.3745,3.3899,3.4,3.4075,3.405,3.4025,3.4,3.3813,3.3694,3.371,3.3461,3.3266,3.3319,3.3266,3.3187,3.3054,3.2861,3.2711,3.2574,3.241,3.2342,3.2342,3.2203,3.2122,3.1981,3.1853,3.1695,3.1623,3.1638,3.1838,3.2244,3.2342,3.2342,3.2327,3.2342,3.2023,3.1443,3.0791,3.0119,2.9403,2.8746,2.8318,2.8201,2.8024,2.7959,2.7885,2.775,2.7625,2.7575,2.7488,2.7401,2.7361,2.7258,2.7167,2.7167,2.7397,2.7488,2.7361,2.7233,2.7093,2.6963,2.6951,2.6832,2.6551,2.6498,2.6365,2.6218,2.6111,2.6029,2.5921,2.5825,2.5688,2.5564,2.5439,2.5342,2.5286,2.5174,2.509,2.509,2.5174,2.516,2.5202,2.5118,2.4977,2.4835,2.475,2.4664,2.4536,2.4363,2.4276,2.4247,2.4189,2.4102,2.4044,2.3985,2.3927,3.3096,3.3096,3.3096,3.3112,3.3112,3.3096,3.3096,3.3096,3.3139,3.3165,3.3139,3.3112,3.3139,3.3123,3.3139,3.3112,3.3139,3.3139,3.3096,3.3139,3.3176,3.3398,3.3581,3.3555,3.3529,3.3503,3.3424,3.3398,3.3372,3.3049,3.2926,3.2911,3.2726,3.2633,3.2535,3.233,3.2219,3.2107,3.1851,3.1737,3.1737,3.1724,3.1667,3.1638,3.1537,3.1466,3.1365,3.1263,3.1365,3.168,3.1752,3.1737,3.1766,3.1737,3.1675,3.1406,3.0832,3.0129,2.9372,2.8685,2.8124,2.7584,2.7473,2.7397,2.7397,2.7361,2.7258,2.7196,2.7119,2.7,2.6788,2.6709,2.6604,2.6486,2.675,2.6933,2.6762,2.6604,2.65,2.6367,2.634,2.6245,2.6111,2.6042,2.5961,2.5811,2.566,2.5536,2.5439,2.5342,2.523,2.516,2.5048,2.4977,2.4892,2.4791,2.4734,2.4706,2.4692,2.465,2.4736,2.4778,2.4563,2.4374,2.4332,2.4261,2.4028,2.3822,2.3793,2.3881,2.3793,2.3734,2.3616,2.3569,2.3497,3.2912,3.2912,3.2912,3.2912,3.2912,3.2912,3.2912,3.2912,3.2912,3.2912,3.2912,3.2912,3.2912,3.2912,3.2912,3.2912,3.2912,3.2912,3.2912,3.287,3.2757,3.292,3.315,3.315,3.3096,3.3011,3.2958,3.2877,3.2812,3.259,3.2465,3.241,3.2216,3.212,3.2092,3.1853,3.1712,3.1668,3.1452,3.1321,3.1336,3.1336,3.1234,3.1175,3.1117,3.1029,3.0821,3.0717,3.0881,3.1219,3.1336,3.1336,3.1336,3.1336,3.1336,3.1306,3.0697,3.0015,2.9265,2.8532,2.7845,2.7251,2.7011,2.6919,2.6893,2.6855,2.6765,2.6727,2.67,2.658,2.6365,2.6285,2.615,2.6015,2.6111,2.6231,2.6231,2.6192,2.6029,2.5893,2.5797,2.5743,2.5564,2.5522,2.5439,2.5342,2.5216,2.5104,2.4977,2.4892,2.4778,2.4679,2.4622,2.4549,2.4447,2.4332,2.4274,2.4274,2.4232,2.4189,2.429,2.4347,2.4187,2.3995,2.3923,2.3835,2.3658,2.3539,2.3539,2.3569,2.348,2.339,2.33,2.3271,2.3198,3.2831,3.2804,3.2804,3.2816,3.2788,3.2804,3.2734,3.2804,3.2734,3.2761,3.2761,3.2788,3.2707,3.2816,3.2707,3.2746,3.2761,3.2707,3.2734,3.2664,3.2511,3.2523,3.2761,3.2746,3.2676,3.2563,3.241,3.2315,3.2219,3.2038,3.1953,3.1896,3.1739,3.1653,3.1596,3.1365,3.1263,3.1205,3.1058,3.094,3.0925,3.0925,3.0791,3.0628,3.0598,3.0492,3.0249,3.0172,3.0416,3.0955,3.0999,3.0969,3.0984,3.0984,3.0955,3.0896,3.0441,2.9825,2.9179,2.8499,2.7786,2.7222,2.6804,2.6527,2.6527,2.6433,2.634,2.6313,2.626,2.6152,2.5961,2.5879,2.5729,2.5578,2.5439,2.5495,2.5688,2.5784,2.5688,2.5384,2.5356,2.5216,2.5061,2.4948,2.492,2.4878,2.4765,2.4664,2.4534,2.4419,2.4319,2.4234,2.4189,2.4144,2.4011,2.3907,2.3835,2.3806,2.3776,2.3763,2.3835,2.3865,2.3717,2.3628,2.3658,2.3628,2.3509,2.342,2.3403,2.336,2.33,2.3198,2.3108,2.3108,2.3047,3.2193,3.2193,3.2193,3.2193,3.2193,3.2193,3.2193,3.2237,3.2221,3.2249,3.2193,3.2193,3.2221,3.2221,3.2265,3.2178,3.2206,3.2221,3.2193,3.2165,3.2137,3.2094,3.2193,3.2193,3.215,3.2107,3.2107,3.1966,3.1824,3.1667,3.1552,3.1467,3.1366,3.122,3.119,3.1029,3.0851,3.0762,3.0568,3.0462,3.0385,3.0385,3.0325,3.0219,3.0203,3.0172,3.0111,3.008,3.0172,3.0294,3.0339,3.0355,3.0385,3.0385,3.0385,3.0357,3.024,2.9807,2.9202,2.8828,2.8326,2.7364,2.7095,2.6909,2.6354,2.6234,2.6112,2.6002,2.5893,2.5702,2.5467,2.537,2.5258,2.509,2.4963,2.4907,2.4907,2.509,2.5104,2.4991,2.4935,2.4863,2.4692,2.4635,2.4578,2.4421,2.4319,2.4229,2.4112,2.3995,2.394,2.3897,2.3868,2.3852,2.3776,2.3641,2.3569,2.3509,2.345,2.339,2.3463,2.3522,2.345,2.345,2.345,2.339,2.333,2.3228,2.318,2.3138,2.3138,2.3047,2.2957,2.2957,2.2939,3.2012,3.2012,3.2012,3.2012,3.2012,3.2012,3.2012,3.2012,3.2012,3.2012,3.2012,3.2012,3.2012,3.2012,3.1912,3.1868,3.184,3.1783,3.171,3.1697,3.1668,3.1626,3.1568,3.1597,3.1611,3.171,3.1768,3.1653,3.1452,3.1336,3.1278,3.1205,3.1058,3.0925,3.0866,3.0672,3.0507,3.0371,3.0266,3.0158,3.0111,3.008,3.005,2.9929,2.9882,2.9865,2.9865,2.9865,2.9865,2.9865,2.9865,2.9927,3.008,3.008,3.008,3.008,3.008,2.975,2.922,2.8889,2.8447,2.7512,2.7342,2.6933,2.6526,2.6287,2.6064,2.5772,2.555,2.5342,2.5048,2.492,2.482,2.4734,2.4563,2.4447,2.4447,2.462,2.475,2.4607,2.452,2.4419,2.4332,2.4261,2.4144,2.3985,2.3969,2.3878,2.3865,2.3747,2.3717,2.3675,2.3645,2.3586,2.3539,2.342,2.336,2.33,2.3258,2.318,2.315,2.321,2.3241,2.3241,2.3241,2.3228,2.3168,2.3078,2.2987,2.2987,2.2969,2.2878,2.2848,2.2818,2.2787,3.1855,3.1855,3.1855,3.1855,3.1855,3.1855,3.1826,3.1855,3.184,3.1798,3.1855,3.184,3.1769,3.1783,3.1668,3.1596,3.1567,3.1495,3.1394,3.1322,3.1322,3.1278,3.1205,3.122,3.1234,3.1379,3.1423,3.1278,3.1117,3.1014,3.0969,3.094,3.0776,3.0627,3.0492,3.0371,3.0205,3.0083,3.0066,3.0005,2.9988,2.9988,2.9913,2.9806,2.9682,2.9602,2.9602,2.9602,2.9571,2.954,2.9509,2.9665,2.9865,2.9988,2.9958,2.9927,2.9865,2.9546,2.913,2.8827,2.8484,2.769,2.7474,2.7081,2.6667,2.646,2.6154,2.5656,2.531,2.5005,2.4736,2.4607,2.4534,2.4419,2.42,2.4054,2.4083,2.4261,2.429,2.4218,2.4115,2.4024,2.3923,2.3835,2.3675,2.3586,2.3569,2.3569,2.3569,2.3497,2.3467,2.3437,2.3407,2.3318,2.3271,2.315,2.309,2.309,2.306,2.3,2.2909,2.2939,2.3,2.303,2.3017,2.3017,2.2987,2.2909,2.2891,2.2848,2.2818,2.2769,2.2708,2.2635,2.2616,3.1249,3.1249,3.1264,3.1249,3.1249,3.1264,3.1278,3.1249,3.1278,3.1249,3.1278,3.1249,3.1293,3.1249,3.122,3.119,3.1146,3.1087,3.1087,3.1073,3.1087,3.1028,3.0999,3.0969,3.094,3.0866,3.0969,3.0999,3.0821,3.0732,3.0612,3.0447,3.031,3.0233,3.0233,3.0142,3.0021,2.9898,2.9867,2.9806,2.9727,2.9665,2.9665,2.9588,2.9526,2.9509,2.946,2.9415,2.9352,2.9194,2.9162,2.9226,2.932,2.9446,2.9446,2.9383,2.9352,2.924,2.9035,2.8986,2.8678,2.826,2.7974,2.7594,2.7092,2.6737,2.6375,2.57,2.5085,2.4647,2.4392,2.4287,2.4141,2.4024,2.3865,2.3717,2.3717,2.3747,2.3806,2.3763,2.3717,2.37,2.3599,2.3509,2.342,2.336,2.333,2.333,2.333,2.3258,2.3168,2.3168,2.3155,2.3078,2.2969,2.2878,2.283,2.286,2.2818,2.2818,2.2739,2.2739,2.2769,2.2696,2.2757,2.2818,2.28,2.2769,2.2739,2.2708,2.2678,2.2629,2.2494,2.2359,2.234,3.1087,3.1087,3.1087,3.1087,3.1087,3.1087,3.1087,3.1087,3.1087,3.1087,3.1087,3.1087,3.1014,3.0955,3.0866,3.0776,3.0627,3.0567,3.0567,3.0567,3.0597,3.0611,3.0597,3.0597,3.0506,3.0416,3.0506,3.0567,3.0431,3.0371,3.028,3.0219,3.0111,3.005,2.9974,2.996,2.9837,2.9699,2.962,2.9588,2.9477,2.9415,2.9352,2.9352,2.9352,2.9289,2.9257,2.9226,2.9194,2.9131,2.9113,2.9035,2.8972,2.894,2.9035,2.9081,2.9067,2.8972,2.8876,2.8812,2.8584,2.8234,2.8153,2.7818,2.7319,2.6952,2.6573,2.5813,2.5153,2.4649,2.4394,2.4075,2.3832,2.373,2.3599,2.3509,2.348,2.342,2.339,2.3378,2.345,2.345,2.3318,2.3241,2.318,2.3163,2.3103,2.3103,2.3103,2.303,2.2957,2.2927,2.2927,2.2848,2.2757,2.2678,2.2555,2.2555,2.2555,2.2555,2.2512,2.2463,2.2371,2.2278,2.2371,2.2555,2.2647,2.2616,2.2586,2.2525,2.2371,2.2247,2.2154,2.208,2.2061,3.0925,3.0895,3.0895,3.091,3.0895,3.0895,3.088,3.091,3.0866,3.0836,3.091,3.0866,3.0762,3.0642,3.0522,3.0371,3.008,3.0111,3.0142,3.0172,3.0172,3.0111,3.0111,3.008,3.0111,3.0097,3.0019,3.0019,3.0142,3.0097,3.0036,3.0005,2.9974,2.9882,2.973,2.9651,2.9574,2.9495,2.9383,2.9352,2.9289,2.9194,2.9113,2.9113,2.9113,2.9099,2.9035,2.9035,2.8958,2.8926,2.8894,2.883,2.8683,2.8554,2.8619,2.8844,2.8908,2.8748,2.86,2.8503,2.8379,2.8136,2.8072,2.7767,2.7332,2.6976,2.6598,2.5931,2.5348,2.4788,2.442,2.4004,2.3735,2.3539,2.345,2.333,2.3288,2.3228,2.3138,2.3168,2.3228,2.321,2.3108,2.3,2.2951,2.2951,2.2891,2.2891,2.2891,2.283,2.28,2.2739,2.2708,2.2647,2.2555,2.2463,2.2352,2.2259,2.2259,2.2216,2.2185,2.2142,2.203,2.198,2.2092,2.2278,2.2402,2.2389,2.2247,2.2123,2.1968,2.1906,2.1906,2.1874,2.1855,3.0341,3.0217,3.0233,3.0203,3.0248,3.0264,3.0233,3.0233,3.0264,3.0233,3.0222,3.0248,3.0264,3.0203,3.0203,3.0142,3.008,3.0019,2.9988,2.9958,2.9988,2.9988,3.005,3.008,2.9913,2.9789,2.9696,2.9865,2.9927,2.9837,2.9822,2.9761,2.9602,2.9446,2.9463,2.9338,2.9162,2.9162,2.9162,2.9131,2.9099,2.9067,2.9049,2.9081,2.9049,2.894,2.8812,2.878,2.8716,2.8476,2.843,2.8346,2.8197,2.8145,2.8177,2.821,2.821,2.821,2.8158,2.8145,2.8112,2.7947,2.7868,2.7729,2.7321,2.6745,2.6322,2.6141,2.5557,2.4981,2.4511,2.4208,2.3872,2.3508,2.321,2.315,2.3108,2.3047,2.2987,2.2896,2.2969,2.2969,2.2909,2.28,2.2708,2.2708,2.2708,2.2678,2.2616,2.2525,2.2494,2.2445,2.2371,2.2309,2.2278,2.2185,2.2135,2.198,2.1949,2.1949,2.1906,2.1874,2.1781,2.1761,2.1855,2.1843,2.1812,2.1781,2.1781,2.1781,2.1749,2.173,2.173,2.1679,2.1572,3.0052,3.008,3.008,3.008,3.008,3.008,3.008,3.008,3.008,2.9911,2.9711,2.9983,3.0036,2.9929,2.9882,2.9772,2.971,2.971,2.9634,2.9585,2.9554,2.9554,2.9509,2.954,2.9477,2.9477,2.9352,2.9352,2.9477,2.9463,2.9432,2.9401,2.9306,2.924,2.9226,2.9131,2.9113,2.9081,2.9004,2.8876,2.8812,2.8702,2.8656,2.8624,2.8587,2.8522,2.8471,2.8406,2.8373,2.8197,2.8197,2.8099,2.7921,2.7835,2.7749,2.7649,2.7549,2.757,2.7736,2.7669,2.7636,2.7516,2.7416,2.7289,2.7116,2.6747,2.6354,2.6266,2.5673,2.5066,2.4474,2.4041,2.3548,2.3181,2.3019,2.2939,2.2909,2.2878,2.2818,2.2757,2.2696,2.2665,2.2635,2.2543,2.2463,2.2402,2.234,2.2247,2.2185,2.2061,2.2073,2.2042,2.2011,2.1968,2.1906,2.1874,2.1886,2.1792,2.1749,2.1718,2.1686,2.1624,2.1509,2.1319,2.1276,2.1244,2.1192,2.1414,2.1592,2.1604,2.1541,2.1478,2.1414,2.1181,2.1085,2.9628,2.9638,2.9825,2.9927,2.9898,2.974,2.9593,2.9579,2.9367,2.9114,2.9002,2.9282,2.9574,2.9637,2.954,2.9429,2.932,2.932,2.9226,2.9145,2.9113,2.9145,2.9208,2.9176,2.9176,2.9113,2.9004,2.9004,2.8972,2.8908,2.8908,2.9067,2.9067,2.9017,2.894,2.8876,2.8844,2.8748,2.8651,2.8554,2.8457,2.8346,2.8281,2.8249,2.8151,2.8112,2.8112,2.8033,2.8033,2.7934,2.7881,2.7736,2.7556,2.7436,2.7348,2.7248,2.7066,2.6985,2.7154,2.7188,2.71,2.6977,2.6807,2.676,2.6658,2.6555,2.6474,2.6227,2.585,2.5206,2.4579,2.4062,2.3601,2.3226,2.2862,2.277,2.2678,2.2678,2.2635,2.2574,2.2482,2.2359,2.2328,2.2235,2.2185,2.2123,2.203,2.1906,2.1812,2.1718,2.1761,2.1792,2.1792,2.1718,2.1643,2.1612,2.1592,2.1541,2.1498,2.1434,2.134,2.1244,2.1106,2.0958,2.0797,2.083,2.0937,2.1213,2.1434,2.1276,2.1149,2.1117,2.101,2.0797,2.0701,2.8816,2.8404,2.9132,2.9376,2.9334,2.8646,2.8349,2.8355,2.7813,2.7676,2.7804,2.8102,2.8716,2.9083,2.9194,2.9162,2.9131,2.9099,2.9067,2.9035,2.9113,2.9004,2.8986,2.8986,2.9017,2.8972,2.878,2.8651,2.8587,2.8438,2.8619,2.8972,2.8812,2.8716,2.8619,2.8522,2.8425,2.8341,2.8276,2.821,2.8177,2.8112,2.8079,2.8066,2.8079,2.8079,2.8046,2.7868,2.7689,2.7556,2.7469,2.7302,2.7134,2.7066,2.6977,2.6841,2.6611,2.653,2.6564,2.676,2.6829,2.6692,2.6474,2.628,2.6176,2.6037,2.5945,2.591,2.5634,2.5389,2.4924,2.4525,2.3823,2.3194,2.2729,2.2566,2.2493,2.2494,2.2463,2.2389,2.2266,2.2123,2.2061,2.1999,2.1999,2.1949,2.1831,2.1737,2.1592,2.1529,2.1561,2.1592,2.1624,2.1549,2.14,2.1348,2.1233,2.1149,2.1085,2.099,2.0862,2.0797,2.0786,2.0733,2.0637,2.0669,2.0669,2.0797,2.0862,2.0797,2.0765,2.0765,2.0722,2.0593,2.054,2.7873,2.7665,2.7898,2.8041,2.8074,2.7778,2.7651,2.761,2.7419,2.7527,2.7787,2.7759,2.8188,2.8878,2.9113,2.9035,2.894,2.8812,2.8734,2.8605,2.8522,2.849,2.8503,2.8536,2.8484,2.8471,2.8341,2.8308,2.8276,2.8079,2.821,2.8406,2.836,2.8373,2.8243,2.8197,2.8145,2.8079,2.8079,2.8046,2.7901,2.7769,2.7703,2.7603,2.7449,2.7416,2.7395,2.7348,2.7281,2.7214,2.7146,2.6909,2.6692,2.6658,2.6555,2.6396,2.6211,2.6129,2.6094,2.6245,2.628,2.6211,2.6072,2.5968,2.5805,2.5688,2.5583,2.5512,2.5371,2.5084,2.4489,2.4202,2.3764,2.3081,2.2691,2.2495,2.2383,2.2421,2.2294,2.2248,2.2071,2.1855,2.1824,2.1761,2.1761,2.1761,2.1643,2.1537,2.1423,2.1296,2.1296,2.1276,2.1276,2.1213,2.1094,2.0978,2.085,2.0797,2.0733,2.0669,2.0572,2.054,2.0529,2.0475,2.0443,2.041,2.0378,2.0346,2.041,2.054,2.054,2.0475,2.041,2.0335,2.0302,2.687,2.672,2.6658,2.6813,2.7102,2.6907,2.6765,2.6722,2.653,2.6955,2.7622,2.7359,2.781,2.8575,2.878,2.8716,2.8568,2.8503,2.8392,2.8295,2.821,2.8112,2.8112,2.8112,2.8145,2.8013,2.7901,2.7901,2.7835,2.7815,2.7749,2.7749,2.7782,2.7815,2.8,2.7901,2.7835,2.7782,2.7749,2.7703,2.7536,2.7436,2.7335,2.7248,2.7113,2.7092,2.7058,2.7011,2.6909,2.6829,2.6726,2.6568,2.6371,2.622,2.6129,2.5968,2.5875,2.584,2.5793,2.5793,2.5793,2.5746,2.5641,2.5618,2.5524,2.5348,2.5206,2.5159,2.4957,2.4637,2.4167,2.413,2.3917,2.3347,2.2959,2.2743,2.2518,2.2423,2.2237,2.2111,2.1875,2.1635,2.1616,2.1596,2.1631,2.1607,2.1486,2.138,2.1265,2.1138,2.0999,2.0946,2.0894,2.0797,2.0701,2.0669,2.0625,2.0593,2.0508,2.0475,2.041,2.0335,2.0302,2.0313,2.0248,2.0151,2.0118,2.014,2.0281,2.041,2.0346,2.0205,2.0151,2.0074,1.9933,2.6035,2.5439,2.5482,2.5998,2.6633,2.6026,2.5663,2.5614,2.5255,2.5644,2.6644,2.7001,2.7568,2.8103,2.8276,2.8276,2.8197,2.8145,2.8079,2.8046,2.7914,2.8013,2.8027,2.7961,2.7815,2.7743,2.7623,2.7469,2.7369,2.7281,2.718,2.7159,2.7248,2.7335,2.7723,2.7469,2.7248,2.7092,2.7113,2.7113,2.7079,2.7045,2.7011,2.6922,2.6888,2.6854,2.6739,2.6671,2.6555,2.644,2.6349,2.6188,2.5968,2.5933,2.591,2.584,2.5688,2.5618,2.5606,2.5571,2.5465,2.5359,2.5253,2.5171,2.4969,2.4825,2.4825,2.4849,2.4742,2.4718,2.4531,2.4308,2.3979,2.3639,2.3208,2.2928,2.2706,2.2519,2.2346,2.2276,2.1836,2.1478,2.1426,2.1429,2.1499,2.1444,2.1299,2.1224,2.1197,2.099,2.085,2.069,2.0593,2.054,2.0475,2.0443,2.041,2.0346,2.0346,2.0313,2.0248,2.0183,2.0151,2.0118,2.0042,1.9944,1.9944,1.9976,2.0042,2.0107,2.0042,1.99,1.9846,1.9813,1.9704,2.5931,2.5399,2.5399,2.5548,2.5658,2.5183,2.5127,2.5428,2.5655,2.6161,2.68,2.7128,2.7533,2.7965,2.8079,2.8046,2.8013,2.7756,2.7689,2.7669,2.7549,2.7382,2.7382,2.7449,2.7369,2.7268,2.718,2.718,2.7113,2.6977,2.6977,2.7024,2.6956,2.7079,2.7214,2.7146,2.7058,2.7024,2.7024,2.6956,2.6794,2.676,2.6705,2.6512,2.6477,2.643,2.6361,2.6292,2.6211,2.6094,2.6015,2.591,2.5758,2.5723,2.5653,2.5535,2.5347,2.5194,2.5135,2.5064,2.5028,2.4945,2.4921,2.4861,2.479,2.4646,2.461,2.4574,2.449,2.4465,2.4289,2.4243,2.4011,2.3606,2.3237,2.304,2.2832,2.2716,2.2555,2.2555,2.2279,2.2153,2.2085,2.1743,2.1665,2.1571,2.147,2.1518,2.1533,2.102,2.0723,2.0508,2.0367,2.0335,2.0292,2.0424,2.0424,2.0369,2.0281,2.0183,2.0118,2.0053,1.9976,1.9976,1.9868,1.9769,1.9736,1.9747,1.9747,1.9736,1.9704,1.9704,1.9681,1.9648,1.9583,2.5897,2.5536,2.5523,2.5493,2.5353,2.4961,2.5041,2.5489,2.5993,2.6448,2.6776,2.7013,2.7315,2.7604,2.7716,2.7716,2.7683,2.7469,2.7335,2.7268,2.71,2.7079,2.7058,2.699,2.7045,2.6943,2.6888,2.6888,2.6807,2.6807,2.6807,2.6773,2.6752,2.6671,2.6739,2.6773,2.6807,2.6752,2.6649,2.658,2.6452,2.6383,2.628,2.6154,2.6097,2.6062,2.5957,2.5875,2.5875,2.5828,2.5758,2.5688,2.5571,2.55,2.543,2.5241,2.5076,2.4909,2.4742,2.4718,2.4706,2.4598,2.4646,2.4646,2.4598,2.4454,2.4418,2.4345,2.4273,2.4164,2.4127,2.4116,2.3942,2.353,2.3278,2.3085,2.2902,2.2742,2.2503,2.2537,2.2526,2.2526,2.2514,2.2275,2.1946,2.1797,2.166,2.1729,2.1809,2.1326,2.0904,2.0708,2.0643,2.0753,2.072,2.0643,2.0566,2.0413,2.026,2.0129,2.002,1.9976,1.99,1.9802,1.9736,1.9638,1.955,1.9517,1.9517,1.9473,1.9407,1.944,1.9483,1.945,1.9407,2.5876,2.5819,2.5819,2.5819,2.5746,2.5446,2.5406,2.5549,2.5974,2.6178,2.6229,2.6835,2.7108,2.7066,2.7058,2.7092,2.7113,2.7058,2.7011,2.6977,2.6909,2.6922,2.6943,2.6909,2.6807,2.6739,2.6671,2.6568,2.6487,2.6465,2.6452,2.6418,2.6339,2.6305,2.6327,2.643,2.6452,2.6327,2.627,2.6188,2.6119,2.6015,2.598,2.591,2.5875,2.5828,2.5793,2.5805,2.5723,2.5653,2.5583,2.5453,2.5382,2.5312,2.5206,2.504,2.4861,2.4706,2.4526,2.449,2.4418,2.4345,2.4418,2.4381,2.4309,2.4261,2.4261,2.42,2.4127,2.4007,2.3922,2.3897,2.3813,2.3528,2.3253,2.305,2.287,2.2645,2.2364,2.2262,2.2228,2.2217,2.2218,2.206,2.1981,2.1981,2.1857,2.1912,2.1913,2.1688,2.1319,2.1241,2.1218,2.1381,2.1225,2.0697,2.0544,2.0347,2.0216,2.0085,1.9976,1.9911,1.9835,1.9736,1.9638,1.9506,1.9384,1.9318,1.9274,1.9241,1.9241,1.9241,1.9308,1.9274,1.9208,2.6759,2.6438,2.6278,2.6246,2.622,2.6251,2.6127,2.6031,2.6499,2.6734,2.678,2.69,2.6956,2.7024,2.7024,2.699,2.6956,2.6875,2.6829,2.676,2.6705,2.6671,2.6636,2.6662,2.6512,2.6433,2.6377,2.6429,2.6181,2.6134,2.6146,2.6037,2.6175,2.6103,2.6114,2.6097,2.6124,2.6077,2.6054,2.591,2.5875,2.584,2.5793,2.5723,2.57,2.5641,2.5571,2.5535,2.5465,2.543,2.5394,2.5347,2.5312,2.5218,2.504,2.4706,2.4598,2.449,2.4345,2.4309,2.4273,2.4225,2.4273,2.4273,2.42,2.4189,2.4152,2.408,2.4007,2.3897,2.374,2.3677,2.3604,2.3455,2.3195,2.2961,2.276,2.2514,2.2246,2.2055,2.2056,2.2056,2.2023,2.1945,2.189,2.2014,2.2003,2.1947,2.1959,2.1711,2.1632,2.1497,2.1351,2.1381,2.0906,2.0369,2.0325,2.0249,2.0172,2.0085,2.0009,1.9944,1.9802,1.9671,1.9506,1.9341,1.9208,1.9142,1.9175,1.9142,1.9131,1.9142,1.9142,1.9098,1.9098,2.7241,2.6941,2.6731,2.6598,2.655,2.6642,2.6532,2.6341,2.6633,2.6807,2.6807,2.682,2.6807,2.6807,2.6807,2.6773,2.6773,2.6705,2.6624,2.6589,2.649,2.6396,2.6386,2.6517,2.6536,2.6456,2.6581,2.6828,2.65,2.6525,2.6574,2.6599,2.6466,2.6417,2.6455,2.648,2.6371,2.6225,2.6041,2.5796,2.576,2.5725,2.5583,2.5584,2.5549,2.5478,2.536,2.5372,2.5348,2.5324,2.5312,2.5312,2.5241,2.5076,2.4873,2.4574,2.4418,2.4345,2.4236,2.4236,2.4189,2.4189,2.4189,2.4189,2.4189,2.4189,2.408,2.397,2.3897,2.3824,2.3629,2.3446,2.3409,2.3335,2.3069,2.2814,2.2617,2.2384,2.2184,2.1985,2.1929,2.194,2.1885,2.1786,2.1652,2.1451,2.1229,2.103,2.133,2.161,2.1609,2.1596,2.135,2.1171,2.0654,2.0336,2.038,2.0358,2.0205,2.0129,2.0064,1.9911,1.9769,1.9539,1.9341,1.9208,1.9142,1.9108,1.9098,1.9098,1.9098,1.9098,1.9108,1.9098,1.9098,2.7268,2.7255,2.7058,2.6824,2.6679,2.6692,2.6611,2.6452,2.6487,2.6499,2.6499,2.6465,2.643,2.643,2.643,2.643,2.643,2.6396,2.6496,2.6493,2.6445,2.639,2.659,2.6632,2.677,2.6943,2.7029,2.7115,2.7287,2.7176,2.7054,2.7434,2.7138,2.6955,2.6869,2.6819,2.6697,2.6625,2.6263,2.59,2.5696,2.5516,2.5444,2.5516,2.554,2.5528,2.5516,2.548,2.5432,2.5456,2.5492,2.5552,2.5409,2.5253,2.5,2.4654,2.4507,2.4342,2.4235,2.42,2.4189,2.4189,2.4189,2.4189,2.4189,2.4189,2.408,2.3934,2.3861,2.3751,2.3604,2.3482,2.3446,2.3302,2.3062,2.2717,2.2372,2.2009,2.1546,2.137,2.1215,2.1237,2.1249,2.1084,2.1018,2.0819,2.0687,2.0413,2.0588,2.1152,2.1262,2.1372,2.1095,2.0818,2.0807,2.0554,2.0576,2.0511,2.0249,2.0041,1.9889,1.978,1.9714,1.9473,1.9274,1.9208,1.9142,1.9098,1.9098,1.9098,1.9098,1.9098,1.9108,1.9127,1.9139,2.7092,2.7045,2.6875,2.6692,2.6555,2.6555,2.643,2.627,2.6283,2.627,2.6236,2.6131,2.6084,2.6084,2.6084,2.6097,2.6134,2.6255,2.6321,2.6544,2.6596,2.6756,2.7065,2.714,2.7189,2.7152,2.7187,2.7344,2.728,2.7194,2.7084,2.7122,2.7095,2.7167,2.7167,2.7054,2.7042,2.7066,2.6839,2.6612,2.6538,2.6501,2.6501,2.6453,2.6429,2.6369,2.6381,2.6417,2.6502,2.6513,2.6513,2.6439,2.6278,2.6068,2.5644,2.5201,2.49,2.4676,2.4478,2.4409,2.4384,2.4281,2.4258,2.4212,2.4189,2.42,2.4116,2.397,2.3861,2.3714,2.3604,2.3519,2.3434,2.3268,2.3091,2.2619,2.2185,2.1559,2.0981,2.0773,2.0587,2.0521,2.0544,2.0445,2.0325,2.0271,2.0249,2.0172,2.014,2.0457,2.0511,2.0566,2.0489,2.0347,2.0466,2.0498,2.0389,2.0269,2.0019,1.9823,1.9704,1.9648,1.9583,1.9374,1.9208,1.9142,1.9108,1.9108,1.9065,1.9031,1.9029,1.9006,1.9194,1.9276,1.9261,2.6875,2.6829,2.6705,2.6555,2.6487,2.6408,2.6305,2.6166,2.6015,2.5945,2.5945,2.591,2.5923,2.5923,2.5923,2.6072,2.6158,2.6267,2.6671,2.6943,2.6981,2.7066,2.7335,2.7553,2.7513,2.7436,2.769,2.7746,2.7548,2.7657,2.7693,2.7596,2.7546,2.7534,2.7558,2.7582,2.7546,2.7657,2.7534,2.7534,2.7476,2.7234,2.6934,2.6885,2.691,2.6922,2.6885,2.6885,2.6885,2.6873,2.6813,2.6701,2.6564,2.6439,2.6167,2.5814,2.5535,2.5281,2.5024,2.4872,2.4823,2.4763,2.4556,2.4602,2.4499,2.4476,2.4102,2.397,2.3897,2.3787,2.3629,2.3556,2.353,2.3412,2.3309,2.3025,2.2342,2.1587,2.1125,2.0839,2.0587,2.0282,2.0282,2.0205,2.0074,2.0041,1.9987,1.9922,1.9911,1.9944,1.9911,1.9922,1.9911,1.9911,1.9985,1.9974,1.992,1.9801,1.9769,1.9704,1.9605,1.955,1.945,1.9241,1.9142,1.9108,1.9075,1.9008,1.8875,1.8774,1.8815,1.8846,1.9117,1.9397,1.9448,2.6679,2.6645,2.6568,2.6487,2.6452,2.6317,2.6166,2.6097,2.5793,2.5618,2.5606,2.5723,2.584,2.584,2.5963,2.6282,2.6491,2.6566,2.6981,2.731,2.7308,2.7489,2.7607,2.7724,2.7779,2.796,2.8189,2.8321,2.8306,2.8318,2.8306,2.8486,2.851,2.8486,2.851,2.8486,2.8354,2.8294,2.8282,2.839,2.8102,2.7642,2.7354,2.7162,2.7102,2.709,2.7102,2.7102,2.7114,2.7162,2.7258,2.7217,2.7114,2.7049,2.6756,2.6509,2.6273,2.6027,2.5834,2.5639,2.562,2.552,2.521,2.5015,2.4912,2.4677,2.434,2.4164,2.409,2.3858,2.3737,2.3593,2.3604,2.3519,2.3415,2.3256,2.2446,2.1699,2.1344,2.1004,2.062,2.0282,2.0118,2.0042,1.9943,1.99,1.978,1.9681,1.9615,1.9681,1.9714,1.9681,1.9671,1.9648,1.9615,1.9615,1.9638,1.9572,1.9539,1.9539,1.9473,1.9308,1.9185,1.9119,1.9042,1.8942,1.8875,1.8774,1.865,1.8549,1.8819,1.8974,1.9186,1.9464,1.9636,2.6521,2.6521,2.6499,2.6487,2.6465,2.627,2.6097,2.5945,2.5711,2.5523,2.543,2.5382,2.5418,2.5454,2.5901,2.6275,2.6554,2.6796,2.7193,2.7577,2.7676,2.7903,2.8068,2.8129,2.8294,2.839,2.8426,2.8474,2.851,2.851,2.851,2.851,2.851,2.851,2.851,2.851,2.851,2.851,2.851,2.851,2.851,2.827,2.8282,2.821,2.821,2.821,2.8198,2.8198,2.821,2.821,2.8086,2.8038,2.7924,2.7774,2.7525,2.7233,2.7007,2.6648,2.6438,2.619,2.6096,2.5922,2.5658,2.5566,2.5409,2.5237,2.4956,2.4793,2.4597,2.4062,2.3875,2.3663,2.3593,2.3409,2.329,2.2981,2.2443,2.2065,2.1813,2.1386,2.0949,2.0609,2.0303,2.0204,2.0116,1.9985,1.9832,1.9689,1.9622,1.958,1.9527,1.945,1.9384,1.9517,1.9583,1.9517,1.9483,1.9407,1.9308,1.9208,1.9108,1.8975,1.8875,1.8841,1.8751,1.865,1.8583,1.8573,1.8516,1.8498,1.8917,1.9183,1.9349,1.9549,1.9803]}]]